GFSGL_850_spd_000.txt.gz
Wind_Speed
34 37 36 30 27 26 24 24 19 19 14 14 13 13 13 13 13 15 14 12 12 11 11 12 11 12 11 11 12 13 15 15 20 22 19 18 17 19 19 19 20 20 20
38 40 36 30 27 27 26 27 21 22 16 12 8 16 17 16 15 17 16 13 12 13 12 12 10 10 11 12 13 13 15 15 19 22 23 21 20 19 19 21 22 22 22
32 30 32 32 32 29 31 32 27 25 21 21 31 29 22 23 21 20 18 16 14 13 13 13 13 13 14 13 15 15 16 17 20 21 22 19 22 21 21 24 21 25 22
29 29 29 30 28 34 35 36 36 35 32 36 39 33 33 26 23 22 18 17 16 15 15 15 15 15 15 14 16 16 16 18 21 21 22 22 22 24 24 24 25 25 27
27 27 26 24 29 36 39 40 42 44 48 46 44 39 34 29 27 24 20 19 18 18 16 16 16 16 17 17 18 19 22 21 22 23 25 25 27 24 25 26 27 27 28
24 24 23 27 31 35 37 38 45 53 54 51 49 41 34 29 26 26 24 19 18 17 16 17 18 20 25 23 22 24 25 25 27 25 26 29 28 25 24 25 27 28 32
21 23 25 31 30 29 27 32 40 52 53 49 49 38 30 36 28 25 23 23 19 18 19 20 22 24 24 26 26 24 24 26 27 29 24 23 25 23 25 28 26 28 32
22 23 24 25 23 21 23 25 30 41 50 47 41 36 26 30 31 30 26 25 25 23 23 23 25 23 24 27 24 22 23 24 20 23 22 22 22 26 30 31 30 31 33
21 21 21 20 21 21 21 22 26 33 35 30 30 25 24 27 29 28 28 25 25 29 26 29 36 36 23 26 23 24 22 22 19 22 26 25 26 28 29 28 23 24 27
17 17 16 18 19 18 18 19 20 26 28 27 28 25 24 24 23 24 27 27 30 26 28 30 29 19 22 22 22 22 17 17 16 19 21 19 22 21 23 24 23 24 27
15 16 18 18 20 18 19 17 19 20 20 23 23 24 27 24 25 22 23 27 27 26 26 19 15 16 18 20 22 22 18 20 21 20 18 20 20 19 19 19 21 22 27
16 18 19 20 21 21 20 18 19 19 22 19 19 23 21 25 24 24 24 23 23 21 18 10 17 19 19 20 21 21 20 20 16 17 18 20 20 20 20 21 26 26 27
17 19 19 19 21 19 17 19 19 18 18 19 18 17 17 17 21 22 20 21 19 16 11 16 19 20 21 20 20 18 17 13 15 16 18 19 18 20 23 23 24 28 26
16 18 19 21 21 16 14 15 15 13 12 14 15 16 14 13 12 18 19 17 15 14 16 18 18 17 17 16 18 12 9 11 13 16 16 17 18 19 21 22 24 23 23
18 19 20 18 17 16 15 15 12 15 14 12 12 11 10 11 11 12 11 10 9 11 13 9 9 9 10 9 9 9 10 11 12 13 16 17 18 18 19 20 20 21 22
17 16 15 14 11 11 12 18 18 15 13 11 11 11 11 12 13 13 13 12 13 13 12 8 10 10 9 9 11 11 11 12 11 13 14 16 16 17 19 19 18 19 22
14 13 11 13 13 13 11 12 10 17 15 12 12 13 13 13 13 12 12 12 12 12 7 8 8 9 8 10 10 10 10 11 14 11 14 14 14 15 17 18 19 19 22
11 10 11 13 13 10 10 11 11 11 9 12 14 13 12 12 11 10 9 10 8 8 6 7 8 9 9 9 9 9 11 10 11 12 12 12 12 13 15 17 18 19 21
6 10 12 12 9 8 9 10 12 12 10 10 13 13 13 11 9 10 11 7 7 7 7 6 7 8 8 8 9 9 10 9 10 9 9 10 10 12 14 16 17 20 20
11 15 14 7 7 8 8 8 8 9 11 13 11 10 14 12 10 9 8 7 7 6 6 6 7 8 8 8 8 8 8 8 7 7 8 9 10 11 13 15 16 18 18
8 11 14 11 10 8 7 7 7 8 10 11 11 12 14 8 9 9 8 8 7 8 7 7 8 8 7 7 7 7 6 6 6 7 7 9 10 11 13 14 15 16 17
12 13 12 7 4 5 7 7 8 10 10 10 11 15 14 12 9 10 10 11 9 9 8 8 7 7 8 8 8 6 6 5 5 6 7 8 9 10 12 13 14 15 15
11 9 7 7 8 9 9 9 10 11 11 11 12 12 12 12 11 11 11 11 10 9 8 7 7 7 7 6 6 6 5 5 5 6 7 8 9 10 11 12 13 14 15
8 8 7 7 7 7 9 11 11 11 11 11 11 12 12 11 12 14 13 11 11 9 8 7 7 8 9 7 6 6 6 7 6 5 8 7 9 10 9 10 11 12 13
6 6 6 6 6 7 10 11 11 11 11 11 13 13 12 12 13 12 10 11 11 10 9 8 8 8 7 8 8 8 11 9 8 8 6 7 8 9 9 9 10 9 11
5 5 5 5 6 7 8 9 11 11 11 11 11 11 11 11 11 12 12 12 12 11 11 9 9 8 8 8 8 10 9 9 8 8 6 4 7 7 6 7 8 7 8

GFSGL_850_spd_006.txt.gz
Wind_Speed
39 38 38 38 38 36 36 35 36 33 31 33 29 26 23 22 22 20 18 13 12 13 10 17 15 14 15 13 9 9 9 10 13 15 17 16 17 20 18 18 19 19 22
40 40 39 40 39 40 41 40 39 36 37 36 34 31 27 26 25 22 19 23 20 15 13 13 14 16 12 11 10 8 12 15 17 20 16 14 17 17 19 17 20 23 21
42 43 43 41 42 42 44 43 42 41 43 40 39 35 31 31 28 24 20 19 19 18 16 14 13 12 16 15 14 14 15 15 16 17 20 21 22 20 22 21 18 24 25
44 45 44 44 45 44 44 44 43 43 43 42 42 39 35 34 31 27 23 20 17 20 21 19 16 17 18 20 19 20 19 20 21 21 22 21 19 21 25 28 22 19 27
46 45 46 46 46 45 44 46 45 43 44 41 41 40 37 34 33 29 25 22 18 20 19 17 18 19 20 21 20 18 20 22 26 26 28 26 25 24 24 28 34 34 33
47 48 45 45 45 45 44 43 42 40 38 39 39 39 38 36 36 26 24 24 21 21 22 19 20 18 22 18 22 20 21 25 26 29 27 27 26 27 29 29 26 26 28
48 49 46 45 47 46 43 42 42 41 41 38 40 41 41 34 26 23 24 25 24 23 23 22 21 21 19 21 23 19 22 28 31 26 24 26 26 28 27 25 26 28 32
47 47 47 46 47 44 42 42 42 41 39 38 34 35 35 37 34 30 27 25 27 24 24 22 20 20 21 24 23 23 28 31 25 23 24 25 24 25 26 27 31 31 28
48 45 47 43 43 43 42 41 39 37 33 29 31 32 29 28 24 23 25 26 28 29 27 24 23 24 25 23 24 27 29 24 21 23 23 24 23 24 25 24 23 23 26
48 48 41 41 42 42 39 35 32 29 24 21 25 27 18 25 25 26 21 21 24 27 24 22 23 23 25 25 25 27 25 20 23 22 23 24 25 27 19 20 24 28 26
38 36 35 36 38 36 32 26 24 19 19 19 21 22 18 21 23 21 19 19 23 18 17 21 23 22 23 24 22 21 20 22 24 26 27 25 19 18 20 16 16 14 20
32 31 32 34 32 25 19 17 18 18 20 19 17 18 18 19 20 20 17 17 16 19 18 16 16 16 20 21 21 20 22 26 26 23 19 14 16 16 17 21 24 27 29
29 30 32 29 27 26 21 21 18 17 17 15 13 15 14 10 13 14 15 19 18 19 19 26 23 22 23 20 20 22 22 20 20 15 10 15 17 20 22 23 20 22 24
32 31 29 26 22 19 17 16 15 15 15 12 13 13 11 13 15 12 14 15 20 21 22 20 21 22 20 20 17 14 16 17 14 10 17 16 15 18 19 18 20 23 24
28 26 24 23 23 22 22 19 16 17 15 15 13 9 9 12 8 7 6 6 6 11 14 12 11 12 12 13 15 15 14 11 11 11 16 17 18 17 17 17 19 18 21
23 21 24 26 25 27 22 19 18 16 16 15 12 14 11 11 8 6 6 7 6 8 9 11 12 12 15 13 12 12 11 10 9 14 15 18 17 16 16 17 16 17 20
24 25 24 24 23 23 21 19 17 16 14 14 14 14 11 8 9 10 8 9 11 14 14 14 8 12 11 11 10 11 12 13 15 17 16 13 14 14 14 15 16 17 19
24 24 23 20 19 18 18 17 13 11 16 14 13 12 12 10 10 9 9 12 13 11 10 9 9 8 8 10 11 11 11 12 12 13 13 14 9 13 13 14 16 18 20
17 19 18 21 16 17 17 14 19 15 13 14 13 7 10 10 10 9 11 11 7 7 9 7 9 9 8 9 11 12 13 14 13 13 10 6 10 11 13 13 16 17 19
17 16 15 14 20 20 17 13 12 11 17 17 11 10 4 8 9 10 11 12 12 8 9 9 9 9 11 12 13 13 12 9 9 8 9 10 10 11 12 14 16 18 20
11 15 12 16 17 12 11 11 13 12 11 10 11 9 6 5 8 6 7 7 5 6 7 10 10 9 10 12 12 12 8 7 7 8 8 8 10 10 11 14 13 17 18
14 13 11 12 14 14 11 11 8 7 3 9 13 14 9 7 5 9 11 13 11 13 10 11 12 9 8 10 12 11 10 6 7 8 8 8 8 8 12 11 14 16 17
13 14 13 11 15 14 11 8 8 8 9 5 4 6 11 9 8 13 14 14 16 15 14 13 10 9 9 12 14 12 6 5 8 9 10 7 6 8 12 11 13 16 13
7 12 16 11 12 11 10 14 10 10 6 5 8 10 11 13 14 16 15 19 15 12 13 16 14 9 10 10 10 8 8 11 12 13 10 9 3 7 8 11 12 12 16
14 9 11 12 14 13 10 7 10 12 12 12 10 11 13 11 11 12 12 12 12 16 17 16 14 11 11 13 13 13 13 15 17 18 16 11 6 3 11 9 10 10 13
7 7 5 3 3 5 5 6 5 5 13 13 11 12 14 15 13 13 10 12 12 11 16 12 9 12 11 11 11 12 14 15 13 12 10 8 3 4 10 6 8 10 10

GFSGL_850_spd_009.txt.gz
Wind_Speed
41 39 36 39 41 38 39 40 38 32 33 32 30 28 27 26 24 21 19 18 19 17 15 14 14 16 19 16 13 10 10 12 14 11 11 14 17 16 17 15 17 20 22
43 41 38 37 40 40 40 41 42 41 38 33 33 32 30 27 26 26 23 22 21 20 19 16 19 18 17 15 18 18 14 11 13 15 17 19 17 16 20 19 18 20 22
45 44 41 39 41 43 42 41 43 43 41 39 37 37 37 34 31 29 26 25 25 22 20 20 17 17 20 18 17 17 17 15 16 19 22 20 24 24 19 21 22 21 25
47 46 44 43 43 44 42 43 44 43 43 43 43 42 40 37 34 32 29 26 26 27 24 23 20 18 17 19 19 17 16 17 20 22 20 24 24 24 25 21 21 22 26
48 48 47 45 44 44 44 42 43 47 46 43 42 43 42 39 35 34 31 29 26 26 25 25 23 21 20 20 20 19 20 19 22 22 25 26 29 29 26 24 25 29 31
48 48 47 46 46 46 46 43 42 41 44 44 42 41 41 38 35 35 32 31 26 23 21 23 24 25 24 21 20 19 20 21 23 22 24 28 26 22 22 23 27 29 29
50 49 48 46 46 47 47 44 43 40 37 38 39 38 35 35 33 32 31 29 25 24 23 24 27 27 24 22 22 21 19 17 19 22 27 24 23 21 23 24 25 25 28
54 51 49 48 46 45 45 44 42 40 38 36 34 34 32 32 30 28 25 25 24 24 24 27 25 25 24 23 20 20 22 23 23 26 21 20 20 22 23 23 26 27 27
58 54 53 49 48 48 47 42 43 39 37 36 32 32 30 30 27 24 26 24 26 27 29 30 28 24 21 20 22 23 24 26 24 20 19 21 22 23 23 23 25 26 26
60 59 56 53 50 51 47 43 41 33 25 27 29 27 25 23 21 19 20 27 28 28 28 31 29 28 24 23 21 21 25 24 20 18 19 22 23 24 22 19 21 26 26
60 53 54 50 50 49 42 39 30 26 27 26 23 20 19 17 16 18 20 20 21 19 21 20 22 22 23 21 20 19 21 19 17 21 25 25 22 13 14 17 14 17 18
43 43 41 45 45 41 34 29 26 28 28 23 18 17 17 16 17 23 20 19 16 18 19 17 16 15 17 16 17 18 17 16 19 20 21 16 7 11 13 16 20 23 22
40 39 39 39 34 32 29 29 28 23 19 17 16 17 17 16 13 14 16 16 17 18 18 18 19 18 18 17 16 14 13 11 16 19 11 7 11 15 20 22 24 24 24
41 37 33 29 28 26 24 22 21 19 17 15 16 16 17 16 14 13 10 13 16 19 18 18 20 17 12 9 9 6 9 13 14 15 13 11 14 19 21 22 20 22 20
36 33 31 29 28 26 23 21 18 17 15 14 12 13 14 14 11 7 9 9 9 11 15 16 12 7 5 6 8 9 10 11 12 10 11 14 19 20 22 18 16 16 17
27 28 28 29 27 26 26 24 20 16 16 17 16 13 11 9 11 10 10 8 7 6 7 8 8 7 6 10 7 8 9 10 12 14 14 16 20 20 16 13 15 15 18
28 28 27 28 28 26 23 19 21 20 19 18 15 13 12 11 11 11 9 7 7 7 8 8 9 6 9 8 6 7 7 8 8 11 16 21 21 17 11 14 15 15 18
24 24 28 29 27 24 21 19 17 19 18 20 17 14 13 10 10 12 12 11 11 10 11 10 9 7 9 12 12 12 15 16 17 19 20 20 14 7 11 14 13 17 18
22 22 22 22 22 24 25 20 15 14 18 18 18 16 14 13 11 12 12 11 11 11 7 7 8 12 14 14 15 16 16 17 18 17 6 4 5 9 13 13 12 15 17
15 15 16 18 22 21 21 19 21 21 16 15 15 16 15 13 12 13 10 10 11 10 7 4 10 15 13 13 13 15 17 16 13 7 6 8 9 10 12 10 14 14 17
10 16 8 15 21 21 20 19 19 19 19 17 15 11 9 8 11 12 9 8 8 10 8 9 10 12 12 14 15 14 13 10 6 6 8 11 13 10 7 12 14 12 17
16 16 16 18 21 22 18 17 9 15 20 22 17 13 14 10 10 9 8 7 7 11 11 13 15 17 17 15 11 13 12 14 11 9 13 14 14 7 8 12 8 13 17
14 11 20 20 20 19 21 17 10 5 12 15 11 15 16 13 13 12 12 11 12 14 16 15 16 17 16 13 13 15 16 11 10 11 14 15 14 9 7 7 9 14 14
10 8 11 14 17 15 15 15 11 7 6 8 10 12 16 18 17 13 13 11 13 15 15 16 18 17 16 17 18 17 16 12 15 16 16 13 11 8 4 6 8 12 10
8 13 17 15 13 11 12 11 13 11 8 12 11 10 11 14 14 11 10 10 10 9 9 11 15 17 15 16 16 16 16 14 15 17 18 17 10 6 5 6 9 7 11
7 7 4 5 12 7 2 3 10 6 10 13 11 10 11 16 16 13 10 10 9 8 9 10 10 12 12 14 14 13 10 10 13 14 13 11 9 10 6 6 5 4 8

GFSGL_850_spd_012.txt.gz
Wind_Speed
49 45 41 37 37 37 38 38 38 32 30 32 29 26 25 25 24 21 20 19 17 16 16 15 15 17 19 21 18 13 14 16 16 15 13 14 16 18 18 16 16 15 15
47 46 42 37 37 38 38 40 41 41 36 35 33 31 29 28 27 24 23 23 21 19 18 17 15 18 20 22 21 19 17 16 15 13 15 18 18 17 20 24 23 20 20
50 47 43 41 39 39 39 39 42 44 44 39 36 36 34 31 30 28 25 25 24 22 21 20 18 19 21 21 20 20 22 20 19 18 19 20 20 20 22 22 24 24 22
51 50 46 43 42 40 39 40 42 45 46 47 44 41 39 35 34 32 30 27 27 25 24 23 21 22 22 19 21 23 21 20 20 19 20 23 23 24 25 28 25 23 24
55 51 49 44 43 42 40 40 42 43 46 46 44 42 40 38 38 37 35 31 28 27 26 26 25 23 23 20 20 22 23 21 22 23 24 24 25 26 28 23 20 22 24
58 55 49 45 46 46 44 42 41 43 43 44 44 43 43 40 40 40 38 36 31 28 28 26 26 23 24 24 20 22 22 21 22 25 24 24 25 28 21 21 21 24 26
58 56 52 47 47 47 46 43 42 42 41 40 42 42 39 40 39 38 37 34 31 27 28 26 25 24 26 26 25 22 22 23 24 24 21 24 28 22 20 21 23 24 26
57 56 54 50 48 48 48 45 43 40 38 34 33 32 32 35 32 28 29 28 24 25 27 26 24 22 25 23 23 23 23 21 22 23 24 26 23 19 21 23 25 26 27
57 56 55 52 49 49 48 45 41 38 36 32 28 28 28 38 35 31 27 24 19 23 24 24 23 24 24 22 21 22 22 25 22 22 25 25 21 20 21 24 25 24 25
58 57 55 55 51 48 46 44 40 36 32 28 26 29 29 24 29 25 17 18 20 22 23 25 25 24 26 21 23 25 26 22 22 22 22 19 21 23 22 23 20 21 24
52 56 59 58 55 49 45 45 39 34 28 26 28 31 25 22 22 14 14 16 20 21 18 21 22 22 24 24 23 24 22 18 18 17 17 20 22 20 15 13 12 14 18
58 55 53 57 55 51 48 46 35 30 27 31 33 25 22 18 15 16 16 15 15 16 16 17 18 16 14 16 19 17 15 14 12 12 15 18 13 8 9 13 16 20 23
52 49 49 49 51 51 50 40 35 36 35 33 28 26 21 18 18 15 15 14 14 15 15 14 15 14 14 13 14 12 10 7 8 10 10 12 9 11 14 17 21 23 23
48 47 49 48 48 47 41 37 38 39 34 30 25 21 18 19 18 16 16 16 17 16 16 16 15 14 14 14 11 9 6 7 10 10 10 12 14 14 16 20 24 23 18
48 46 43 42 41 42 42 37 34 31 29 27 22 20 22 22 19 13 11 11 12 12 14 17 17 14 11 8 8 7 9 11 10 10 13 14 14 16 18 20 15 14 16
43 43 40 39 38 37 28 22 21 21 20 19 19 18 18 14 15 15 14 14 14 13 12 11 11 10 9 9 9 10 11 12 13 14 16 15 15 18 19 17 13 15 15
35 38 36 30 24 24 21 20 28 28 26 24 23 21 16 17 17 15 16 15 14 13 11 11 11 10 9 10 10 10 10 10 12 14 16 17 20 22 20 15 14 15 15
23 27 27 32 32 33 34 39 34 31 30 27 22 20 19 17 15 15 19 17 17 14 11 11 9 10 13 12 12 10 9 11 12 13 15 18 18 13 10 11 14 13 15
18 21 24 27 29 31 27 24 23 25 25 22 22 23 23 17 15 19 19 17 16 14 13 12 13 15 16 14 14 11 11 11 13 14 15 10 9 10 11 12 10 12 14
14 13 18 22 24 25 25 23 20 17 12 13 17 21 19 19 21 20 18 18 15 14 16 16 17 16 17 16 13 12 13 15 13 11 9 9 10 11 12 11 11 14 13
17 14 13 14 16 14 17 20 16 11 16 16 20 19 19 17 17 16 18 16 13 15 16 16 15 13 15 15 13 14 15 14 13 12 11 10 11 14 13 12 12 11 13
14 13 12 9 6 9 13 15 20 22 20 19 21 22 20 18 17 17 15 14 11 11 12 13 11 10 13 17 17 14 13 13 14 15 12 11 13 14 16 13 11 8 12
7 4 7 11 12 22 21 21 18 21 21 20 20 21 23 21 18 14 14 14 13 13 12 13 14 14 15 15 16 17 16 16 16 15 12 11 13 16 13 12 10 10 11
13 13 19 15 15 15 15 15 17 18 20 22 22 22 19 18 15 14 16 14 15 16 18 15 13 14 16 17 15 14 16 17 17 14 13 14 14 13 12 11 10 9 9
7 10 12 12 13 10 14 15 17 18 17 18 18 18 18 19 18 16 13 11 11 14 16 14 11 12 13 15 15 13 11 11 12 12 14 15 16 14 12 11 9 6 8
3 7 12 14 13 15 14 16 16 14 18 16 15 15 16 21 18 18 13 13 14 12 11 10 11 14 12 10 8 7 10 9 8 11 13 14 13 13 14 12 9 7 7

GFSGL_850_spd_015.txt.gz
Wind_Speed
61 56 53 48 45 44 35 34 36 34 35 33 31 29 28 25 24 23 21 19 19 18 17 17 15 15 16 20 18 16 14 15 16 16 16 15 14 13 13 15 15 19 20
61 58 53 48 46 46 39 36 39 38 35 32 30 30 30 28 26 25 23 22 22 21 20 19 19 17 15 17 18 21 18 17 17 18 15 16 17 18 16 18 20 19 23
58 58 55 51 48 48 42 40 39 41 40 39 35 32 33 31 28 27 25 25 24 23 22 21 19 19 16 17 17 21 22 22 21 21 20 19 19 18 18 20 23 27 27
57 56 57 53 47 47 44 41 41 42 43 42 40 37 35 34 31 30 30 29 28 26 25 25 23 21 19 18 17 18 21 23 21 20 23 21 20 20 19 23 28 27 22
55 57 56 53 47 46 46 42 42 42 42 43 43 41 39 37 34 32 32 32 33 31 29 27 26 24 22 21 19 19 17 20 22 22 23 23 25 22 22 24 26 22 22
54 56 55 53 51 49 48 45 43 44 42 42 43 44 43 41 38 34 33 34 37 37 33 28 27 26 25 23 22 21 18 20 21 22 23 23 24 21 22 25 22 21 24
52 53 55 54 52 52 51 48 46 46 44 43 44 42 43 40 36 35 34 27 37 44 34 29 23 27 24 23 23 21 22 20 21 21 22 23 22 21 25 25 22 22 24
51 52 53 55 53 53 54 52 49 48 46 43 42 40 38 37 37 35 33 28 38 36 33 27 25 23 24 23 22 22 21 21 20 21 22 24 25 23 25 23 24 25 25
52 52 52 54 54 55 54 54 52 49 47 45 39 36 34 34 33 31 34 27 25 32 22 21 22 23 21 21 21 20 20 19 18 20 22 22 22 23 22 23 25 26 27
52 51 51 53 55 56 53 53 51 50 48 44 35 34 33 31 28 32 28 26 27 20 20 20 20 21 19 21 20 20 21 19 20 21 22 20 20 19 22 25 23 21 18
50 51 52 54 54 55 55 52 51 49 46 39 34 33 32 31 30 31 22 21 18 19 21 19 18 19 21 21 17 17 18 18 19 17 17 15 16 20 19 14 12 13 17
53 50 52 53 54 53 54 53 49 45 41 37 36 34 32 31 31 24 21 17 16 20 18 15 17 20 20 17 16 16 17 16 15 14 12 11 15 12 11 11 12 16 20
49 53 53 50 51 49 51 51 46 42 37 39 38 38 33 31 24 21 19 17 20 19 18 19 19 18 17 15 12 12 14 14 13 10 10 11 12 10 12 12 15 19 23
47 53 55 57 54 48 49 47 46 43 41 41 40 36 30 24 22 25 22 22 24 22 23 20 19 17 16 14 12 12 13 11 10 9 9 11 12 13 14 15 18 21 18
41 48 47 50 51 47 43 43 44 45 41 40 33 25 22 26 30 26 25 28 26 24 23 21 18 16 14 13 13 12 11 12 11 11 12 13 15 17 14 16 18 17 17
30 42 47 48 47 47 49 47 41 38 26 17 15 2 6 15 21 24 22 19 20 21 22 21 19 16 14 14 13 12 12 12 11 14 15 14 16 14 15 16 16 15 16
27 34 45 49 50 48 41 42 38 30 14 3 14 27 24 25 26 23 24 24 22 22 19 17 15 15 16 15 13 12 11 8 10 11 11 12 14 16 19 16 12 14 15
37 17 38 45 46 47 38 34 29 18 20 16 31 27 31 28 24 24 24 23 24 21 17 16 15 16 16 12 12 13 11 9 8 9 11 13 16 17 12 10 12 13 13
32 34 17 19 52 44 30 10 16 24 37 44 34 31 30 28 28 26 26 21 19 20 18 15 15 17 16 13 13 14 12 9 8 11 12 13 13 11 10 11 11 11 14
27 14 51 32 18 25 33 32 30 36 35 35 34 35 32 31 31 28 24 21 18 17 14 15 18 18 14 14 16 15 11 10 10 9 9 10 11 11 10 11 12 13 14
23 22 25 31 32 33 33 33 32 29 30 31 27 23 26 26 25 22 23 19 19 17 16 15 15 16 16 13 16 14 13 13 11 10 10 10 11 10 9 11 13 13 14
20 22 20 21 21 23 29 31 31 31 30 31 30 27 23 24 22 22 20 20 18 14 11 9 11 12 10 10 13 14 13 10 11 11 12 12 11 11 11 13 14 13 12
6 8 16 21 21 21 22 21 17 18 21 24 25 26 29 27 23 22 21 19 18 15 12 10 13 11 10 12 13 14 15 14 13 12 12 12 13 13 13 13 13 12 12
9 8 7 9 10 15 18 18 22 24 25 23 24 26 28 25 24 21 19 19 18 15 14 12 12 11 14 14 14 16 18 13 15 15 12 10 12 14 15 14 13 12 12
12 10 10 9 6 5 8 10 15 14 14 17 19 23 24 22 21 20 20 19 17 15 13 14 16 15 15 13 13 14 15 16 16 11 9 10 12 15 16 16 13 12 12
10 7 4 2 9 8 8 9 7 10 10 14 17 18 19 19 22 22 19 18 17 15 13 11 11 12 13 12 11 9 5 4 4 4 7 10 13 14 15 14 13 11 10

GFSGL_850_spd_018.txt.gz
Wind_Speed
56 55 53 51 50 48 44 39 35 32 33 33 33 32 29 26 24 23 21 19 19 17 17 16 16 16 16 16 17 16 14 13 15 13 13 14 14 11 9 11 12 13 15
57 56 55 52 51 51 46 41 38 35 34 34 34 35 33 28 26 25 23 22 21 19 19 20 19 19 17 17 17 17 17 16 14 15 16 16 14 13 15 15 14 16 19
56 57 56 54 53 52 47 43 41 38 36 36 35 36 35 32 29 27 24 24 23 22 19 21 22 22 21 19 16 16 17 17 17 18 18 18 18 18 18 17 17 19 22
53 54 55 55 53 52 47 44 43 40 38 39 39 38 35 32 31 29 27 27 26 25 23 21 22 24 23 21 19 16 15 16 18 20 19 19 18 18 20 21 23 23 24
49 51 52 54 53 50 48 46 43 42 40 39 42 41 40 37 33 33 31 29 29 27 27 28 25 23 24 23 22 18 16 16 15 16 18 20 20 19 20 22 22 24 25
48 49 48 50 52 50 48 47 44 44 43 41 43 45 45 43 40 36 32 31 29 30 31 30 30 24 22 25 24 21 19 19 17 16 18 20 19 19 20 20 22 23 25
48 48 47 48 50 50 49 48 47 45 44 44 44 45 47 46 43 38 35 34 32 32 32 29 31 28 18 26 24 22 20 20 22 18 18 19 19 19 20 23 23 23 21
48 47 46 46 46 48 49 50 49 47 46 47 46 45 45 45 42 39 37 36 36 34 32 30 28 24 22 21 22 21 19 20 19 19 19 18 20 21 20 21 22 22 23
48 48 47 45 45 47 50 50 52 51 49 49 49 45 43 43 41 38 37 39 38 34 32 25 20 21 22 19 20 19 19 19 18 19 19 18 20 19 21 20 19 21 24
48 49 46 45 45 45 45 46 50 53 52 49 49 46 43 41 41 39 37 40 38 34 33 27 22 23 22 21 20 19 20 19 20 17 19 19 19 16 16 18 19 18 15
40 45 46 45 44 42 37 42 48 51 50 50 49 47 44 43 42 39 37 39 35 32 28 26 25 23 23 20 18 19 19 17 18 19 18 17 14 13 15 13 9 8 10
33 37 41 42 40 39 43 44 45 49 45 46 45 44 44 44 42 36 36 34 31 29 28 25 24 22 21 19 21 20 19 19 19 17 16 13 11 11 9 8 8 9 11
25 30 35 39 41 42 45 47 44 46 43 46 45 40 40 44 40 38 37 34 29 30 25 24 22 21 19 19 20 19 17 17 18 18 15 11 10 9 7 8 10 12 14
19 25 28 34 38 42 42 45 43 47 49 51 50 44 48 45 40 38 32 24 26 27 24 25 24 22 20 20 20 18 16 17 17 15 14 9 10 11 11 12 13 14 17
20 19 24 30 36 42 44 47 47 47 47 46 43 45 44 40 33 27 23 20 31 32 32 30 27 24 22 22 21 20 18 18 16 14 13 10 11 12 14 14 14 15 15
29 32 30 28 32 41 47 45 44 41 43 41 41 42 35 26 22 17 7 12 28 31 28 31 26 24 24 23 21 19 18 16 15 13 12 12 12 14 15 15 15 13 11
24 29 34 34 37 41 46 44 39 35 39 39 32 35 32 29 28 18 31 27 35 31 32 29 25 24 23 21 19 20 17 14 13 12 9 12 14 15 16 16 13 8 9
21 24 22 30 38 43 47 45 41 44 42 31 24 22 17 12 22 37 32 32 35 36 35 29 26 24 21 19 19 18 16 17 13 9 7 11 14 16 16 10 9 9 9
16 9 16 15 14 45 52 51 51 48 38 23 23 26 25 28 34 32 31 39 40 35 31 27 24 22 21 20 18 16 16 16 13 9 9 11 14 16 11 8 9 8 9
7 4 13 8 2 25 26 47 36 21 13 9 23 37 33 34 38 37 36 35 32 31 27 23 21 20 20 19 19 18 19 18 13 9 9 10 14 14 11 9 10 9 8
6 11 11 19 21 12 9 9 21 19 14 14 29 37 35 37 33 34 36 32 28 24 23 20 19 21 19 20 19 20 19 14 12 11 9 10 13 13 12 10 9 9 9
22 13 2 7 10 14 13 10 16 21 28 38 38 36 33 34 37 35 30 28 25 22 20 17 18 17 16 18 18 18 17 14 13 9 9 10 12 13 14 12 11 11 9
12 13 16 13 10 9 12 16 18 23 26 29 29 30 30 30 26 26 25 25 23 22 20 18 18 16 14 14 14 13 12 14 13 10 9 11 12 14 14 13 12 11 10
16 12 10 10 9 13 18 18 17 18 21 22 21 20 26 27 28 26 24 23 24 22 20 18 16 16 16 16 14 13 13 15 18 13 12 15 15 15 15 13 12 11 10
20 19 16 15 8 5 4 6 10 13 18 19 22 25 28 29 28 26 25 25 24 23 20 18 16 16 16 16 16 15 15 19 15 10 16 14 14 14 14 13 13 12 9
13 12 12 11 12 9 6 4 5 5 5 8 15 18 19 23 25 26 27 26 25 24 20 17 15 16 18 17 17 15 14 16 10 10 12 12 13 14 15 14 13 11 9

GFSGL_850_spd_021.txt.gz
Wind_Speed
51 48 47 47 46 45 46 42 37 35 32 30 31 29 31 28 26 25 23 21 21 20 19 18 16 16 16 15 14 14 14 13 10 9 9 9 11 12 13 11 11 13 12
56 54 52 48 47 46 46 43 38 37 35 34 32 34 34 32 30 29 27 26 24 24 22 21 20 21 20 18 16 15 15 15 13 13 10 13 12 12 12 13 14 14 15
53 55 55 53 51 51 48 44 43 40 38 36 35 36 36 36 35 33 31 29 28 27 24 22 22 23 23 22 19 17 15 15 15 16 13 14 15 15 15 15 14 16 19
48 50 52 53 52 53 50 46 45 42 41 39 38 36 38 38 39 37 34 33 32 30 28 28 27 23 23 24 23 20 16 16 16 17 15 14 15 13 15 15 14 16 18
48 49 48 47 47 49 51 47 46 46 43 41 40 39 39 40 41 42 40 38 37 33 31 32 30 25 24 24 25 24 21 18 17 15 14 13 13 13 15 14 18 14 16
48 47 46 46 45 47 48 46 45 46 45 43 44 43 41 44 44 43 42 41 40 36 35 34 32 29 27 26 27 27 25 23 20 17 15 15 16 17 16 17 15 16 18
47 46 47 46 46 45 45 45 44 46 45 46 46 45 45 45 47 45 44 41 41 39 38 36 33 31 29 29 26 27 26 25 23 21 21 20 16 16 17 18 18 19 17
43 43 45 46 46 46 46 45 44 46 47 48 47 48 46 46 48 48 47 44 44 41 40 38 34 32 29 31 29 28 28 26 24 22 22 19 18 18 17 18 19 21 22
39 41 43 45 45 45 47 45 45 45 48 49 49 48 50 49 48 48 46 46 47 46 42 43 36 33 29 29 30 27 27 24 21 20 21 19 18 18 17 18 17 16 14
37 40 39 41 42 42 45 46 45 44 46 50 51 49 50 49 49 48 46 46 48 49 46 43 36 35 26 25 31 29 28 23 22 19 18 16 17 17 18 15 14 12 13
34 34 34 36 38 39 41 40 42 43 45 50 53 52 49 48 50 48 44 44 47 48 46 42 38 33 26 28 27 29 26 20 19 19 18 17 17 17 15 14 14 9 8
20 23 28 29 31 33 37 38 40 40 42 47 50 53 54 51 51 51 47 43 45 47 45 37 33 27 30 28 26 27 22 19 20 19 17 17 16 14 13 12 10 10 11
15 17 20 22 26 29 33 37 40 41 44 43 44 43 50 50 50 51 47 44 46 41 36 32 27 29 29 25 25 23 21 19 21 20 19 17 15 14 12 11 10 11 13
7 10 14 19 24 27 30 33 39 39 42 42 43 46 43 40 42 53 46 42 35 31 28 22 23 26 29 25 24 25 23 22 21 21 18 18 16 13 12 12 11 11 13
6 8 11 15 21 26 30 33 39 44 44 46 47 47 42 50 55 46 36 41 37 28 18 16 15 22 24 23 25 25 25 21 21 21 19 18 16 13 13 13 12 13 13
7 9 12 16 20 24 29 35 40 44 44 47 47 47 47 47 45 38 36 37 33 28 20 16 22 30 28 27 28 28 25 22 22 20 19 18 17 14 12 14 13 14 12
10 12 11 12 13 17 23 33 39 43 45 45 44 47 42 43 42 38 47 37 29 16 7 25 42 38 35 33 29 27 24 23 22 20 19 17 15 13 15 12 11 12 10
12 12 10 11 12 12 13 24 32 41 41 50 53 52 44 44 43 55 32 12 19 25 33 45 40 39 36 31 29 26 25 25 23 21 18 17 15 13 14 12 9 10 8
14 14 10 9 9 9 10 13 11 18 44 54 55 53 47 50 47 31 24 26 34 39 40 48 43 41 34 29 28 27 27 25 24 22 19 16 12 13 12 11 9 12 9
15 10 8 7 5 7 11 23 21 8 8 7 40 69 53 49 41 39 36 36 40 37 44 42 38 33 30 29 28 29 26 25 25 24 20 14 13 12 9 11 11 9 8
20 14 13 13 7 12 15 9 15 5 2 3 23 17 36 34 39 46 46 42 41 39 43 38 33 30 29 27 30 28 26 25 27 23 18 15 14 12 12 13 13 9 8
19 20 17 15 12 8 5 5 2 9 11 19 24 25 29 28 34 39 40 36 32 33 32 33 31 29 27 29 30 27 27 27 26 22 19 15 11 12 12 15 14 10 9
17 18 18 16 13 10 7 6 5 9 7 9 16 25 24 23 30 33 33 28 29 30 28 29 27 26 26 26 24 24 23 24 22 19 18 12 10 12 13 15 15 11 10
22 21 18 18 16 16 15 15 12 8 9 15 24 24 18 15 18 22 25 28 30 30 29 26 23 23 23 22 22 22 21 20 18 18 16 16 12 13 14 16 14 12 12
18 19 20 21 19 15 11 12 10 8 5 7 8 7 12 20 25 26 27 28 28 29 28 24 22 20 18 18 20 23 22 19 17 20 20 17 13 14 15 15 14 13 13
20 20 20 19 20 18 18 17 16 15 11 9 11 11 12 14 19 23 25 29 29 28 25 22 17 15 18 20 21 22 20 20 21 22 20 17 16 14 15 15 14 14 14

GFSGL_850_spd_024.txt.gz
Wind_Speed
47 49 49 48 47 45 46 45 42 39 36 32 30 26 26 26 27 27 26 23 26 25 24 23 22 19 14 13 12 12 11 11 10 8 9 10 12 10 10 10 10 9 10
48 47 48 48 49 48 48 46 44 41 39 37 35 31 31 29 30 31 31 27 30 29 29 27 24 20 21 20 16 15 14 14 11 12 10 11 11 11 12 12 10 11 12
42 46 45 47 48 49 48 46 45 42 40 39 39 38 35 35 34 35 34 34 32 31 30 29 25 24 24 20 19 16 14 14 15 12 11 10 11 11 11 12 13 11 12
38 40 45 52 53 51 49 47 45 45 43 43 42 40 40 37 36 37 38 38 36 34 33 31 27 28 24 23 24 21 18 17 15 14 13 11 12 11 11 12 13 12 12
42 40 47 48 49 51 52 51 49 48 47 45 44 43 41 40 36 41 42 42 42 39 36 35 33 32 27 24 22 21 23 22 17 16 15 14 13 12 13 12 14 13 14
41 47 45 44 44 44 47 50 50 50 49 47 47 47 46 45 42 43 44 46 47 45 41 38 35 34 31 28 27 26 25 24 22 20 18 16 14 13 13 14 13 13 13
42 42 44 45 44 44 42 44 46 48 47 49 49 50 51 50 48 47 47 48 51 50 47 41 34 31 33 31 30 29 28 26 26 21 21 17 16 15 13 13 13 12 12
40 40 43 44 44 36 40 42 43 44 46 48 50 50 52 53 51 50 47 47 48 46 43 39 36 31 34 31 31 32 31 29 28 31 26 21 20 16 17 14 14 14 13
36 34 38 40 38 38 41 42 42 41 43 47 48 50 52 55 53 52 49 48 48 44 38 36 35 36 37 33 31 29 28 30 26 26 28 26 24 20 17 12 11 10 11
33 32 33 35 38 40 39 40 41 41 41 37 41 49 53 55 55 53 52 50 47 48 43 46 47 43 38 36 31 29 28 27 22 22 27 27 26 21 20 18 13 13 12
25 26 30 32 34 35 35 37 39 40 36 39 42 45 49 54 56 56 54 54 53 44 44 38 38 43 42 37 30 29 30 26 22 21 20 23 23 22 20 18 16 11 10
22 24 27 29 29 28 34 35 34 34 37 40 40 40 43 52 56 59 58 55 53 49 44 42 43 44 37 34 32 31 28 25 20 19 19 18 17 16 13 14 15 11 10
20 22 22 23 25 28 30 27 29 33 34 35 36 39 44 47 52 57 62 59 54 54 43 40 44 39 28 30 30 29 28 26 24 21 24 21 17 16 17 14 14 13 14
14 15 16 18 20 21 22 24 26 28 31 34 34 39 39 38 42 43 56 55 50 49 43 42 39 30 30 31 29 32 25 29 23 22 24 21 18 19 17 13 10 8 10
10 11 12 13 17 18 21 22 25 28 30 31 35 35 37 39 44 48 54 53 50 51 57 47 38 35 35 33 31 26 24 27 29 30 24 22 21 18 15 15 12 12 14
7 6 8 10 12 15 17 20 26 31 30 35 39 37 35 44 43 48 51 44 43 50 52 47 40 39 38 33 27 22 26 31 36 30 28 25 22 18 17 15 13 14 15
4 4 3 5 7 10 12 16 18 21 28 34 41 43 48 49 48 51 45 45 42 47 56 51 46 40 39 28 31 37 40 37 30 29 25 24 21 18 19 16 15 14 15
5 5 4 3 2 0 4 8 11 17 23 27 28 37 46 52 59 54 52 45 54 55 60 53 45 40 32 35 37 34 31 29 30 26 25 23 21 20 18 17 16 16 14
7 6 6 6 5 5 6 8 9 14 18 21 27 33 36 47 51 63 60 58 69 64 55 48 34 34 36 38 39 36 30 28 27 26 24 22 21 19 17 17 15 16 16
12 12 9 4 3 4 7 9 12 7 9 13 12 16 16 17 17 33 58 66 69 60 49 40 34 33 34 39 36 31 31 30 29 27 24 22 20 18 18 17 16 16 14
16 16 14 12 10 6 4 5 6 10 8 5 8 9 8 12 16 6 5 11 20 37 34 29 30 34 35 38 37 33 28 28 28 25 23 22 20 19 16 16 15 16 15
17 20 19 18 13 11 8 9 8 6 5 4 4 5 4 4 3 10 16 15 16 23 25 28 27 31 36 34 32 29 29 28 25 24 24 22 21 18 17 16 17 17 16
13 15 18 18 17 18 18 18 17 15 13 9 6 7 10 12 14 17 21 19 18 20 24 25 24 28 32 25 24 25 25 24 23 23 24 22 19 17 16 17 18 18 18
19 17 14 14 15 15 15 16 17 16 15 12 8 3 4 8 7 18 17 17 18 19 20 23 24 21 21 20 21 21 21 21 22 25 23 21 19 18 17 17 17 19 18
21 19 19 17 20 20 19 19 19 16 13 13 8 5 3 4 6 13 17 17 21 21 20 23 24 21 20 21 19 21 22 26 24 23 23 19 18 17 16 17 18 18 17
20 21 20 21 21 20 21 20 20 20 21 17 9 0 2 1 6 8 13 17 18 19 21 23 21 19 19 19 19 22 26 27 29 25 20 18 19 18 17 15 17 18 17

GFSGL_850_spd_027.txt.gz
Wind_Speed
44 45 44 46 47 45 46 43 39 34 33 32 26 28 27 26 27 28 26 22 25 24 21 21 22 17 14 13 11 11 11 9 8 8 7 10 13 13 8 11 11 12 12
46 47 48 46 45 47 47 48 46 42 39 36 34 35 30 28 29 30 30 26 28 27 25 24 24 22 22 20 16 16 13 12 11 12 10 11 14 13 13 14 13 13 14
43 43 46 50 51 51 49 46 46 44 42 42 40 39 38 34 32 33 34 33 32 32 29 27 28 27 26 22 24 17 16 16 14 14 11 11 13 12 14 11 15 15 16
39 41 44 49 53 52 50 50 47 46 44 42 43 42 42 41 39 39 40 39 38 38 38 34 30 30 29 27 25 24 21 17 16 16 13 13 14 14 13 12 17 17 15
41 43 48 46 45 43 45 49 47 45 44 44 45 45 44 44 41 44 42 42 42 42 40 38 31 31 30 27 25 24 22 25 19 17 15 15 14 16 17 15 13 13 13
39 46 44 45 44 45 45 46 47 47 47 46 47 48 49 48 46 43 43 44 44 42 40 36 34 29 32 31 28 26 25 25 23 20 20 18 18 15 14 15 15 14 14
42 40 44 43 45 44 42 43 49 51 48 51 52 51 51 52 51 49 47 46 44 45 41 38 37 32 36 38 34 31 31 30 28 26 26 23 18 16 17 20 15 17 14
38 43 42 45 43 45 46 48 46 46 50 49 51 52 53 55 55 53 52 49 48 43 42 44 43 42 40 39 34 35 36 36 34 32 30 28 30 24 19 18 18 18 17
33 41 44 42 43 45 48 47 45 45 45 48 46 46 52 56 56 54 53 53 53 51 48 46 45 45 46 45 41 37 36 38 36 34 33 32 29 27 23 20 14 12 12
32 34 39 41 44 46 46 44 42 41 43 40 43 47 50 52 53 55 54 55 55 57 54 51 50 49 46 48 44 42 39 38 34 33 32 31 33 31 25 25 17 17 17
24 26 35 38 42 42 41 39 39 38 35 39 40 41 43 47 52 54 56 55 59 55 52 52 53 55 54 51 50 47 46 39 34 32 27 26 30 31 27 27 25 24 16
26 26 31 33 32 31 37 35 35 34 35 39 37 40 41 45 47 50 55 57 60 57 51 51 45 49 50 54 51 48 42 38 32 30 28 23 24 23 19 22 25 26 18
22 24 26 27 28 30 29 31 28 30 30 31 33 37 39 39 40 45 51 53 54 59 59 44 44 46 46 48 47 49 43 39 32 31 33 27 26 23 14 20 24 21 22
16 20 21 21 22 22 24 22 24 25 26 28 30 32 32 32 35 37 40 44 46 51 56 54 41 42 48 47 46 44 45 41 36 35 34 32 27 24 21 31 30 20 17
11 13 14 15 18 18 20 21 21 23 23 24 24 25 28 30 32 32 34 37 44 47 47 51 47 46 50 51 44 40 46 38 38 32 31 28 26 29 26 28 20 18 15
8 9 10 11 12 13 14 15 21 23 19 24 30 30 29 28 33 33 34 41 47 51 37 53 61 65 61 53 50 50 53 46 43 40 31 29 33 34 28 23 23 20 19
4 8 3 8 8 9 10 10 12 10 13 21 24 32 38 41 44 46 46 44 44 49 53 53 62 59 62 63 59 61 60 51 40 37 36 35 35 30 26 25 24 20 19
8 7 5 3 2 1 2 3 3 5 7 8 15 23 29 34 40 46 50 49 44 57 56 56 60 65 65 66 66 62 55 37 37 35 38 39 37 30 29 27 23 21 18
10 5 6 4 4 3 3 2 3 4 6 6 9 13 15 15 14 19 26 36 38 46 52 54 62 67 68 64 66 65 44 37 29 41 41 35 31 31 28 24 21 21 20
12 12 8 4 1 1 3 5 5 4 5 8 8 10 15 18 23 25 22 18 24 24 25 41 37 56 79 78 71 56 40 38 41 42 38 35 33 31 27 25 20 20 20
13 13 16 10 8 6 5 3 5 5 6 6 8 11 14 14 11 12 12 10 7 3 6 7 7 10 13 28 40 33 37 39 42 40 35 34 32 30 26 22 20 20 18
15 18 19 18 14 12 11 10 9 9 8 6 5 11 16 10 12 13 11 12 10 5 2 5 3 6 14 18 29 37 34 36 37 35 32 31 29 25 23 21 21 19 18
14 16 14 15 12 12 13 14 16 19 16 16 13 11 12 13 14 14 14 12 12 11 7 6 12 20 25 27 33 37 34 34 34 34 31 30 26 25 22 21 20 20 19
16 18 17 14 12 11 14 13 14 13 12 12 11 13 14 16 15 10 10 11 10 5 6 8 13 19 27 31 32 26 27 23 24 30 29 27 24 24 20 20 19 18 19
20 19 17 17 16 16 18 18 19 18 16 13 10 10 13 11 9 8 9 10 9 8 9 11 10 13 19 18 20 20 19 23 24 26 26 22 21 21 19 18 17 17 19
18 17 16 16 16 17 19 21 20 19 19 21 22 20 14 10 9 6 5 4 3 4 5 14 11 15 15 15 16 17 19 22 24 25 22 20 20 19 19 17 16 17 17

GFSGL_850_spd_030.txt.gz
Wind_Speed
41 44 47 46 44 43 44 39 38 35 28 28 21 28 27 24 26 29 29 26 27 27 25 22 21 19 19 17 16 16 14 12 12 8 7 10 12 13 13 12 13 13 15
46 43 45 46 45 44 46 46 42 41 38 34 33 29 32 30 27 29 32 32 30 30 30 30 28 25 22 22 20 18 17 16 15 13 12 11 14 13 12 16 18 14 15
44 44 44 46 47 47 46 45 46 44 42 39 39 40 36 34 31 29 31 32 34 33 34 33 31 31 28 25 27 25 22 20 21 22 19 17 18 16 14 12 12 12 8
41 42 44 47 48 46 46 46 45 47 46 45 44 43 43 42 39 36 34 34 34 36 36 35 35 33 31 28 28 31 28 25 22 24 20 21 17 18 19 17 13 12 12
43 43 44 44 45 46 45 46 46 46 48 47 46 46 46 45 44 42 40 39 38 38 38 38 38 38 36 33 31 31 31 31 27 25 24 22 21 21 24 22 19 12 12
44 46 46 44 43 45 45 45 47 49 48 47 49 48 48 49 48 45 43 43 42 41 41 41 41 41 41 38 35 31 31 33 34 33 28 25 21 22 24 22 17 12 14
42 45 47 46 47 47 47 48 49 49 48 49 49 49 50 51 51 49 45 44 44 44 43 43 43 46 46 45 41 36 33 35 34 31 32 30 28 24 24 22 21 22 22
40 42 39 45 47 48 48 49 49 49 51 51 51 51 51 53 52 51 49 47 48 48 47 46 46 46 47 47 45 43 42 41 39 38 35 31 30 28 28 29 29 26 24
36 44 46 42 45 47 50 50 48 48 48 51 51 50 53 55 54 53 51 50 52 54 54 53 51 49 47 48 48 49 47 43 43 42 38 35 34 34 34 31 29 29 26
30 34 41 43 48 49 49 49 48 47 46 44 47 48 48 50 50 50 49 50 55 59 58 59 57 56 51 48 51 51 52 50 42 43 45 43 40 35 30 32 28 25 20
30 31 32 36 41 45 45 42 44 43 41 42 43 42 44 45 46 46 45 47 56 53 52 53 56 56 54 54 52 53 56 51 47 43 44 45 44 40 38 37 33 27 22
25 30 31 28 34 38 39 38 37 38 38 39 38 39 40 40 41 41 43 45 47 51 52 47 47 47 51 53 54 55 53 52 49 46 44 44 42 37 36 36 34 31 30
17 26 27 25 29 31 30 36 35 35 36 36 36 37 35 32 34 33 34 37 39 44 52 53 46 38 46 46 52 55 54 54 52 50 46 45 42 36 33 31 29 30 32
18 19 21 22 24 26 28 23 28 31 31 32 28 25 26 26 25 27 31 34 36 36 38 41 49 51 43 44 49 53 58 61 60 56 53 49 41 38 34 29 30 31 33
14 15 16 16 18 19 21 25 21 20 23 22 23 21 20 22 23 28 27 24 31 36 37 38 42 46 54 59 49 56 61 67 66 62 57 50 43 44 38 33 33 36 34
10 10 11 12 14 14 15 14 22 17 17 25 25 23 22 24 24 28 29 28 26 25 26 34 42 47 49 53 61 68 61 66 66 58 59 56 51 51 41 33 35 43 36
11 15 10 13 4 19 10 16 13 20 24 21 22 26 29 32 36 39 41 43 43 42 41 43 46 45 50 54 57 64 70 65 64 59 59 55 53 51 36 33 40 39 31
12 13 11 8 5 7 9 8 6 7 5 9 16 19 23 26 27 28 33 37 40 43 44 39 40 44 48 53 60 63 62 60 66 64 65 60 56 32 35 37 38 37 34
15 14 9 11 11 7 7 7 4 2 4 8 9 11 7 8 11 12 14 16 16 18 25 28 30 36 43 39 51 57 59 61 66 69 69 66 43 38 38 45 41 39 37
12 16 15 12 10 8 6 5 4 3 1 5 5 7 11 10 11 13 14 16 18 21 21 18 20 23 29 38 45 48 53 66 72 74 68 39 39 36 42 43 38 37 34
13 18 14 14 11 10 9 9 7 5 4 5 6 7 14 12 12 12 15 16 18 16 16 12 13 14 17 24 18 12 5 10 19 21 23 29 41 43 40 42 39 34 31
16 16 16 16 15 15 15 14 13 13 11 6 2 5 8 5 8 11 13 15 14 16 18 18 20 20 23 24 23 21 8 6 2 10 29 34 36 37 37 34 33 30 27
17 13 19 20 22 21 19 17 15 14 13 12 10 10 11 11 12 13 11 12 15 17 17 17 17 17 15 14 10 7 4 9 19 27 27 28 32 31 30 28 27 27 27
14 14 14 15 14 16 15 16 16 17 15 12 12 12 12 13 14 14 14 14 13 14 14 16 13 12 13 11 7 7 11 19 22 26 24 24 24 26 26 27 22 22 22
16 16 16 17 17 18 19 18 17 17 18 19 21 20 18 15 14 15 16 14 12 12 13 9 7 10 10 12 13 10 9 9 12 15 18 22 24 25 26 22 21 23 21
19 17 18 18 18 18 18 22 24 22 21 20 19 18 20 23 23 21 19 17 15 13 10 6 3 2 2 1 7 11 10 13 17 18 23 22 20 19 24 22 19 19 19

GFSGL_850_spd_033.txt.gz
Wind_Speed
43 41 43 44 45 46 41 38 39 33 30 32 26 25 29 26 24 21 24 27 27 24 23 21 19 20 21 19 18 18 16 15 16 13 10 17 18 18 14 14 15 14 12
44 42 42 43 44 46 46 41 41 40 37 32 35 33 24 29 28 25 23 27 29 29 28 27 25 21 23 25 24 24 22 20 18 16 18 17 23 17 14 13 13 15 17
46 43 41 43 44 44 45 43 42 43 42 40 34 34 37 30 30 29 25 26 28 30 31 31 30 28 28 28 30 29 27 23 23 21 21 20 19 19 19 17 16 13 11
46 44 44 43 43 44 43 43 44 45 44 42 42 41 36 38 36 34 32 29 28 29 33 36 35 35 34 31 31 33 32 30 29 28 27 27 27 24 22 22 20 18 13
44 44 45 43 41 41 42 42 41 43 46 46 45 44 45 45 43 43 41 38 35 33 33 36 40 40 40 37 35 34 36 38 36 35 34 32 31 33 30 28 27 23 20
45 41 39 40 40 42 43 43 44 43 42 43 45 46 47 48 48 47 45 44 42 40 39 38 40 42 43 42 40 37 35 38 43 42 40 38 34 30 31 31 30 29 28
47 45 43 41 39 40 39 41 44 44 44 44 45 46 48 48 48 49 47 46 46 45 43 42 42 43 43 44 45 44 40 37 40 42 46 43 38 33 30 33 33 31 32
47 47 46 46 44 41 41 41 41 42 44 44 45 45 46 47 46 46 46 46 49 49 49 47 46 44 44 44 44 46 46 45 43 41 45 45 43 36 32 30 31 30 30
45 46 47 47 46 45 46 45 43 43 42 44 45 46 48 48 47 45 43 45 48 52 52 52 52 51 50 46 45 46 46 49 45 44 43 43 43 41 38 33 36 34 33
46 44 42 40 44 45 45 46 45 45 45 43 44 44 45 46 45 44 42 43 47 49 51 54 56 57 54 52 50 50 52 52 48 46 47 47 46 45 46 44 39 40 41
35 35 37 40 43 44 41 42 45 46 45 46 45 44 43 41 41 40 40 40 43 45 49 53 55 55 53 53 51 53 59 54 54 51 50 49 52 52 53 50 49 49 47
32 35 32 31 32 37 40 40 40 41 42 43 42 41 39 36 36 35 34 36 37 39 44 46 49 49 49 47 47 53 55 56 57 58 57 57 57 59 59 56 53 49 44
20 20 22 29 30 28 28 34 37 37 36 38 37 36 35 32 31 30 29 30 30 33 35 37 38 42 42 47 45 47 48 56 61 57 60 60 61 59 54 55 58 52 46
21 20 25 23 25 23 22 26 28 32 33 32 32 31 28 25 22 25 27 27 28 31 32 34 34 35 38 43 46 50 47 54 61 65 64 61 56 55 56 55 57 59 52
14 17 19 22 22 20 19 22 23 23 23 25 24 23 24 26 25 25 28 29 26 23 22 28 35 42 44 46 51 50 49 56 56 63 59 55 53 60 60 56 54 55 55
14 16 18 18 18 17 15 19 23 16 21 19 20 21 27 26 22 21 21 22 25 28 32 35 35 35 37 39 42 47 51 52 53 59 58 60 57 58 58 59 58 56 56
12 14 12 14 18 17 18 21 26 23 19 20 24 22 19 19 21 25 28 31 34 37 40 42 37 31 29 32 36 43 46 52 58 56 59 55 59 60 64 65 63 62 56
7 9 16 16 11 22 19 21 24 22 20 16 13 11 14 18 22 25 26 26 21 21 21 21 22 25 28 31 33 40 45 42 44 55 60 53 59 59 65 63 69 62 63
9 13 11 12 13 15 16 18 18 15 11 8 5 6 8 10 10 9 9 8 8 10 12 13 12 12 10 7 20 29 30 36 40 48 58 57 61 71 77 70 56 57 45
9 11 12 17 16 19 17 18 16 13 10 4 2 2 3 4 3 4 6 9 11 11 13 14 13 15 18 23 26 27 29 26 38 25 31 27 13 10 7 19 40 29 41
14 15 15 15 13 15 16 18 17 14 12 9 4 2 6 5 4 6 8 10 11 12 14 15 15 16 20 22 22 23 18 20 19 20 14 18 14 12 17 10 23 38 36
14 13 12 11 10 10 9 8 9 8 7 6 2 2 2 2 3 3 3 5 7 9 9 13 15 15 15 19 19 18 14 15 15 14 5 5 13 16 14 24 30 33 33
16 20 21 22 19 17 15 15 15 13 11 9 7 5 7 8 9 9 8 9 9 10 12 11 12 9 13 16 17 16 13 12 8 6 4 7 11 20 27 31 26 25 24
19 20 20 19 16 15 14 17 17 14 13 13 12 11 11 10 9 9 10 10 10 12 13 14 14 15 13 15 15 13 11 10 7 2 5 12 20 21 20 21 25 25 23
20 17 17 21 20 21 20 19 18 17 17 16 16 16 17 18 18 17 14 15 14 13 16 16 13 11 5 5 1 2 6 6 3 6 8 8 11 16 19 22 22 20 21
26 20 20 22 23 22 22 21 20 19 18 19 19 18 17 16 15 16 18 18 19 21 19 13 12 8 6 7 5 5 4 3 4 6 7 12 15 19 19 18 18 17 15

GFSGL_850_spd_036.txt.gz
Wind_Speed
50 47 45 42 41 42 40 36 34 33 31 30 26 22 22 22 21 23 21 19 23 23 22 22 22 23 24 24 22 20 19 20 21 19 18 17 18 19 19 19 15 16 17
46 46 44 43 42 43 44 41 37 36 34 30 30 30 25 25 27 26 26 23 24 26 27 26 25 24 26 27 27 25 24 23 23 22 20 21 22 21 21 21 19 16 15
48 46 45 43 42 42 44 42 40 38 37 36 32 34 36 34 27 28 30 27 24 26 28 31 31 29 30 29 31 31 30 28 27 28 26 23 25 23 25 26 24 22 16
47 46 45 43 41 39 40 42 42 40 39 40 41 39 36 36 36 34 30 29 28 26 27 30 32 33 34 33 32 33 34 33 33 33 32 30 29 27 27 30 29 28 24
46 44 43 40 38 37 38 39 40 41 40 41 42 45 43 42 39 36 35 35 33 31 30 31 32 33 33 33 34 34 34 36 39 38 39 37 36 34 36 34 34 30 28
44 42 39 39 38 38 37 36 36 38 39 39 42 43 45 46 46 45 43 40 39 39 38 37 37 37 37 37 37 36 36 36 39 42 44 45 44 42 39 40 39 37 38
43 40 39 37 38 37 36 37 37 36 36 38 40 41 44 46 46 46 45 45 45 45 44 42 42 42 41 42 41 41 41 40 39 40 44 48 49 48 45 44 44 43 42
44 40 39 39 37 35 35 37 37 35 36 36 38 40 41 42 41 41 42 43 45 46 46 46 45 44 43 42 41 44 44 45 44 43 45 47 50 47 47 45 44 43 41
45 43 42 40 38 36 36 34 32 32 32 33 33 35 38 39 37 36 36 38 42 44 45 46 46 47 46 44 44 45 46 49 47 46 46 46 46 47 48 46 49 46 50
45 43 42 42 40 40 37 36 34 35 35 35 36 36 36 35 34 33 32 33 37 40 41 45 48 50 49 48 47 46 51 56 51 51 51 50 50 51 51 52 51 54 54
40 39 40 41 39 38 39 38 39 39 39 40 39 39 38 37 35 32 30 31 34 35 38 40 40 40 40 42 44 48 51 47 48 50 53 54 52 51 55 57 57 58 57
35 35 39 40 38 37 37 38 38 39 40 40 41 41 40 38 35 31 29 28 29 32 34 37 37 36 37 37 38 40 40 39 45 52 56 59 59 59 56 56 58 63 65
15 26 33 36 35 34 33 33 33 33 35 37 37 38 38 34 29 26 25 26 25 28 29 29 28 28 30 35 38 38 40 44 47 51 56 60 61 61 58 60 59 61 64
13 16 19 20 21 28 32 31 28 28 30 33 34 32 29 25 25 25 26 27 26 27 26 26 26 28 32 34 37 38 40 43 47 51 54 54 58 61 61 64 63 63 61
10 15 19 24 24 24 27 27 26 25 24 23 22 23 25 25 25 25 23 22 23 24 24 24 23 24 27 29 30 32 35 38 42 44 48 51 56 56 59 60 62 66 63
12 12 11 13 17 19 24 24 24 22 21 21 21 21 23 23 24 23 22 21 20 19 21 24 27 28 28 28 26 26 26 26 29 32 41 43 52 52 54 56 61 64 64
10 12 12 14 16 19 21 24 26 23 21 22 23 22 21 21 17 16 17 18 21 22 23 23 23 22 22 23 23 25 29 27 20 19 25 37 52 52 52 61 55 59 68
6 7 10 15 16 20 22 21 20 19 23 20 18 15 14 15 16 17 14 13 13 13 11 10 9 10 11 10 4 8 18 20 22 25 32 40 29 31 39 48 60 56 55
4 5 8 11 16 17 22 24 23 21 20 16 13 9 6 5 4 5 4 5 5 5 5 6 7 8 9 11 16 19 21 24 23 28 26 29 21 17 26 32 34 42 46
7 9 11 12 14 15 17 23 22 21 18 15 12 8 5 5 6 6 5 4 4 5 6 7 8 10 12 15 16 18 20 20 19 16 18 16 12 14 19 23 26 32 29
11 13 13 16 16 19 22 25 24 21 16 11 8 6 2 4 3 3 5 6 6 8 9 9 9 11 13 14 15 17 17 16 17 18 16 14 12 10 9 5 9 18 20
16 17 17 17 19 20 21 20 19 15 12 8 6 3 4 2 3 2 1 2 5 6 8 11 12 13 14 14 15 13 15 14 17 14 12 7 7 3 5 1 8 18 18
20 19 18 18 16 16 16 15 14 12 10 9 8 5 6 6 4 2 1 3 4 6 8 10 13 13 13 14 12 9 9 11 16 12 7 5 6 7 2 1 5 11 15
20 22 22 19 14 15 16 17 15 13 11 10 9 8 8 6 6 4 3 2 4 6 8 11 13 15 13 14 14 12 11 7 9 12 11 8 3 6 5 8 10 11 13
28 25 23 21 19 20 21 20 19 16 14 12 12 11 10 10 9 8 8 9 10 11 10 9 9 10 13 14 14 11 7 5 5 3 3 3 1 7 11 12 13 13 14
25 27 28 26 25 23 22 21 20 18 18 17 15 14 12 10 9 8 8 8 9 10 12 13 14 13 11 10 15 14 10 6 7 7 7 7 8 9 11 13 15 16 16

GFSGL_850_spd_039.txt.gz
Wind_Speed
53 51 49 45 40 35 35 34 33 32 30 28 27 24 23 21 19 21 20 19 20 21 21 23 23 22 25 25 25 24 22 22 23 20 20 19 18 17 17 18 17 19 18
54 50 51 45 42 40 36 34 33 33 31 31 28 27 24 22 21 22 22 22 22 21 23 25 26 24 25 26 27 28 27 25 26 27 23 22 23 22 22 22 21 22 21
54 52 51 49 47 44 38 35 34 34 34 33 33 31 30 28 25 25 26 26 26 26 24 25 27 28 28 28 28 30 31 31 31 33 31 28 27 27 28 28 28 28 28
52 51 50 49 47 42 38 37 36 34 35 37 35 36 33 30 32 31 28 25 27 29 29 27 26 28 30 32 33 33 32 33 35 38 38 37 34 32 34 34 34 33 33
49 48 47 43 42 40 38 36 34 35 35 37 38 38 39 38 34 32 33 33 34 31 30 30 29 28 28 29 31 33 35 37 38 39 42 43 43 41 42 40 39 38 37
47 46 42 42 41 39 37 35 34 34 34 35 39 40 42 42 43 41 38 36 35 34 35 35 34 34 34 33 33 34 35 37 39 41 43 46 46 46 45 46 46 44 46
46 45 45 43 41 36 35 36 35 34 33 35 36 38 41 43 43 42 42 43 43 43 42 42 41 40 39 39 38 39 41 43 43 43 46 47 48 46 46 47 48 50 53
44 44 44 45 42 38 39 38 36 36 36 35 34 35 37 39 38 38 40 42 43 44 45 44 44 43 42 40 39 40 41 43 43 43 47 51 50 48 49 48 48 49 51
42 42 42 40 37 37 36 35 32 33 33 33 33 32 34 34 33 32 32 35 38 40 40 41 42 42 40 39 39 40 41 43 39 39 40 42 44 48 47 51 54 52 57
40 39 38 34 34 34 31 29 26 27 27 28 28 28 26 27 26 23 25 28 33 35 36 37 39 39 38 36 36 37 41 40 38 40 39 38 35 37 40 46 55 52 54
36 38 36 32 33 33 31 29 28 29 29 31 31 31 31 30 29 27 25 27 28 30 32 32 31 28 28 29 29 32 34 31 31 35 40 45 46 42 39 41 43 48 54
33 35 35 36 36 35 34 32 32 33 34 34 34 34 34 33 30 28 27 27 25 27 26 28 29 27 26 25 27 29 28 29 33 38 43 46 49 50 49 51 53 52 54
27 28 26 25 29 32 33 32 32 31 31 31 32 32 32 29 27 25 22 20 20 24 23 24 25 24 23 24 24 27 31 34 35 37 41 44 46 48 52 55 58 61 62
11 13 17 20 23 25 26 28 28 30 29 29 28 28 27 26 22 19 19 22 21 22 23 24 24 24 24 26 30 32 29 25 26 30 32 35 35 35 38 42 50 52 55
9 10 12 13 14 16 19 22 26 26 25 23 21 17 17 19 18 19 20 21 21 22 22 23 24 24 23 22 24 27 28 30 29 31 30 32 36 37 42 40 45 51 52
14 14 13 13 15 18 20 21 24 24 22 19 18 17 17 16 16 17 18 18 18 18 19 19 20 21 24 26 28 29 27 25 26 28 32 32 27 30 39 36 31 34 46
11 16 16 13 13 12 13 16 19 21 20 18 17 17 17 17 16 16 15 15 15 15 16 17 20 22 21 19 19 18 18 16 15 16 22 26 28 30 26 25 30 34 41
5 7 10 13 12 10 11 14 15 16 15 17 17 16 15 15 14 14 13 11 10 10 12 13 12 11 10 8 8 10 14 17 20 21 21 18 20 21 22 24 26 31 33
1 2 7 7 11 12 13 17 18 15 15 15 12 11 10 11 10 6 7 7 9 9 8 8 8 8 8 10 12 15 17 18 20 19 17 16 19 23 23 20 23 18 24
4 3 3 3 3 9 12 16 19 18 16 16 13 11 9 7 7 6 7 7 7 7 6 6 7 8 9 11 13 14 15 16 17 18 18 19 18 20 20 22 19 11 11
6 6 6 7 9 11 12 16 20 19 17 14 13 10 8 7 8 8 7 7 7 5 5 7 8 9 9 11 11 13 14 15 15 16 17 18 18 17 12 11 10 3 7
7 8 10 11 14 16 17 20 23 21 18 16 13 10 7 7 6 5 3 2 2 4 6 7 9 12 12 13 15 17 16 16 14 15 15 15 16 15 14 13 9 8 1
15 13 13 15 18 20 22 23 21 20 17 14 12 10 10 10 8 6 4 2 2 4 7 9 11 12 13 15 16 17 19 18 17 17 16 14 13 18 15 12 7 9 4
21 15 15 17 18 22 23 23 21 20 17 13 12 11 10 8 7 6 5 4 3 4 6 8 10 11 12 12 15 17 18 19 19 17 16 14 10 11 14 15 9 7 7
22 25 22 19 19 20 21 20 18 16 16 17 16 14 12 10 8 7 5 4 4 5 6 8 10 11 12 13 15 16 18 18 16 16 14 11 10 8 10 12 10 11 10
30 28 27 26 25 23 22 22 22 20 18 17 16 14 12 12 11 10 9 9 9 10 11 12 12 13 13 14 14 16 16 16 15 15 14 14 12 11 12 13 11 14 15

GFSGL_850_spd_042.txt.gz
Wind_Speed
49 47 45 44 42 38 34 32 28 25 24 25 24 21 20 19 18 19 20 18 19 18 19 19 19 18 19 20 20 21 22 22 25 24 21 18 18 17 18 18 18 19 20
49 47 46 42 42 41 38 33 30 27 26 26 26 25 25 22 21 20 20 19 19 19 18 20 21 20 21 21 22 24 25 26 28 30 27 25 24 23 23 23 22 23 25
48 48 48 46 44 42 40 36 32 28 28 28 28 29 27 26 24 22 22 22 21 22 21 21 20 21 24 25 25 26 26 27 29 33 35 33 33 30 30 32 30 30 30
47 47 48 48 46 44 39 38 35 31 29 30 31 30 30 28 28 26 25 24 24 25 25 25 24 24 24 24 27 29 30 31 32 34 37 39 39 37 37 39 40 38 38
44 44 45 43 45 42 40 38 36 34 32 31 32 34 32 32 33 30 30 29 28 28 27 26 26 25 24 24 25 26 28 30 32 36 40 43 43 43 42 42 45 43 45
42 41 39 39 41 41 39 37 36 35 33 33 34 34 36 36 34 34 33 32 32 32 33 32 31 30 30 29 30 31 32 34 34 36 41 43 44 44 43 43 44 44 50
40 38 39 38 38 37 37 37 36 36 33 34 34 34 36 37 37 36 36 38 39 38 38 37 36 35 34 34 35 36 37 38 39 40 44 47 47 46 45 47 46 47 49
37 36 37 38 36 36 38 37 37 36 35 35 34 34 35 37 36 37 38 39 41 42 42 42 42 42 41 40 39 40 40 39 38 37 41 45 44 42 41 42 42 44 48
36 37 37 36 35 36 37 37 36 36 35 35 33 32 33 33 32 31 32 36 40 41 41 41 41 41 39 37 38 38 38 39 37 34 34 33 32 32 30 35 44 46 52
36 36 36 34 32 32 32 33 32 32 32 32 33 31 30 28 26 24 26 29 34 35 35 36 36 35 33 31 32 32 34 30 27 28 28 28 27 27 26 29 33 40 46
32 31 29 29 29 29 29 29 29 28 26 28 27 24 23 22 21 20 21 25 27 28 30 29 29 25 21 20 21 25 28 25 25 28 29 32 34 34 34 31 34 38 42
27 27 25 26 27 27 26 24 24 24 25 25 24 24 24 23 22 22 22 24 23 27 27 25 22 19 21 21 22 23 23 21 23 27 32 33 37 38 41 40 40 42 44
27 25 23 23 24 24 23 23 24 24 25 25 25 25 25 21 19 19 18 19 19 22 21 20 20 22 22 21 21 22 23 27 28 34 33 31 33 32 32 30 33 38 43
20 21 19 19 19 19 20 22 25 26 25 24 24 26 22 18 17 16 16 16 16 20 19 21 21 21 22 23 26 30 29 25 24 26 28 30 31 31 34 34 36 37 40
11 13 17 20 21 22 24 24 25 24 23 23 23 20 19 17 14 14 14 16 19 20 21 22 24 25 25 23 23 23 22 25 27 28 27 27 28 30 29 29 35 34 33
11 11 11 12 13 15 18 20 22 21 22 22 20 18 17 17 14 11 13 16 16 16 18 19 19 19 18 19 20 24 25 26 25 23 23 22 22 26 28 27 27 31 37
12 13 13 14 14 15 17 18 19 19 19 17 17 15 14 15 14 13 12 12 13 15 17 17 16 17 18 21 21 19 17 15 13 14 19 20 20 20 22 26 29 29 32
4 7 10 13 13 14 15 14 13 11 12 16 16 15 14 12 13 13 13 13 12 13 13 12 13 15 13 12 11 11 12 14 15 16 16 17 18 20 23 25 25 29 29
5 3 6 7 10 11 13 13 12 11 13 11 12 11 13 13 10 9 8 8 7 7 9 10 10 10 10 11 11 13 13 13 13 15 15 15 17 19 19 20 20 20 19
5 5 5 4 9 14 16 17 17 16 18 19 16 14 13 13 12 10 7 6 8 8 8 8 9 9 11 11 11 12 12 11 13 14 14 15 15 17 16 15 13 15 15
4 2 1 1 2 8 15 17 18 20 20 18 16 14 12 12 11 10 8 7 7 7 6 6 6 8 9 9 10 10 12 12 12 13 13 13 15 15 14 14 12 11 12
2 2 2 3 5 10 13 16 19 19 19 18 17 16 14 11 9 8 7 6 6 5 6 4 5 7 8 9 11 12 12 13 14 15 17 18 17 17 16 16 14 9 9
7 6 5 7 7 11 15 18 19 20 19 18 16 15 11 9 8 8 8 6 7 5 5 4 5 6 7 8 11 13 14 15 16 17 18 19 18 19 17 16 13 9 10
13 11 11 10 9 14 16 19 19 20 19 17 16 13 11 10 10 9 8 6 4 3 2 2 4 5 7 10 12 14 15 15 17 18 18 17 17 13 14 14 14 13 11
20 16 16 18 18 20 20 21 23 22 20 19 17 14 12 11 11 9 7 6 4 4 4 5 6 8 9 10 12 13 15 15 17 17 17 17 15 12 10 9 8 9 11
21 18 20 19 23 24 23 22 22 20 18 17 16 16 15 14 12 10 9 7 5 4 3 3 5 7 10 12 13 14 15 16 16 14 15 14 17 16 14 12 10 8 9

GFSGL_850_spd_045.txt.gz
Wind_Speed
45 45 45 42 39 37 35 31 30 27 22 21 22 24 22 21 20 19 18 17 16 15 15 15 15 14 15 15 16 17 18 19 22 19 21 20 19 17 18 19 19 20 21
45 45 45 43 38 38 37 34 31 29 26 24 23 26 24 24 23 22 20 19 19 18 16 17 16 16 16 17 18 19 20 22 24 29 27 28 28 25 25 27 27 27 28
48 47 46 45 43 39 36 35 33 30 29 26 26 27 28 27 25 24 23 22 21 19 18 19 17 17 18 18 20 22 23 24 26 30 32 31 34 34 34 34 34 34 35
47 46 47 47 44 40 36 34 32 31 31 29 28 28 29 29 28 27 26 25 24 23 22 22 22 22 22 21 22 23 24 27 28 32 35 33 33 34 37 36 36 35 36
45 45 45 44 44 42 41 37 32 31 32 31 29 30 30 29 30 29 29 28 27 27 26 25 24 24 23 23 24 25 25 27 27 26 27 27 28 25 30 31 32 36 39
44 42 41 41 42 41 41 39 37 33 33 33 34 32 32 33 32 31 30 30 30 31 30 28 27 27 27 27 28 27 28 31 33 34 32 32 40 37 32 32 33 34 37
42 39 38 37 38 38 37 38 37 35 34 36 35 34 36 35 34 33 32 33 35 35 34 33 32 32 31 31 31 32 33 33 36 38 43 44 46 41 41 42 36 35 39
42 39 35 34 34 34 36 37 36 35 36 36 36 36 36 37 36 34 34 36 38 39 38 38 38 38 38 38 37 38 40 41 41 41 42 43 42 37 31 32 36 38 43
43 40 37 36 34 35 36 35 35 35 36 36 35 36 36 36 35 33 33 35 39 41 41 41 41 41 40 39 38 40 40 40 38 37 35 32 29 26 26 30 31 34 42
43 39 35 33 32 31 30 32 32 32 33 34 35 35 35 34 33 30 30 33 37 38 38 39 39 38 35 33 33 33 36 35 29 26 29 30 26 25 23 25 29 35 38
39 38 35 32 33 30 29 30 31 32 32 32 33 33 34 33 31 29 29 32 34 32 32 31 31 27 23 22 23 24 27 23 26 27 28 28 27 26 27 29 31 31 32
35 32 30 29 30 30 31 31 31 31 32 32 31 31 30 27 24 22 23 26 26 28 28 26 26 23 19 18 20 24 25 24 26 26 25 29 33 36 31 26 26 26 31
27 28 27 26 28 29 28 29 29 29 29 29 28 28 25 24 23 23 23 24 24 26 26 25 21 19 19 21 23 23 22 23 24 25 30 29 28 27 27 28 31 30 28
28 28 26 25 25 25 26 26 28 29 29 28 26 24 22 22 21 20 20 21 22 24 23 21 21 20 21 21 22 22 24 30 26 21 23 25 28 28 30 27 24 24 29
23 25 26 26 26 27 26 26 26 27 25 25 23 23 22 21 19 17 18 18 19 19 19 21 23 24 24 26 27 27 22 21 20 22 24 26 26 25 22 22 24 21 19
14 17 20 23 26 28 28 26 26 26 23 22 23 20 21 18 17 17 16 15 17 18 21 22 22 21 21 21 19 18 18 19 21 22 22 21 19 20 21 20 19 18 19
9 12 8 8 25 20 27 26 26 27 25 23 22 20 19 18 17 16 16 16 17 17 20 21 20 19 18 17 18 17 17 19 18 14 15 17 19 19 18 16 14 14 16
4 11 10 16 30 20 17 16 17 17 17 21 20 17 15 14 13 14 17 17 17 17 19 19 17 15 14 14 14 14 14 14 14 15 16 15 16 15 13 13 13 18 20
6 13 22 24 18 13 12 13 14 16 16 18 20 20 18 17 14 13 14 15 15 16 15 15 15 15 14 14 15 15 14 14 14 14 13 13 12 13 13 17 17 17 16
9 10 6 8 9 10 11 13 15 16 18 21 21 20 20 19 18 18 17 16 15 13 13 14 14 13 14 13 13 12 12 12 12 12 14 12 12 13 15 15 16 17 16
8 7 6 5 6 11 13 15 15 16 17 18 20 20 19 18 18 18 17 17 16 14 13 12 13 12 11 11 12 11 12 12 14 14 14 15 15 17 18 19 17 16 18
3 2 2 2 4 9 12 14 15 16 17 19 18 16 15 14 15 15 14 13 11 9 8 8 9 10 10 9 8 9 11 13 14 15 15 15 16 18 19 20 20 18 17
9 8 7 6 5 7 9 13 16 18 19 17 17 18 16 15 13 12 11 10 8 8 8 8 8 6 4 5 6 8 9 9 11 12 13 14 16 17 17 17 18 19 18
12 14 13 12 9 11 14 16 17 18 18 18 18 16 15 13 11 11 11 9 9 9 8 7 5 3 1 1 3 5 7 9 11 13 14 15 15 14 15 15 14 16 19
15 18 17 15 15 14 18 22 23 23 22 21 20 18 16 14 13 12 12 12 11 10 8 6 4 3 2 4 5 7 9 11 13 13 14 15 15 16 16 15 14 12 14
19 20 20 19 18 19 21 22 22 22 21 20 19 17 15 14 15 15 14 12 10 7 6 4 1 2 4 6 8 10 12 12 12 12 11 12 13 14 13 15 15 12 13

GFSGL_850_spd_048.txt.gz
Wind_Speed
43 41 42 39 40 41 35 35 32 28 25 21 20 18 19 18 18 20 18 14 13 12 13 13 13 13 11 10 10 11 12 12 14 14 13 14 22 19 19 21 23 24 23
43 47 46 45 42 35 39 36 34 31 28 26 24 22 21 20 19 20 20 16 17 16 15 15 15 13 15 15 14 15 15 16 16 21 18 19 20 22 27 26 26 23 23
38 41 41 40 40 41 40 37 35 32 29 28 28 26 24 23 21 22 23 20 19 18 17 18 17 16 17 15 15 15 15 16 16 18 21 19 20 21 24 25 26 27 26
38 39 41 45 43 42 42 39 36 33 30 30 31 28 27 26 24 23 23 24 22 20 20 19 19 19 19 18 17 18 17 18 19 22 22 22 21 21 21 23 22 21 24
43 41 43 47 47 45 42 40 37 34 32 32 32 31 29 27 25 27 25 24 24 24 22 22 23 23 24 23 19 18 18 19 20 21 23 22 22 22 22 25 28 28 28
46 49 46 48 47 46 45 43 40 36 35 34 34 33 32 28 27 30 28 24 25 24 25 25 25 27 26 26 26 25 26 28 29 27 26 27 29 28 26 30 32 33 38
47 47 47 49 49 47 45 43 42 40 37 37 36 35 35 33 31 31 30 30 25 26 27 26 25 23 25 28 29 30 31 31 32 34 38 37 37 34 32 33 33 34 32
45 48 47 49 48 47 47 46 44 41 41 40 38 37 36 36 34 33 32 32 34 34 33 31 33 33 31 28 25 26 28 29 31 34 39 39 35 29 27 28 31 35 34
47 48 47 46 45 45 46 45 43 41 40 40 39 39 39 38 37 34 34 35 37 38 38 39 39 39 38 37 37 39 39 37 30 32 35 33 30 27 24 27 29 32 39
48 45 45 44 43 43 43 43 42 41 41 38 38 39 40 39 38 37 35 35 34 34 37 39 41 42 41 40 38 37 38 34 26 25 26 26 24 24 21 25 27 29 32
36 34 38 41 41 40 39 37 37 39 36 39 37 37 38 38 37 37 35 36 35 30 29 28 27 30 32 29 30 31 32 26 24 24 25 23 20 23 26 27 31 32 29
35 36 38 39 36 33 36 35 35 36 37 36 36 35 33 37 38 37 35 35 35 35 31 25 24 26 28 23 23 26 24 21 26 28 30 31 29 28 29 29 26 24 27
29 34 34 34 35 33 35 34 32 33 29 31 28 28 26 25 29 32 33 33 33 34 32 24 26 28 28 24 24 23 23 25 26 29 28 27 28 27 26 23 19 17 18
26 27 25 26 28 29 27 28 28 28 29 28 28 26 25 24 23 22 31 31 30 32 32 33 31 30 28 25 24 24 24 24 25 26 29 25 24 21 12 13 14 12 14
24 22 21 21 22 21 21 23 24 23 25 26 25 23 23 24 23 23 21 21 28 29 27 26 25 26 27 26 26 26 26 27 29 27 17 16 12 13 12 11 10 11 12
21 21 20 19 17 18 20 22 24 26 28 28 26 23 23 24 24 24 23 24 20 20 22 25 23 23 24 25 25 25 21 18 17 15 11 11 11 10 10 9 10 10 11
22 18 15 18 19 24 25 16 5 13 19 26 28 29 25 23 25 21 20 21 20 19 20 20 20 21 21 20 19 17 14 12 16 11 9 9 9 9 11 9 10 10 12
16 19 17 21 21 16 10 13 12 17 31 27 30 30 27 24 21 21 20 19 19 20 20 18 18 17 16 13 12 8 6 10 13 15 13 8 9 9 10 10 10 12 12
14 18 18 19 13 10 9 11 12 28 25 29 28 26 22 19 17 16 15 13 12 12 13 15 15 16 16 17 17 17 17 16 15 14 14 9 11 12 9 11 12 16 16
8 9 15 17 19 14 13 20 23 27 30 22 27 27 24 22 21 21 19 21 20 18 15 14 13 14 15 15 15 16 15 14 14 14 13 13 12 12 13 13 14 14 17
8 8 10 11 16 22 18 17 23 25 29 29 28 26 26 23 19 17 16 16 17 18 17 14 13 12 12 12 12 13 11 11 12 13 13 12 14 15 15 17 18 17 18
11 9 10 9 10 20 29 30 28 28 28 28 25 23 21 20 20 18 17 15 14 14 12 11 11 11 12 13 12 9 7 8 9 10 11 13 14 16 16 17 18 18 17
5 5 6 8 9 10 13 16 22 23 22 21 21 22 20 18 17 15 14 13 11 10 10 10 11 11 11 8 7 6 7 8 9 10 12 12 12 12 15 16 16 17 17
1 3 4 4 5 10 11 13 15 16 18 19 20 20 19 18 16 15 13 12 11 10 9 9 9 8 7 3 3 3 5 6 7 8 10 10 10 12 15 15 15 17 19
4 4 2 5 6 4 4 9 14 16 17 18 19 19 18 17 16 15 14 13 11 10 10 10 8 7 6 6 6 6 8 10 11 11 10 10 11 13 14 16 18 19 19
3 5 5 10 6 2 5 8 13 16 16 18 18 18 17 16 15 14 13 13 12 14 10 10 9 7 5 6 7 9 11 12 12 13 10 7 9 10 12 12 15 16 16

GFSGL_850_spd_051.txt.gz
Wind_Speed
43 43 43 42 37 39 35 34 31 24 22 23 18 17 18 18 18 20 18 14 15 14 15 12 14 14 10 9 9 10 10 10 12 12 11 12 15 22 25 23 21 21 21
44 45 45 43 41 36 41 39 32 32 27 23 21 21 19 20 19 20 19 17 17 14 15 15 15 13 15 15 15 14 13 13 14 19 18 19 18 18 23 27 29 20 19
41 43 42 41 44 42 40 42 37 35 33 26 25 24 22 23 23 22 21 20 19 18 18 19 18 18 19 15 16 15 14 15 15 16 19 18 20 19 20 22 23 22 23
37 39 43 45 45 43 42 42 41 38 36 33 29 27 25 23 23 23 22 22 21 20 20 20 20 21 21 19 18 19 18 18 18 19 20 21 21 20 20 22 20 19 24
42 41 45 47 47 45 43 43 43 40 38 35 32 31 29 25 23 26 26 24 23 22 22 22 22 23 22 23 19 18 18 19 18 19 21 21 22 21 19 23 29 27 27
44 46 45 45 46 46 46 45 44 43 40 37 36 34 33 28 26 27 26 26 25 24 24 24 24 24 25 26 27 26 25 26 27 24 24 26 29 28 25 26 31 36 36
44 45 43 44 47 48 47 46 45 45 42 41 39 37 37 36 29 29 30 30 26 26 26 26 23 20 22 23 23 24 26 28 31 32 35 36 37 35 36 35 27 28 29
46 42 45 44 47 48 47 49 48 45 44 43 42 40 39 38 34 32 31 31 31 31 29 27 27 27 26 22 21 22 25 27 28 27 31 35 35 30 28 29 32 32 32
43 48 47 48 46 47 49 50 50 47 45 45 44 42 42 41 36 33 32 32 33 35 34 34 34 35 34 32 32 34 35 37 32 32 32 31 28 26 26 27 31 28 30
48 50 49 48 47 49 51 51 50 49 48 46 46 45 44 42 39 37 35 34 31 31 33 35 37 37 37 36 37 37 39 37 30 26 25 24 26 26 23 23 25 28 27
46 42 43 46 47 48 46 47 49 50 40 46 39 43 44 43 42 40 39 39 36 29 29 28 27 27 28 27 28 30 34 32 31 24 23 21 19 19 20 22 24 26 30
37 40 41 41 41 37 40 41 40 40 40 37 40 35 33 41 41 40 40 39 38 38 33 25 24 26 27 28 29 28 25 24 25 25 21 20 23 26 28 27 27 27 25
38 40 39 37 38 35 38 39 35 35 33 34 30 32 31 30 31 36 38 39 37 38 36 26 29 30 29 30 30 28 24 25 25 24 25 27 27 26 25 24 22 16 16
36 37 35 36 36 35 30 29 28 28 28 27 28 27 28 29 29 25 30 33 35 36 37 37 34 33 31 24 24 26 25 24 22 25 26 26 29 25 19 13 11 12 14
33 34 35 32 32 33 26 27 26 26 27 27 25 25 25 27 28 27 26 29 32 36 33 32 29 27 27 25 24 24 26 24 25 25 26 21 17 12 11 11 13 12 12
31 32 32 30 30 31 33 33 31 31 30 28 28 26 22 28 28 30 31 28 21 17 23 23 21 24 24 22 23 22 24 25 25 19 17 14 9 10 12 11 12 11 11
30 30 30 31 31 33 32 28 33 33 28 33 31 32 26 18 26 22 27 30 29 26 19 17 22 22 24 23 22 24 21 20 14 13 10 7 10 9 11 10 10 11 11
25 28 30 27 35 31 30 27 24 21 21 22 32 31 27 25 23 28 28 26 27 29 26 24 20 20 20 20 17 15 9 10 13 13 13 9 8 9 10 10 10 11 11
23 23 24 25 26 26 26 24 19 22 21 20 18 16 20 29 23 24 21 22 21 21 22 20 16 17 16 16 17 15 16 18 15 13 12 7 10 11 10 11 11 13 14
11 21 17 25 34 27 20 17 16 19 20 27 28 27 26 25 22 25 24 26 21 17 17 12 15 17 16 15 13 12 11 13 12 10 10 10 10 11 10 11 13 14 16
17 7 11 16 14 19 15 19 16 15 12 19 26 33 18 17 20 19 20 20 21 19 15 14 13 12 11 10 8 7 7 7 7 6 6 7 8 9 9 10 12 13 14
15 16 5 13 14 19 22 19 16 27 28 26 25 18 20 19 16 14 16 17 15 16 14 12 9 8 10 8 6 4 2 2 2 3 4 4 6 7 9 13 12 11 11
9 7 7 7 11 17 18 19 24 24 26 20 19 24 26 20 18 16 14 14 13 12 11 9 9 8 7 6 3 4 7 8 6 5 5 4 5 6 8 12 13 13 14
4 6 8 9 10 8 10 12 13 14 15 21 26 24 25 21 18 14 11 11 10 8 7 7 6 5 5 4 7 8 5 5 5 5 4 3 5 7 9 11 12 14 17
4 3 6 9 8 8 7 4 8 13 15 18 20 19 17 15 14 14 12 9 7 5 5 4 3 5 9 10 6 5 6 6 6 7 8 5 5 8 8 10 12 14 15
10 4 5 6 7 6 6 6 8 11 12 13 16 15 15 15 15 15 14 12 11 8 6 6 5 4 4 5 5 5 7 8 7 5 3 6 6 7 8 9 10 12 14

GFSGL_850_spd_054.txt.gz
Wind_Speed
44 44 47 46 45 42 35 33 30 28 23 27 16 17 17 17 20 19 17 15 15 12 14 10 14 12 15 11 10 8 9 11 14 14 12 15 16 19 24 23 22 23 23
47 43 46 46 44 44 44 38 36 32 31 28 27 20 20 21 20 21 19 23 15 19 14 20 15 15 13 16 16 15 11 12 15 20 21 21 16 17 21 22 21 23 23
43 44 42 44 45 45 44 46 38 38 35 34 31 29 29 24 22 21 20 19 21 19 16 15 18 19 18 17 14 15 16 13 16 18 20 18 20 18 20 21 24 26 22
41 42 44 46 46 47 44 43 45 40 39 38 35 32 29 26 23 24 24 22 20 25 23 22 22 21 20 20 19 20 21 20 21 22 23 19 19 19 19 16 16 20 28
43 43 46 46 47 45 45 43 42 47 43 40 37 34 32 29 27 27 27 26 24 23 23 24 24 24 24 23 22 20 17 17 19 20 22 20 20 22 24 27 30 27 33
44 47 43 45 45 45 45 43 43 42 44 43 40 37 35 33 30 25 25 26 27 27 24 25 26 24 23 22 23 25 24 24 25 26 29 31 31 32 32 34 34 33 35
44 43 44 43 46 46 44 45 43 44 43 44 42 39 38 37 33 27 27 28 27 28 28 26 25 24 23 23 21 20 20 21 25 27 31 31 30 27 30 30 27 27 30
46 43 44 44 46 47 46 45 46 45 45 44 43 41 40 39 36 32 30 30 31 30 29 27 27 25 23 23 21 22 23 23 22 23 25 28 30 32 26 27 27 31 33
44 49 46 49 48 48 48 47 48 46 46 45 43 43 43 41 39 35 33 34 34 34 32 33 32 28 28 25 28 30 30 31 30 32 34 33 30 28 28 28 30 31 31
49 48 48 48 49 50 49 47 47 47 47 45 44 44 44 42 40 38 35 34 38 37 35 35 33 34 33 33 34 34 35 34 33 32 31 29 26 24 25 23 23 24 26
45 44 43 45 50 47 46 45 45 46 44 45 45 44 44 44 42 40 38 37 38 36 36 35 33 30 26 22 21 22 25 22 23 26 28 27 23 21 21 22 23 26 27
39 43 41 46 44 44 44 44 43 43 42 40 41 39 40 43 43 41 40 39 39 39 39 32 27 23 24 22 23 25 22 22 24 27 27 24 20 17 21 23 22 22 24
40 41 43 43 45 41 43 42 42 42 41 42 38 40 36 35 42 42 41 41 39 39 39 37 36 33 27 26 24 24 24 26 27 27 26 23 20 22 23 24 19 18 13
37 43 42 42 42 43 40 42 43 42 42 38 39 36 35 35 33 34 32 29 31 35 35 36 36 33 32 34 34 31 28 26 25 24 21 20 22 23 21 15 13 8 10
36 43 43 41 41 41 42 38 40 39 40 40 36 35 32 31 34 35 32 31 26 25 28 32 34 36 38 35 33 31 28 25 24 22 22 23 23 19 13 10 9 9 14
38 38 40 39 38 39 41 37 36 36 36 35 31 30 33 33 30 30 29 33 29 24 21 27 34 33 31 28 24 24 24 23 24 24 22 20 15 11 8 11 14 16 14
30 33 34 37 37 41 42 44 43 41 38 37 36 38 35 32 34 32 27 35 33 28 25 19 21 17 21 23 23 22 22 20 20 18 15 9 5 9 13 13 11 9 10
25 29 33 38 36 41 42 38 44 44 41 39 35 34 31 31 30 26 25 17 21 20 19 17 19 25 24 21 21 21 21 18 14 15 15 14 14 12 11 12 12 14 17
29 29 29 32 35 40 39 35 31 31 29 30 32 35 35 32 27 31 20 16 20 24 27 26 25 25 22 23 22 19 17 17 19 17 15 16 17 17 18 17 18 19 20
20 17 21 27 34 34 37 36 32 31 26 26 24 21 23 22 16 19 28 23 11 16 29 30 29 20 20 19 17 16 16 16 17 17 17 16 13 13 12 12 13 12 11
12 15 20 22 26 27 33 35 30 24 26 23 20 22 22 21 17 17 23 27 38 25 17 19 21 17 16 13 10 10 11 10 10 12 10 6 6 7 7 10 13 11 11
15 12 16 21 17 17 16 14 18 19 21 20 16 22 15 15 19 18 14 13 18 30 33 15 11 12 11 11 10 8 6 5 7 10 10 9 9 6 4 10 17 15 12
14 13 12 10 11 15 16 18 16 12 11 13 14 16 17 17 15 16 21 22 25 25 19 18 15 12 11 12 12 13 15 15 12 11 9 5 3 3 7 7 11 12 11
16 13 12 13 8 7 9 11 13 10 11 16 15 21 21 18 16 15 12 11 13 16 18 17 16 15 15 13 12 10 10 9 7 4 4 6 6 4 7 5 7 9 13
10 15 16 16 12 10 9 9 8 12 14 20 28 25 20 15 11 8 11 14 14 12 10 10 9 9 9 7 4 5 6 6 5 3 3 2 5 2 7 9 9 5 8
14 13 12 10 10 11 9 11 18 18 18 18 17 15 14 13 14 16 16 14 13 12 7 3 3 4 5 5 3 3 4 3 3 3 4 3 6 10 13 11 5 7 8

GFSGL_850_spd_057.txt.gz
Wind_Speed
44 43 46 48 44 39 39 36 31 29 28 22 16 20 17 12 13 16 13 13 10 9 11 10 11 10 17 13 12 9 9 9 12 10 10 12 15 18 20 19 16 19 20
47 45 44 47 49 45 42 41 37 32 29 23 22 22 21 17 15 18 17 17 17 16 15 13 16 12 13 17 16 14 14 13 14 17 17 17 14 13 10 14 19 21 19
49 47 46 45 48 51 47 44 42 39 34 31 24 25 24 22 19 17 19 19 23 20 17 18 18 20 17 15 20 20 19 18 19 21 21 18 19 11 15 19 14 13 20
49 50 49 47 47 48 49 47 45 41 38 39 35 33 32 32 27 23 21 19 20 27 22 20 19 19 20 19 18 18 18 20 20 22 24 22 16 14 14 17 24 26 28
48 51 52 47 45 44 46 46 46 46 43 40 40 41 37 33 29 26 24 23 21 22 25 27 23 22 21 20 20 19 19 19 18 19 21 20 20 20 24 28 30 29 29
51 52 49 46 43 44 44 44 43 46 47 43 42 42 40 37 33 29 27 26 26 24 23 22 25 24 22 20 20 20 21 22 23 24 25 27 29 29 26 23 28 26 29
54 52 50 46 44 43 44 43 44 43 44 48 45 42 42 40 36 31 28 28 27 27 27 24 23 23 24 24 24 24 22 21 21 22 25 25 24 21 24 28 24 24 25
57 56 53 50 46 43 42 44 43 43 42 43 46 45 43 41 37 34 30 28 27 26 26 25 25 23 22 21 21 22 24 23 23 23 24 24 24 26 29 25 25 26 26
44 56 55 52 48 46 43 41 42 42 43 41 41 42 43 41 38 35 32 31 33 32 30 29 28 27 25 22 22 27 29 29 27 27 28 31 33 31 28 25 22 25 26
40 54 53 52 49 48 44 42 40 40 41 42 42 41 41 41 39 37 34 34 35 37 35 34 33 32 30 30 31 30 31 30 28 29 29 28 24 23 21 21 23 24 22
48 44 55 53 51 48 45 43 41 40 40 41 42 42 41 41 40 38 37 37 37 38 38 37 36 34 33 31 31 33 31 18 18 19 21 22 22 22 18 19 19 20 24
24 42 52 53 50 48 47 46 44 42 42 41 42 42 41 40 39 39 38 38 38 40 39 37 36 32 30 26 21 20 19 20 22 23 24 24 23 20 16 15 18 23 25
23 23 49 44 45 46 47 48 46 45 44 43 43 43 43 42 41 40 38 36 36 39 38 38 38 35 28 23 22 22 22 27 26 27 27 25 22 18 15 18 20 19 14
23 30 29 47 42 43 45 46 47 47 46 44 44 44 43 41 40 41 40 38 37 36 36 38 38 37 37 37 36 35 34 30 27 25 24 22 18 17 18 18 16 12 11
31 28 32 40 47 44 46 46 47 48 48 46 45 42 41 42 43 41 41 40 37 33 29 32 37 38 37 37 37 34 30 26 25 24 22 19 18 19 17 10 10 10 10
33 31 35 36 47 47 47 47 45 46 45 44 40 40 41 41 38 35 34 35 30 24 26 31 31 33 36 38 38 36 33 29 22 20 18 19 18 17 11 9 11 11 13
31 35 32 39 44 48 47 50 45 42 43 43 40 37 37 37 30 34 29 26 26 28 31 30 30 29 30 29 28 25 24 22 22 19 20 19 16 12 11 10 14 13 13
26 27 30 38 40 42 45 46 48 51 46 41 39 38 32 36 34 31 32 28 29 37 35 30 24 20 17 16 17 19 20 21 21 21 20 17 16 15 15 17 16 16 17
23 30 29 29 35 38 40 43 45 46 48 44 40 40 39 40 37 30 28 21 23 23 26 24 19 13 11 8 18 23 21 22 21 20 18 18 18 18 19 20 19 19 19
23 29 33 33 33 34 37 41 45 42 43 43 44 42 42 37 35 32 30 27 25 28 30 30 28 19 12 8 18 21 13 15 16 17 17 18 19 19 21 21 20 20 18
11 23 30 34 34 36 35 39 33 35 38 36 34 33 31 32 31 29 26 26 29 31 31 29 27 25 30 34 41 40 28 24 21 19 19 17 16 16 13 12 13 13 13
8 15 20 21 25 29 29 30 30 35 27 26 22 20 18 19 21 21 21 22 23 24 24 23 21 20 19 17 25 26 31 28 24 22 18 15 13 9 9 9 12 12 13
8 11 17 19 19 19 19 21 22 26 22 9 4 11 13 15 12 13 18 19 19 19 20 21 23 21 20 23 28 25 26 25 23 17 15 15 15 14 11 12 15 15 10
16 16 18 20 20 19 21 25 23 21 23 33 22 15 13 13 12 16 18 16 14 17 22 21 18 17 18 19 20 22 24 23 19 16 14 15 16 15 12 11 10 7 7
20 19 21 20 18 19 21 22 21 22 25 27 27 26 27 24 24 22 19 18 20 20 20 20 19 17 17 18 19 20 21 19 16 14 13 16 18 14 13 13 13 14 13
17 16 18 17 19 20 19 24 24 25 26 26 26 23 22 21 21 21 21 20 20 20 20 19 17 15 14 14 13 13 14 14 12 13 14 15 15 15 15 15 15 13 13

GFSGL_850_spd_060.txt.gz
Wind_Speed
44 40 39 43 42 43 41 37 30 29 25 24 21 17 23 19 14 14 14 16 16 16 15 14 17 18 18 14 11 10 9 11 13 12 13 12 13 16 15 14 15 19 22
44 44 42 41 45 44 44 43 38 32 30 29 27 22 24 23 18 15 17 17 17 16 14 14 14 16 18 20 18 15 14 14 16 18 15 14 17 14 13 12 14 15 16
47 45 45 43 44 48 46 45 43 38 34 33 33 29 24 24 21 16 16 18 19 19 17 17 15 15 17 16 19 20 19 17 19 21 22 22 22 18 13 14 14 17 27
49 48 46 45 44 44 48 48 46 44 40 37 33 32 29 27 26 21 17 16 19 21 22 20 18 18 18 20 19 18 19 21 22 23 25 25 22 17 17 18 24 28 25
48 50 49 47 44 43 43 47 50 48 47 44 40 37 32 31 30 28 24 22 20 21 23 25 23 21 21 19 20 20 19 20 20 21 23 22 21 21 21 26 28 25 24
46 49 49 48 47 46 43 43 46 50 52 49 48 44 41 38 34 31 28 25 23 23 23 24 23 25 25 23 23 22 20 20 21 22 23 24 24 23 21 21 24 28 29
43 47 47 47 46 46 44 42 44 45 48 53 52 48 46 44 43 39 34 31 28 26 25 25 24 24 23 23 24 23 23 22 22 21 23 23 24 21 22 25 26 28 27
36 39 44 47 45 44 42 41 43 44 46 49 51 52 50 48 45 42 38 35 32 30 28 26 24 23 23 23 22 23 24 23 22 22 25 26 26 25 26 28 31 28 22
43 42 34 42 45 48 44 40 40 42 43 45 47 46 51 50 46 43 40 39 36 34 30 28 26 24 21 20 22 24 23 23 22 23 25 26 27 29 30 29 25 22 24
36 43 39 32 40 52 49 45 41 41 41 42 43 46 46 46 46 42 40 40 39 37 34 32 30 28 25 23 25 26 28 26 25 25 26 27 27 27 22 21 23 24 21
27 36 38 36 32 49 53 52 45 43 42 41 42 42 44 44 43 41 38 38 39 38 38 36 33 30 29 27 28 29 31 28 29 27 23 22 22 21 19 21 22 19 18
18 23 25 31 35 41 52 56 53 48 45 43 43 42 41 41 40 38 37 37 37 39 39 35 33 31 29 29 30 30 29 27 27 26 25 25 24 21 20 20 16 15 19
19 24 37 40 42 50 49 56 57 52 50 48 46 45 44 41 40 38 36 35 35 38 38 36 32 31 30 29 29 28 25 27 28 30 31 29 24 22 22 18 15 17 20
33 26 31 35 37 50 53 57 56 54 54 52 50 48 45 43 42 39 38 36 34 35 35 35 33 32 32 32 30 29 28 28 27 28 29 27 24 22 20 17 17 18 15
29 33 28 29 35 39 47 54 54 55 52 52 53 49 46 45 44 39 38 37 34 33 31 33 36 37 37 37 36 34 34 35 35 30 25 22 19 22 18 18 18 15 14
26 30 28 26 31 32 36 49 50 52 51 49 50 47 43 40 38 35 33 32 30 26 29 33 38 39 38 36 36 36 35 34 32 29 24 20 20 19 21 19 19 17 13
28 29 29 27 27 32 36 44 51 51 49 47 45 46 44 40 33 31 31 27 24 23 30 31 34 33 32 31 29 26 28 27 25 24 21 23 20 21 23 20 18 16 16
29 31 32 29 28 33 38 42 47 51 51 47 44 42 41 40 35 31 27 30 30 29 31 34 32 33 34 32 26 20 15 14 14 15 14 20 25 24 21 21 20 18 20
27 29 29 27 29 30 36 41 46 46 47 47 45 43 35 39 35 32 32 33 34 33 34 36 36 37 33 29 26 25 26 27 26 19 7 28 30 23 17 20 20 19 18
30 30 31 30 29 31 34 38 41 43 44 46 43 44 42 38 38 41 37 33 30 31 32 36 36 37 32 30 27 25 23 25 29 33 31 28 31 24 22 26 25 23 21
26 28 28 30 30 31 33 34 33 35 38 40 38 37 38 40 38 38 35 32 32 32 30 29 28 29 32 29 28 28 23 22 26 24 24 21 23 26 25 25 24 21 19
18 17 26 27 26 29 31 37 36 36 33 35 37 33 37 40 37 33 32 30 28 29 31 31 33 31 30 28 24 23 23 23 21 21 22 23 23 22 20 21 18 14 14
15 19 25 26 28 27 24 26 32 32 33 34 36 33 28 24 15 14 15 18 18 22 25 27 28 28 27 24 22 19 18 17 14 13 12 13 14 17 18 16 14 14 13
18 23 24 23 23 22 22 30 33 35 33 29 26 25 24 21 20 14 12 15 15 17 23 24 24 22 20 18 17 17 17 15 13 12 12 14 16 16 16 14 14 14 13
20 21 21 23 27 31 35 33 33 32 33 31 25 25 24 23 18 16 17 16 10 18 18 20 20 20 19 18 16 16 15 14 13 12 12 12 14 15 15 15 15 15 15
18 21 23 20 18 15 21 32 31 32 32 35 37 34 31 28 26 25 23 22 26 24 19 21 20 19 17 16 14 13 12 12 10 10 11 12 13 14 14 14 14 15 17

GFSGL_850_spd_063.txt.gz
Wind_Speed
42 36 32 29 33 36 35 33 29 23 22 21 18 17 18 17 16 15 15 15 16 18 21 21 19 18 17 15 13 11 10 10 13 14 14 14 14 15 15 16 15 16 16
45 41 37 31 29 34 37 38 35 30 26 25 23 22 20 19 21 20 17 17 17 18 17 18 16 16 17 18 18 16 14 14 15 17 16 15 16 17 19 18 15 17 18
49 46 42 39 34 32 35 39 40 37 33 29 28 27 25 23 22 24 21 18 19 18 18 18 18 15 17 17 18 20 20 19 19 20 22 22 23 21 19 15 17 19 22
49 48 47 44 40 34 32 36 40 42 40 37 33 29 28 27 25 23 22 19 18 20 20 21 20 19 19 18 19 17 17 18 19 22 24 24 23 20 19 20 23 21 21
43 46 48 47 43 38 36 33 35 42 42 43 40 36 32 29 28 29 26 24 22 19 19 21 23 23 21 20 19 19 19 19 20 21 23 23 23 21 20 20 22 23 25
34 39 42 42 46 43 38 38 36 35 41 44 45 44 41 38 34 32 31 29 27 26 24 23 23 23 25 25 23 22 21 21 23 22 23 22 22 20 18 20 24 28 31
27 30 34 38 44 43 40 40 39 38 37 40 45 48 47 45 42 38 37 34 32 30 27 26 25 25 25 25 24 25 25 24 23 23 24 23 22 19 21 23 25 28 29
28 27 30 34 40 40 40 40 39 37 38 40 41 44 48 50 47 45 42 40 41 38 35 32 30 28 26 25 25 25 24 24 24 24 25 23 22 21 22 23 27 30 26
16 24 27 34 38 39 40 41 38 35 35 38 40 42 43 46 48 47 45 43 43 42 40 37 35 32 27 24 24 25 24 25 22 22 23 23 24 24 25 26 26 25 24
10 18 20 33 39 39 38 37 38 34 34 34 36 37 41 42 44 44 44 46 46 46 44 42 38 35 30 26 26 26 27 26 22 22 22 23 24 24 23 24 21 22 24
10 11 20 20 30 36 36 37 34 31 32 35 37 36 34 37 41 42 42 40 45 46 46 44 40 35 32 29 28 29 30 26 25 26 26 26 25 23 20 20 20 23 24
16 8 7 14 25 27 29 30 31 29 35 34 36 40 38 34 34 37 40 41 40 43 45 44 40 36 32 30 30 30 29 28 29 30 30 28 25 21 19 21 21 24 21
19 17 17 14 16 26 28 30 31 33 35 36 39 41 42 38 36 34 34 36 36 39 40 41 40 36 34 34 33 31 29 30 30 31 31 26 24 23 24 24 23 23 20
25 24 20 22 17 16 22 23 25 34 38 39 40 43 43 41 39 37 35 33 33 36 38 37 38 37 35 35 34 32 31 30 30 31 31 28 24 24 24 20 19 17 21
28 27 24 25 21 17 18 20 25 29 35 39 42 42 42 42 41 37 33 33 32 33 35 38 39 40 40 39 37 35 34 32 33 32 30 29 28 22 18 17 16 16 20
34 31 27 26 24 19 17 24 24 27 32 40 42 43 42 39 37 37 35 32 28 25 28 34 39 40 40 40 39 38 37 36 35 33 33 30 26 20 20 19 19 19 19
36 35 32 28 26 23 26 23 31 30 34 40 42 45 44 41 36 34 33 29 25 25 32 33 36 37 39 42 41 39 38 34 32 34 33 32 29 25 25 22 21 21 20
37 32 34 29 24 26 28 27 28 33 40 39 42 41 39 40 36 34 33 31 31 32 35 36 36 35 37 37 35 33 31 29 32 33 34 35 30 28 26 25 23 20 21
34 35 33 32 28 27 29 28 29 37 38 40 39 38 40 39 36 35 34 37 37 35 35 36 37 35 34 32 30 29 28 31 33 31 33 31 32 27 28 24 21 19 21
33 35 32 30 31 30 29 32 33 38 36 40 43 37 34 39 44 41 41 34 39 38 36 35 35 35 33 33 31 31 32 33 33 33 30 33 32 25 24 24 21 18 17
34 34 29 32 34 34 36 35 33 34 34 36 36 35 31 32 37 41 42 41 38 41 38 35 35 34 33 35 33 33 34 32 32 31 31 33 30 31 25 22 17 17 14
34 34 34 33 33 33 34 31 31 31 35 35 34 31 29 29 32 35 36 40 38 39 39 36 33 31 27 25 27 28 29 27 26 25 27 31 29 26 24 20 20 18 14
30 35 36 37 29 31 33 30 29 30 35 38 37 34 30 29 30 29 32 36 37 35 31 29 28 24 23 23 24 24 24 25 26 25 21 22 24 24 22 18 15 13 12
23 28 29 32 32 34 30 30 27 27 33 35 36 33 29 28 27 26 28 26 24 21 22 20 20 21 23 23 24 22 24 22 20 19 19 18 18 17 16 15 15 15 13
18 19 23 26 29 29 32 33 30 27 31 35 35 36 36 35 33 30 28 25 23 25 25 23 23 21 21 23 20 15 17 19 20 19 19 18 17 16 14 15 15 13 12
8 11 14 14 16 25 30 30 26 32 35 35 38 39 40 38 35 30 25 25 25 25 25 23 22 23 22 22 22 23 18 16 16 16 16 15 14 14 14 13 12 11 11

GFSGL_850_spd_066.txt.gz
Wind_Speed
46 38 35 31 27 28 30 29 26 22 19 17 15 15 14 12 11 11 9 11 12 13 15 17 17 15 15 15 14 13 12 13 14 14 14 14 15 16 16 17 18 16 18
47 43 39 33 31 30 30 31 30 28 23 20 19 18 15 14 13 15 13 12 13 14 13 15 16 17 17 17 16 15 15 16 17 19 18 17 17 17 20 19 15 16 19
47 47 44 40 36 33 31 31 32 32 30 26 23 23 21 18 17 15 16 17 15 15 14 15 15 16 16 15 15 15 17 18 19 21 23 22 22 21 19 16 17 18 17
39 44 46 45 42 38 34 31 32 33 35 33 30 28 26 23 21 19 18 18 17 15 15 17 17 17 17 16 17 17 18 18 18 20 22 23 23 21 20 21 20 18 18
32 39 43 44 45 44 42 37 33 33 36 37 36 34 31 29 26 24 22 21 19 18 15 14 16 18 19 20 20 19 18 20 21 22 23 24 24 22 19 19 21 22 22
26 34 38 39 41 42 43 42 39 37 35 38 39 40 38 37 33 29 24 24 24 24 22 20 19 18 18 19 21 23 22 23 24 23 25 26 25 22 20 20 22 24 28
30 31 34 35 37 37 36 39 41 40 38 37 38 41 41 40 39 36 33 30 28 28 27 24 22 21 19 20 21 22 24 25 27 27 28 26 25 23 21 21 21 22 26
25 29 30 34 33 33 34 35 35 37 39 38 38 38 39 41 42 41 40 38 37 35 32 30 29 27 25 23 23 25 26 26 25 25 26 26 25 21 21 23 25 26 25
3 17 26 28 30 29 30 31 32 34 34 35 37 39 40 38 38 39 43 44 43 42 40 36 34 32 29 27 27 28 28 28 26 24 25 24 22 20 21 24 24 24 25
6 7 17 24 31 32 32 31 31 32 32 31 33 34 35 35 35 36 36 41 47 47 45 43 39 36 32 31 31 30 30 30 26 24 24 24 22 23 23 25 25 24 19
12 8 9 18 20 29 33 31 31 32 33 32 31 31 32 30 28 28 32 37 41 43 45 45 43 40 37 35 33 33 33 29 28 27 28 28 27 26 27 24 23 21 20
14 13 10 8 11 22 28 32 32 29 30 31 32 31 30 28 28 27 26 31 35 38 42 41 40 40 38 36 35 35 33 32 32 32 32 33 31 29 25 23 23 23 24
17 14 15 15 14 13 27 27 28 30 31 29 29 29 31 31 28 26 25 25 27 33 36 38 38 37 35 36 36 34 33 34 34 34 34 34 32 28 24 23 22 23 25
24 18 19 18 19 15 16 28 36 35 35 32 34 34 32 30 28 26 25 25 26 28 31 33 35 35 35 35 35 34 35 35 35 34 35 34 32 30 28 25 25 25 24
28 25 21 21 21 21 18 17 23 34 37 34 34 31 30 29 27 22 21 25 26 27 27 31 34 37 38 39 39 38 38 37 37 37 37 36 34 31 30 28 29 27 28
30 29 26 24 23 25 25 24 19 23 27 30 26 28 23 20 22 21 19 20 19 18 24 32 35 36 38 39 40 40 39 39 39 38 38 37 35 33 33 32 30 31 32
32 31 29 27 26 27 27 29 29 23 21 27 28 31 25 22 23 25 23 21 21 19 26 32 34 34 35 37 39 40 40 37 36 36 36 36 36 35 35 33 33 34 35
34 33 33 29 27 28 30 29 31 30 28 24 25 26 22 23 24 26 28 28 28 30 32 34 37 32 33 35 36 39 40 40 39 37 36 32 33 36 38 37 37 39 40
34 36 33 31 29 29 31 32 30 34 33 30 26 27 25 21 21 26 31 35 35 35 33 35 36 36 35 33 33 33 34 33 33 32 31 32 34 37 39 39 40 38 38
34 33 34 35 32 30 32 34 33 32 34 33 31 29 25 25 26 26 31 38 38 38 37 36 36 38 38 33 32 30 29 30 29 29 30 31 32 33 34 33 34 31 26
36 35 35 34 34 32 31 34 34 34 35 33 36 34 32 28 23 25 30 33 39 42 42 39 37 37 37 34 32 32 31 31 29 29 30 31 32 30 30 27 21 22 24
35 37 36 35 35 36 33 32 34 36 35 37 38 36 33 27 20 28 30 32 32 36 40 41 43 39 38 36 34 33 33 34 33 31 30 28 28 27 27 28 28 26 25
31 35 36 36 36 37 37 36 36 37 34 33 34 37 32 28 30 32 32 32 33 35 36 36 37 37 34 35 33 31 29 26 25 22 19 18 22 24 27 26 21 24 26
31 30 32 34 34 35 35 37 36 33 32 34 34 32 32 31 36 36 33 31 31 31 31 31 32 30 30 29 28 27 26 26 25 24 24 24 22 18 18 21 23 22 20
26 27 29 30 30 33 33 32 32 30 30 33 34 33 34 30 38 38 34 31 32 32 32 33 34 29 27 28 29 29 27 27 25 20 15 16 15 15 20 20 20 20 20
17 19 22 24 24 26 28 26 25 24 29 33 33 32 34 32 36 36 34 33 34 31 29 25 24 26 28 28 27 27 27 24 22 21 22 21 19 20 19 19 18 19 17

GFSGL_850_spd_069.txt.gz
Wind_Speed
33 35 36 34 31 27 26 25 24 23 20 18 16 14 13 12 11 10 8 9 10 11 13 15 14 13 12 12 12 11 11 11 9 10 14 14 14 15 16 18 19 19 20
35 32 37 36 35 32 26 26 27 26 25 20 18 16 15 16 15 13 11 10 8 9 10 12 13 15 15 14 14 14 14 14 14 15 15 15 17 17 18 18 18 18 20
35 36 34 42 39 36 30 26 28 31 29 26 23 21 19 18 16 14 13 14 12 11 11 12 12 14 14 13 12 13 12 14 16 18 17 17 19 18 19 19 19 18 17
25 29 32 35 42 40 36 31 28 28 32 32 30 26 24 23 22 19 17 15 14 15 13 14 15 15 15 14 14 14 15 16 16 19 16 15 16 18 19 18 17 16 19
22 25 28 30 33 40 41 38 34 32 30 32 34 33 30 28 27 25 21 19 17 16 16 14 13 15 15 17 18 18 17 17 15 15 16 16 16 14 15 16 18 17 19
26 27 26 31 32 34 36 38 39 38 35 33 35 37 37 36 33 30 26 25 23 22 21 19 18 17 16 15 16 18 19 21 22 19 18 19 20 18 15 16 18 15 14
18 27 29 29 30 31 32 34 36 37 38 38 38 36 38 40 40 37 33 30 28 25 24 23 23 22 20 18 17 17 18 20 22 23 26 26 24 22 21 22 18 17 18
13 16 28 30 28 28 29 31 31 32 34 35 38 39 39 38 40 41 39 38 37 34 32 29 28 26 25 22 21 21 22 22 23 24 27 26 24 22 21 20 22 24 25
8 9 14 21 25 25 27 29 28 30 32 33 35 37 39 40 38 37 39 41 42 42 40 38 36 34 31 28 27 28 28 28 25 25 26 26 24 22 20 22 21 18 21
12 8 8 14 21 24 27 29 30 30 30 30 32 34 35 36 37 37 37 38 42 45 46 45 42 40 36 33 32 31 33 31 28 26 25 25 24 24 22 24 25 22 22
16 14 10 12 16 26 28 27 28 29 28 31 32 32 32 33 33 34 36 39 42 42 43 44 45 42 39 38 36 36 37 32 30 29 29 28 27 27 26 27 27 28 25
19 19 16 12 11 15 21 24 25 26 27 28 31 31 33 35 35 35 35 36 38 41 40 40 43 42 39 37 38 39 37 34 33 31 27 27 27 26 25 26 28 28 30
24 22 21 20 18 14 16 18 25 26 29 30 30 29 31 32 35 36 36 35 34 35 35 37 38 38 37 36 34 34 33 34 36 35 33 32 29 28 30 30 29 29 28
28 28 25 26 24 19 17 16 20 23 28 31 32 32 29 27 31 34 36 36 34 32 31 29 31 34 35 35 35 35 35 36 37 38 36 34 33 32 33 31 30 27 26
33 31 31 28 28 25 22 20 20 21 23 28 28 27 27 29 31 32 32 33 33 32 31 31 32 34 35 34 34 34 34 37 39 40 39 36 35 36 35 32 31 30 26
34 34 34 31 29 28 28 27 25 22 22 23 31 35 31 35 34 31 28 29 26 23 24 31 35 37 37 36 37 34 33 36 39 39 40 38 37 35 34 31 30 28 25
28 30 32 33 32 32 30 29 31 28 27 25 23 27 33 35 33 29 26 24 20 19 29 32 36 36 38 36 36 34 32 30 33 36 37 37 37 36 35 33 26 25 27
31 30 31 32 35 34 32 30 29 32 31 30 26 25 28 33 33 31 31 33 28 28 32 34 36 37 37 35 34 37 38 32 31 34 34 35 35 36 34 34 34 30 28
29 32 34 34 35 36 33 35 30 28 32 34 35 33 29 28 30 29 33 44 40 36 36 36 36 36 36 33 32 34 35 35 36 36 36 35 35 35 36 34 31 31 34
33 31 32 35 36 37 37 35 34 34 33 35 38 38 31 31 27 31 33 41 48 43 37 37 38 36 35 34 31 30 32 32 33 34 34 33 33 33 33 32 31 30 29
33 32 31 34 34 34 35 36 36 34 33 34 37 38 35 33 29 26 30 31 39 42 41 38 39 38 36 35 33 34 35 33 34 35 34 34 34 33 30 31 30 27 22
31 32 33 35 36 36 35 35 34 33 32 31 34 37 37 36 33 31 32 33 34 35 38 38 38 40 37 37 35 34 34 35 36 36 37 38 37 35 33 31 30 29 28
30 33 32 33 33 34 35 35 35 34 34 33 33 37 36 34 31 31 33 32 36 35 36 33 35 40 36 38 37 37 37 39 39 37 37 38 37 35 33 32 31 27 26
26 32 33 34 32 33 33 33 32 32 33 34 30 28 32 33 31 32 31 31 32 33 32 32 34 35 31 34 37 34 36 37 37 36 33 30 27 26 24 23 23 25 26
24 27 31 31 32 33 33 33 34 36 35 37 38 35 36 34 33 32 30 28 30 29 30 27 27 27 28 31 32 33 34 32 29 30 30 31 31 27 25 24 23 23 23
14 18 22 26 29 31 33 34 34 32 31 31 32 33 33 33 33 33 30 30 29 28 29 28 26 25 27 28 28 32 33 34 30 33 32 30 26 25 25 25 24 21 19

GFSGL_850_spd_072.txt.gz
Wind_Speed
24 23 22 24 26 23 22 20 19 17 16 17 17 15 14 13 12 12 11 11 10 11 12 12 12 13 9 9 8 7 7 7 8 8 8 9 13 11 13 16 14 14 13
22 23 25 25 24 22 24 23 20 20 18 18 17 18 17 15 15 14 13 11 11 11 11 12 13 12 16 14 11 11 10 10 10 12 12 11 12 13 14 16 14 12 15
19 21 26 26 26 26 25 25 24 22 22 19 18 18 17 17 17 17 15 14 13 12 11 12 12 13 15 13 13 12 10 10 11 12 13 12 12 13 13 13 15 14 13
19 18 20 26 28 24 26 28 27 26 24 25 23 20 20 18 18 18 17 16 15 15 15 14 14 14 14 13 13 13 12 13 13 14 14 13 13 12 13 13 15 14 15
11 16 18 19 20 23 24 27 30 29 28 26 27 26 24 20 20 21 20 19 18 17 16 17 15 16 17 16 14 14 14 14 13 15 15 14 14 13 13 15 16 16 16
8 14 16 19 18 20 22 26 29 31 33 32 29 28 28 27 26 27 25 20 20 19 18 19 18 18 16 16 17 18 20 19 18 18 17 18 19 17 15 15 16 17 18
4 7 15 20 19 19 20 21 26 32 33 35 36 33 33 32 32 33 33 28 23 22 22 22 21 21 22 21 20 20 20 20 22 22 23 22 22 19 18 17 17 18 17
4 1 6 11 16 17 20 22 23 25 27 31 34 37 38 37 34 33 36 37 35 31 27 25 25 26 25 24 22 21 22 21 23 24 27 26 25 23 21 18 19 20 18
11 6 6 3 9 12 19 24 25 25 26 27 29 32 36 38 37 36 35 36 38 42 40 38 34 31 31 31 28 25 24 24 22 26 26 27 27 24 24 22 21 19 21
13 12 10 9 9 11 19 26 28 28 29 26 26 29 31 36 37 37 37 37 33 34 39 42 45 44 40 38 37 35 35 32 26 24 25 29 29 28 26 26 26 23 22
18 16 15 14 9 9 13 20 25 27 28 27 29 27 29 31 37 40 39 39 38 34 34 35 36 39 42 43 43 42 42 36 29 28 27 27 26 25 23 24 29 29 25
22 23 20 18 16 15 18 18 17 23 28 29 30 28 28 30 33 38 39 40 41 37 38 34 34 36 39 39 39 41 41 40 35 31 31 30 28 26 25 25 27 30 26
25 25 27 24 23 21 20 20 19 16 22 28 30 27 28 27 29 33 39 40 40 40 39 35 35 36 36 37 39 39 35 36 37 35 35 33 30 28 28 28 28 28 30
27 27 27 30 30 28 23 20 21 18 18 20 24 32 29 27 27 28 29 34 37 39 41 41 39 39 36 34 35 38 38 38 35 32 33 32 30 28 28 26 27 26 25
27 27 26 26 32 31 27 23 22 25 20 19 23 23 28 30 30 29 29 27 23 31 38 39 37 35 34 33 31 31 28 31 39 35 31 31 30 29 29 27 28 27 27
28 27 25 25 26 26 27 27 26 31 31 26 28 28 29 27 28 29 31 35 29 27 28 30 32 32 33 31 30 30 29 31 29 27 29 30 31 30 30 28 28 29 29
28 27 27 26 26 27 28 27 28 28 30 35 32 30 28 25 30 36 36 36 33 29 32 33 30 33 33 31 31 31 32 29 28 29 30 29 29 30 30 31 30 30 31
28 30 29 28 32 28 29 30 28 28 27 28 26 26 24 26 27 25 28 36 38 31 32 34 35 31 32 33 31 31 29 27 28 29 29 28 28 28 29 30 30 31 32
30 30 27 26 27 31 30 31 32 32 31 29 26 27 27 26 27 28 26 29 34 36 37 36 40 37 34 35 34 32 31 31 30 30 30 30 28 27 28 29 30 32 32
32 30 30 29 30 31 30 32 34 34 34 32 31 29 23 23 27 24 26 26 32 37 36 35 36 33 40 40 35 34 34 35 36 35 34 31 35 35 31 30 29 30 31
31 32 31 30 29 31 31 34 35 34 36 34 34 30 27 27 25 24 27 25 29 35 36 36 36 40 39 35 36 37 38 36 37 37 37 35 33 36 36 36 36 35 34
33 32 32 35 34 35 36 37 37 34 34 36 36 32 29 32 31 28 26 28 29 30 30 27 29 28 29 32 35 37 35 37 37 35 35 36 36 34 35 36 35 35 35
31 33 34 36 37 36 37 38 39 40 36 33 34 33 31 33 31 27 27 25 29 30 30 30 35 41 38 38 35 42 45 43 41 41 42 39 38 36 35 36 35 37 34
26 29 33 35 36 36 34 35 36 38 39 33 32 33 33 34 30 29 33 32 32 34 35 32 34 36 39 41 41 44 46 44 41 41 42 41 38 37 38 34 35 33 32
24 25 27 30 33 36 37 37 38 38 37 35 37 34 31 35 35 32 29 32 33 32 34 34 36 34 35 37 40 44 43 40 41 37 37 38 35 35 32 28 24 23 26
19 21 20 21 24 30 34 37 40 40 40 41 42 40 39 39 40 41 38 36 34 32 34 34 34 31 30 31 32 33 31 33 30 28 28 29 31 34 35 35 35 34 31

GFSGL_850_spd_075.txt.gz
Wind_Speed
19 18 17 17 18 17 17 16 16 15 11 12 7 11 10 10 11 11 13 9 11 14 15 10 12 15 8 9 9 9 8 8 10 10 7 8 11 16 13 15 13 13 15
21 19 18 17 17 18 18 18 16 17 16 15 16 14 14 13 13 13 13 11 11 12 13 14 14 13 16 15 9 11 10 11 10 14 13 14 13 15 17 19 13 11 12
23 21 19 18 18 19 20 18 19 17 17 16 16 16 16 16 15 17 16 14 13 13 13 14 14 15 17 14 14 14 13 11 11 11 13 13 13 14 14 14 14 13 13
10 19 20 18 18 18 19 20 19 20 18 18 19 19 17 16 16 16 17 17 15 15 15 15 15 15 17 17 19 17 17 17 13 15 15 14 13 13 14 13 13 12 14
12 9 12 15 17 20 19 20 21 21 21 20 19 21 21 19 18 19 19 18 17 17 17 18 17 18 19 19 16 16 15 15 14 14 15 14 14 13 12 12 16 15 16
8 11 3 9 16 15 17 20 22 23 24 24 23 23 24 23 23 23 23 22 22 21 21 19 20 21 23 22 22 21 19 19 22 18 16 16 19 18 16 15 16 16 20
4 8 11 16 16 17 17 20 20 24 24 26 27 26 27 29 26 29 30 28 25 24 24 25 22 20 24 23 21 21 21 24 26 25 25 24 23 22 23 24 18 19 20
5 3 5 9 12 16 21 20 23 22 23 26 29 30 31 31 32 30 33 36 34 33 29 25 27 28 26 24 26 23 25 26 27 27 28 27 26 25 23 22 22 23 20
11 9 10 4 7 11 17 18 20 23 26 28 27 29 32 34 34 34 34 35 35 38 39 38 36 32 32 30 28 28 28 28 24 27 27 27 26 25 24 24 23 22 24
15 12 10 10 16 15 15 14 13 21 22 23 24 28 31 34 35 36 38 37 34 38 37 40 41 43 43 41 38 36 39 38 30 28 28 28 29 30 29 27 29 27 24
14 15 15 14 13 12 17 19 20 16 21 25 25 29 32 33 33 36 37 37 39 35 36 35 35 36 37 40 44 44 46 40 35 33 34 33 32 30 29 26 26 24 26
18 19 18 18 18 18 19 19 20 19 21 21 26 26 31 31 35 34 37 37 41 39 39 35 33 33 35 35 35 36 36 37 40 39 36 35 33 31 27 27 30 32 31
20 22 23 22 22 23 23 23 20 19 21 22 22 23 30 31 32 29 33 37 38 40 42 40 36 37 35 32 33 35 35 35 37 40 40 40 37 36 33 32 31 30 31
23 25 25 25 25 24 25 25 23 19 19 18 21 15 24 27 31 29 30 35 34 31 36 42 43 42 41 36 34 36 40 42 44 44 41 41 38 36 35 33 33 32 31
24 25 26 25 26 26 25 25 23 25 20 19 20 21 21 22 20 29 31 27 28 33 28 32 37 40 44 44 39 37 36 33 35 40 40 36 33 33 35 34 34 32 32
25 25 24 24 25 25 25 26 27 29 33 32 32 29 31 34 33 28 33 31 34 33 32 24 25 29 31 29 30 31 32 34 35 32 30 32 36 34 34 33 33 33 33
24 26 27 26 26 26 28 27 28 27 30 31 35 36 33 37 34 33 29 33 33 31 31 34 31 27 29 31 30 30 31 29 31 31 33 31 30 30 32 34 33 32 33
25 27 29 32 29 29 29 30 30 30 30 29 26 26 25 26 30 34 28 26 27 36 41 40 33 34 36 31 31 31 30 29 27 29 29 30 31 31 30 30 31 33 34
25 26 28 31 31 30 30 29 31 32 33 33 30 29 29 25 27 27 30 29 31 27 29 36 44 40 34 35 33 30 34 37 36 28 27 30 31 30 31 31 31 31 32
26 26 27 29 35 35 32 31 33 33 35 36 35 33 27 24 27 28 30 30 26 31 28 30 36 35 40 35 35 34 31 33 36 37 39 38 36 37 37 35 34 31 30
32 32 28 31 34 33 36 37 33 33 35 36 36 34 30 30 28 28 26 27 30 32 32 25 30 32 30 34 33 31 33 30 32 34 34 35 37 36 35 35 37 36 40
29 29 28 30 33 33 36 37 39 35 36 36 35 34 35 36 36 34 34 34 36 31 33 30 29 30 31 30 31 30 29 28 27 28 29 31 32 33 32 34 36 38 38
27 29 29 32 33 35 37 38 40 40 40 35 37 38 35 35 33 36 36 35 32 32 32 31 29 31 37 34 33 33 32 30 30 28 28 30 33 34 38 38 37 38 40
23 24 27 30 32 30 34 36 38 40 40 38 36 37 40 39 37 36 36 34 36 37 37 39 34 34 32 34 45 47 45 39 36 36 38 40 39 38 35 38 38 40 40
26 28 26 28 26 29 31 34 37 43 40 38 38 39 38 37 38 36 36 38 36 37 41 41 38 37 35 35 36 40 40 40 41 41 42 41 38 37 37 36 39 40 39
30 26 27 27 26 29 30 33 37 40 40 38 38 43 45 38 41 40 34 37 43 40 39 39 37 36 35 35 36 37 38 39 38 36 34 35 34 35 34 32 31 32 34

GFSGL_850_spd_078.txt.gz
Wind_Speed
23 23 21 18 18 19 21 20 18 15 17 4 13 10 11 11 9 12 15 14 13 13 14 10 14 14 11 6 12 10 10 9 12 13 12 6 12 16 17 18 17 11 13
21 25 22 21 16 16 18 20 16 18 21 13 11 9 12 10 12 11 10 9 9 7 17 18 12 13 18 15 12 10 9 13 13 18 18 19 18 11 17 19 15 11 10
19 26 25 23 22 21 18 15 17 16 14 17 20 19 18 18 16 15 14 14 13 11 11 12 13 16 17 19 18 15 13 12 17 15 16 12 16 15 14 14 18 12 13
7 11 28 28 24 22 20 19 16 18 18 16 16 18 15 17 17 18 16 16 16 14 14 13 14 14 15 16 17 20 19 21 18 15 18 19 13 12 15 18 15 12 12
9 16 20 10 23 18 19 20 19 19 19 20 18 21 21 18 16 15 15 14 15 18 18 17 16 18 19 18 19 17 16 18 17 16 17 18 19 17 12 14 16 17 16
3 3 8 17 21 9 15 22 23 23 23 22 22 21 23 25 19 20 18 18 18 18 18 19 18 21 20 21 22 21 23 21 22 23 23 22 20 18 17 17 19 21 28
8 5 8 11 12 19 16 17 21 24 23 24 24 25 25 25 24 23 24 24 25 24 24 24 22 19 19 24 22 19 19 23 28 27 29 28 26 23 24 25 25 25 25
4 5 3 2 10 22 20 19 20 22 22 26 26 26 28 29 28 27 27 30 31 32 31 26 24 25 23 25 20 26 26 25 25 26 29 27 23 21 20 21 22 23 24
10 7 6 7 7 9 12 19 21 20 22 24 25 28 32 31 31 31 29 31 35 37 37 35 35 35 34 30 28 32 28 30 30 28 22 25 25 23 22 23 25 26 31
10 9 8 8 8 10 13 13 12 16 19 21 25 27 31 33 34 34 34 35 35 38 39 40 39 38 37 40 35 38 39 39 37 34 30 30 29 28 27 26 27 29 29
13 14 13 13 12 11 12 14 20 20 19 22 26 27 28 29 30 32 35 34 37 39 40 38 37 37 35 33 34 41 47 45 43 41 40 40 37 36 35 30 27 29 31
16 17 18 18 17 16 16 15 16 17 19 24 26 27 27 30 31 34 36 36 35 36 39 40 35 30 36 33 29 31 31 30 32 37 38 37 35 33 29 30 30 31 32
18 20 22 23 23 21 20 20 20 19 19 19 22 26 29 28 27 31 31 34 35 36 39 40 39 40 36 29 30 33 36 36 34 38 39 41 40 40 40 38 37 34 37
18 19 20 23 25 24 23 22 20 23 22 20 19 24 24 27 26 25 21 25 31 37 40 39 37 36 36 43 47 46 43 38 37 41 43 44 44 42 42 40 39 40 38
19 20 21 19 19 21 20 22 23 23 26 28 27 26 24 21 21 21 19 21 29 28 33 31 37 38 38 38 43 46 47 45 44 44 43 43 41 39 38 34 33 35 35
20 20 20 23 22 24 25 30 28 28 28 26 30 32 36 38 37 33 28 27 27 26 25 28 28 27 30 33 33 33 37 42 43 39 37 33 32 31 27 30 29 31 33
20 21 22 24 24 25 28 28 32 32 25 31 25 27 31 32 33 30 24 23 26 27 29 32 37 41 45 37 31 31 30 31 29 31 33 35 34 31 28 24 22 31 30
24 24 23 23 25 27 27 28 29 30 32 32 34 28 27 28 29 29 25 25 28 32 31 34 38 46 47 40 37 34 29 30 32 34 35 37 32 30 28 27 27 28 30
25 25 25 25 25 29 31 34 36 35 38 36 28 30 31 33 31 29 31 28 28 29 32 33 33 35 37 39 41 39 38 37 33 30 24 28 29 28 30 32 32 31 29
25 25 26 30 30 28 30 32 33 35 35 32 36 36 30 30 30 30 28 27 28 28 30 33 35 35 32 35 32 38 40 39 44 40 42 39 39 37 33 31 32 31 29
26 26 27 29 31 32 30 34 37 38 37 36 39 31 30 31 30 33 32 31 22 23 26 29 30 27 28 32 36 33 33 39 38 38 38 38 40 39 38 37 35 35 30
24 26 28 30 32 33 33 34 38 39 41 41 41 45 40 37 34 31 31 35 41 34 27 30 33 33 32 33 31 33 34 35 36 35 35 34 29 25 27 28 27 27 26
25 28 27 27 28 30 32 34 36 36 39 40 42 43 43 40 38 36 32 29 32 37 45 39 37 38 37 33 32 34 31 31 32 35 29 24 28 29 30 26 27 28 28
29 30 31 32 31 31 30 29 30 36 39 36 36 38 39 39 41 41 41 41 28 32 34 35 38 40 37 38 40 36 36 37 37 32 28 29 28 35 34 32 32 33 30
29 33 33 34 32 30 32 31 29 34 35 33 37 41 44 38 36 40 38 30 31 31 36 42 40 38 39 40 42 40 41 38 37 38 36 44 44 47 49 46 39 37 33
28 34 31 33 35 32 30 30 30 30 31 32 34 39 45 45 44 42 40 41 38 36 35 38 38 37 36 37 39 39 38 39 36 36 37 42 42 36 37 37 37 36 35

GFSGL_850_spd_084.txt.gz
Wind_Speed
21 22 26 27 24 19 20 18 17 15 14 12 15 12 14 16 15 12 10 13 17 19 16 17 16 15 13 10 8 6 6 7 6 5 7 8 12 15 17 17 15 8 9
22 21 20 20 21 21 22 21 18 16 15 13 10 15 14 17 16 15 12 13 13 11 16 17 16 13 13 13 13 13 11 9 12 15 15 15 16 17 16 16 11 12 15
20 23 24 23 23 22 22 24 23 20 20 19 17 14 15 16 17 15 12 11 16 16 15 16 17 17 17 16 16 18 16 16 15 17 18 18 20 17 16 17 15 15 13
22 13 18 23 25 23 23 23 23 23 20 20 20 19 18 16 18 17 16 14 15 18 17 15 15 19 20 19 18 17 21 22 23 23 24 25 25 23 22 17 15 14 15
21 19 22 11 18 26 26 25 23 23 24 24 22 18 18 19 18 19 20 19 18 18 18 18 17 15 16 16 14 11 11 14 18 21 23 24 24 23 20 20 23 26 25
16 19 18 21 16 23 24 26 22 22 23 21 23 22 21 21 20 20 20 21 19 16 16 19 19 20 20 18 17 17 17 18 16 16 17 19 20 20 20 23 25 26 27
15 16 12 16 16 13 23 21 25 21 19 20 24 23 23 24 22 22 21 21 21 20 20 19 18 19 20 20 22 22 22 21 21 21 22 21 21 19 19 21 19 19 23
10 10 13 15 8 11 20 20 23 24 19 22 25 27 26 25 24 24 23 24 26 27 25 25 27 25 23 22 21 23 25 25 23 23 24 25 24 21 20 19 20 24 27
8 7 7 7 13 16 18 19 22 24 26 22 25 26 29 28 26 24 27 29 28 30 31 32 31 31 30 28 29 31 31 31 29 29 30 30 29 29 28 28 27 28 31
4 3 3 4 5 9 12 10 12 15 18 21 24 26 27 29 26 27 28 28 30 31 30 31 32 35 38 36 36 36 38 38 35 34 35 36 35 34 32 32 30 33 34
6 7 7 7 8 9 9 11 11 10 11 13 20 18 19 19 19 19 19 25 28 30 30 30 32 33 35 36 36 38 41 40 40 39 37 37 35 34 32 32 32 33 36
9 10 10 10 11 12 12 12 12 11 10 8 8 8 8 7 10 13 13 19 21 25 28 29 30 30 31 32 33 33 33 32 34 36 38 37 34 31 29 29 29 30 31
6 7 7 6 8 10 11 11 11 12 13 13 13 12 10 11 8 6 8 12 14 19 21 24 30 32 33 35 35 35 34 33 37 38 38 40 41 41 40 41 38 36 36
8 7 8 8 7 7 8 10 11 12 14 15 16 18 19 17 16 16 17 16 14 17 20 25 28 31 32 33 35 37 38 40 41 42 46 46 44 43 41 40 40 40 41
9 8 8 9 9 10 10 11 11 11 14 17 19 22 25 26 23 23 23 25 25 25 28 28 30 32 34 34 33 35 35 37 41 43 44 43 43 45 49 49 48 44 43
10 10 10 10 11 12 13 13 13 15 16 16 18 22 25 30 34 32 30 30 31 32 34 35 35 34 34 34 33 32 31 32 33 35 37 37 37 38 41 41 41 40 40
11 11 11 12 13 15 17 20 22 17 20 20 21 23 23 26 28 34 36 37 35 36 37 38 37 36 36 34 34 33 35 34 32 34 36 38 36 37 37 36 35 34 35
11 11 12 14 16 18 19 21 24 27 28 26 25 27 28 29 27 27 31 36 37 38 38 39 39 38 37 36 35 35 35 34 31 30 30 34 38 39 41 38 36 34 32
12 12 13 14 16 19 21 23 26 28 31 34 34 31 30 31 32 29 28 29 32 34 35 38 40 40 37 37 38 36 35 34 32 30 29 29 30 34 37 40 36 31 31
12 13 15 17 19 22 24 26 28 30 33 36 37 38 38 37 36 36 34 32 34 36 35 31 33 36 31 28 30 30 32 30 29 28 29 30 29 31 31 32 37 37 41
12 12 13 16 19 23 25 27 29 31 33 34 36 36 35 36 39 40 39 38 36 37 38 38 36 33 30 30 31 34 29 29 31 32 30 31 29 26 30 31 29 31 33
11 13 14 18 21 25 29 31 29 30 31 34 36 37 36 36 36 35 35 36 35 38 38 41 46 43 36 32 32 35 36 33 29 31 31 28 27 26 28 24 25 25 29
12 17 16 17 20 23 28 33 33 31 31 32 34 36 38 37 37 37 38 38 33 38 40 39 42 48 47 43 37 33 33 31 30 30 32 31 31 28 24 25 23 22 23
14 18 17 18 22 25 28 32 34 34 33 32 33 35 36 38 37 38 41 42 41 44 35 36 47 43 44 47 44 38 34 33 33 33 34 36 32 32 26 25 26 27 28
16 19 19 20 22 24 27 30 33 33 32 32 31 34 35 36 39 39 39 40 42 44 42 44 47 46 45 36 37 37 33 29 30 32 33 33 30 33 32 29 28 27 28
15 19 18 19 21 24 26 30 32 33 33 32 33 33 32 34 36 37 36 38 39 40 43 41 46 48 51 50 40 40 40 39 36 31 31 37 32 26 28 29 28 28 28

GFSGL_850_spd_087.txt.gz
Wind_Speed
22 20 22 26 24 20 18 16 16 13 14 12 11 15 15 15 14 15 12 13 17 16 18 18 19 17 16 12 9 9 8 9 9 9 9 10 10 12 14 18 20 17 11
20 19 21 22 26 25 20 18 19 17 16 14 13 11 13 11 15 17 14 11 12 14 16 19 18 17 18 17 14 13 13 13 14 15 15 16 17 17 19 18 17 13 14
20 19 22 20 19 18 19 18 19 20 17 15 13 12 11 13 14 16 15 13 13 14 14 15 18 19 20 17 15 15 17 18 19 20 20 21 23 23 23 24 20 14 10
24 18 21 19 19 20 21 21 19 21 21 19 18 17 16 15 16 17 18 15 15 15 16 17 16 17 17 17 18 18 18 18 19 21 24 26 29 28 27 24 22 17 18
12 19 23 12 8 9 20 23 22 23 23 24 20 18 17 16 18 19 19 18 17 18 17 17 19 18 16 16 18 18 17 16 14 16 19 21 22 21 19 19 21 22 22
11 7 15 23 23 16 11 12 21 23 19 23 21 22 19 19 17 17 18 20 19 19 19 18 16 17 18 18 18 18 19 20 21 21 20 21 21 20 18 19 22 24 27
8 8 10 14 16 19 20 15 17 20 17 16 18 20 22 21 19 21 20 21 21 21 20 19 17 17 17 17 18 20 22 24 23 25 25 24 25 22 22 23 22 23 24
15 14 12 11 14 20 20 19 21 22 21 23 21 17 22 21 22 22 23 24 24 24 24 24 24 22 22 22 22 23 23 23 23 25 28 27 27 26 26 26 27 30 31
8 7 7 9 13 14 11 17 15 20 18 19 24 25 21 21 24 25 24 25 27 28 26 27 29 29 28 26 27 28 30 31 28 28 30 31 32 32 31 33 33 33 37
5 4 4 4 6 10 14 11 12 12 18 17 22 23 24 22 20 24 25 26 29 28 27 27 27 28 29 30 31 32 35 36 35 35 36 37 36 36 34 34 34 36 37
3 5 6 6 7 8 9 10 10 13 13 14 15 13 13 14 14 19 14 19 24 27 26 26 25 25 28 30 30 32 35 33 34 35 37 38 37 36 33 31 30 31 33
9 10 10 10 11 11 11 11 12 12 13 14 15 13 12 10 7 10 11 12 16 20 22 21 22 23 27 29 30 31 32 32 33 34 36 38 38 38 36 35 34 32 34
8 8 7 8 9 9 10 11 12 13 13 14 16 17 16 14 16 15 15 16 16 16 17 23 25 25 25 26 25 28 30 32 34 36 38 40 40 40 39 38 38 39 39
7 8 8 7 7 8 8 8 8 10 12 13 15 18 19 18 18 20 21 21 22 22 24 24 24 26 27 30 31 31 29 27 28 33 37 39 41 43 43 40 39 40 43
5 5 6 6 6 6 7 7 7 9 11 12 13 16 19 20 21 24 27 28 28 27 30 30 30 30 31 31 31 32 31 30 30 29 28 30 31 34 38 40 40 37 37
4 4 5 5 5 6 7 6 7 9 10 11 13 16 16 19 23 25 27 30 31 34 36 36 36 35 36 35 34 34 32 31 30 30 30 31 30 30 31 29 29 33 35
3 3 3 3 4 5 6 7 7 6 9 10 13 14 17 19 20 22 25 28 29 32 35 37 39 40 39 38 37 36 36 34 32 31 31 30 29 30 29 31 35 38 38
4 5 5 5 6 8 9 11 13 15 15 14 14 17 19 21 24 27 28 26 27 28 30 33 37 39 41 41 40 38 38 38 35 33 31 30 29 28 29 30 32 32 34
3 4 6 7 9 11 13 14 16 18 20 22 23 22 23 24 25 27 29 31 32 30 28 31 33 36 37 37 36 35 35 36 34 33 33 31 30 30 31 31 31 31 31
3 5 6 7 10 12 15 18 20 23 25 27 29 31 33 35 35 33 32 33 33 35 35 34 31 32 36 38 38 36 34 32 32 31 29 29 29 27 29 30 29 29 32
5 6 7 9 12 14 17 20 23 26 29 31 32 33 35 37 38 38 37 35 35 36 35 34 35 38 36 35 40 42 38 35 32 33 35 35 31 30 30 29 29 32 31
4 5 7 8 11 14 17 20 23 26 29 32 33 33 34 35 37 40 40 41 41 39 38 38 40 39 37 38 39 40 43 42 37 33 33 32 30 31 33 30 27 25 24
5 6 8 9 11 15 18 21 24 25 29 32 34 36 36 36 37 38 41 42 44 45 44 43 42 41 42 39 36 39 38 35 37 35 34 37 40 35 33 32 29 30 27
5 5 8 11 12 14 17 20 24 25 27 30 32 33 33 35 37 38 40 41 43 44 44 45 45 45 43 42 47 39 35 39 33 36 37 35 37 41 36 35 35 34 31
6 7 10 12 13 14 16 18 21 25 28 29 30 31 32 33 35 36 38 39 41 41 42 43 45 44 45 45 41 40 47 46 42 36 33 35 33 28 36 33 30 34 32
9 10 11 11 12 13 16 18 21 24 29 30 31 32 33 35 36 36 38 39 41 42 43 44 46 46 46 45 42 42 46 44 45 47 37 38 43 39 32 31 39 35 32

GFSGL_850_spd_090.txt.gz
Wind_Speed
23 23 18 18 19 19 16 12 11 9 12 15 11 12 13 12 13 13 13 13 16 15 15 15 16 15 15 14 12 11 10 10 10 11 11 12 14 15 16 18 20 21 17
23 20 20 20 19 21 19 14 13 12 11 10 12 12 10 12 11 12 12 13 12 11 13 15 15 15 15 16 18 16 14 14 16 18 19 19 19 19 21 22 22 21 18
27 25 21 21 20 18 19 20 18 17 17 15 13 12 9 7 11 10 13 13 14 12 11 11 10 13 16 18 18 18 16 16 17 20 21 23 23 23 25 25 23 20 19
19 19 18 10 11 13 13 15 16 16 17 17 15 13 13 11 11 12 14 15 14 13 10 11 12 13 15 15 17 18 16 16 17 18 20 19 20 20 21 21 20 18 19
13 17 22 20 7 4 11 14 14 14 16 17 17 16 13 12 11 13 14 16 17 16 14 14 14 13 15 17 16 15 16 18 18 20 20 21 22 20 19 20 22 22 20
14 11 15 16 20 16 9 5 6 11 13 14 16 17 20 18 16 15 15 16 17 17 17 16 16 15 15 15 16 17 17 18 19 21 23 23 23 21 23 22 23 25 27
12 10 9 11 17 18 19 15 10 9 10 11 11 10 14 16 18 19 18 18 18 18 18 17 16 16 15 15 16 17 18 18 19 21 24 24 26 23 24 26 26 27 28
10 10 11 12 15 15 15 17 14 15 16 13 15 13 14 12 16 18 19 19 20 20 20 20 20 19 20 20 21 22 22 22 22 22 24 25 26 25 27 29 30 32 34
11 10 9 9 9 8 8 9 14 14 13 19 22 17 14 18 17 16 18 20 21 22 22 22 23 23 23 23 25 27 28 27 26 27 28 29 29 29 30 32 33 34 37
6 4 3 4 6 9 9 9 8 8 9 9 11 17 22 21 20 21 20 19 20 23 25 24 23 24 24 25 27 28 31 30 30 31 32 32 32 33 32 32 32 33 33
2 2 4 5 5 5 6 7 8 9 8 7 6 7 11 19 23 23 21 21 21 20 21 24 24 27 28 26 27 28 28 30 30 30 32 34 35 35 34 33 32 31 33
7 8 8 9 10 9 9 8 8 8 8 9 8 7 8 10 13 13 13 16 16 17 17 17 19 22 22 23 23 26 26 25 26 28 30 34 35 36 35 34 33 33 33
8 8 8 8 8 9 9 10 10 9 9 11 11 12 11 12 15 17 18 18 20 21 21 19 19 19 20 22 23 24 24 25 24 25 26 28 28 30 31 32 34 35 36
8 8 8 9 8 8 8 8 8 8 9 8 9 10 11 12 14 17 18 20 22 24 25 24 25 25 25 25 25 24 24 24 25 27 27 29 28 29 30 30 29 29 31
6 7 7 6 7 8 8 7 8 9 9 9 10 10 12 13 14 16 18 19 21 22 25 25 28 31 31 30 29 28 27 27 27 28 28 27 28 27 29 28 28 28 27
5 6 6 6 6 6 6 6 7 8 10 11 12 13 12 15 17 20 21 23 24 25 26 27 27 27 29 30 32 33 33 32 29 28 29 29 29 29 30 28 27 28 30
3 4 4 3 3 3 3 2 2 4 6 8 9 11 13 15 16 17 19 21 23 24 25 26 28 29 30 31 31 32 33 33 33 33 33 32 31 31 30 30 29 29 30
2 2 2 2 3 3 4 5 5 4 4 5 7 10 12 15 17 19 21 22 21 20 22 24 26 27 29 32 32 32 34 35 33 30 30 32 33 32 32 30 30 31 31
3 3 2 2 3 4 5 7 8 9 10 11 11 12 14 15 17 19 21 23 24 26 26 26 27 27 28 30 32 32 34 35 35 35 33 31 30 30 29 30 32 33 31
5 3 1 1 3 4 6 7 8 10 12 15 18 20 23 24 25 27 29 29 28 27 27 29 30 31 33 34 33 33 35 35 38 39 38 36 34 34 37 35 36 35 36
5 4 3 3 3 4 7 10 12 14 16 18 20 22 24 26 28 29 30 31 32 33 33 34 33 32 33 35 35 35 33 34 36 38 38 36 36 37 34 36 34 35 37
7 5 3 3 2 4 6 9 12 14 16 18 20 23 25 27 29 30 31 32 33 34 35 36 37 35 35 34 33 36 38 37 36 33 32 33 33 36 37 40 39 38 29
9 7 5 3 4 5 7 9 11 14 17 19 20 22 24 27 28 29 31 32 33 34 35 37 38 40 39 37 38 37 37 38 39 39 32 33 40 39 43 41 39 44 42
11 9 7 5 5 7 9 10 13 15 18 21 23 24 24 27 29 30 32 33 35 36 38 39 40 41 42 42 42 40 40 41 39 39 40 42 37 34 38 37 37 39 40
14 10 7 6 6 7 9 11 14 16 18 21 24 27 27 27 30 31 32 34 36 38 39 39 40 42 43 43 43 43 43 43 41 38 42 47 51 49 45 39 36 41 38
16 12 8 8 8 9 10 12 14 17 19 21 24 27 29 28 29 30 31 33 35 37 38 39 40 40 41 42 43 43 43 44 42 39 39 40 47 53 54 52 41 32 42

GFSGL_850_spd_093.txt.gz
Wind_Speed
24 24 23 18 16 15 15 12 9 8 9 11 12 11 13 12 12 12 10 12 14 14 14 14 14 14 13 13 12 11 12 10 8 9 13 14 15 17 19 20 21 21 17
22 26 24 22 19 17 18 16 13 11 9 7 8 11 11 12 13 13 12 11 12 11 11 13 14 14 15 15 14 15 14 16 14 16 15 17 20 20 22 22 23 19 18
18 22 25 19 20 19 17 18 17 14 14 12 10 10 10 8 10 11 9 11 12 12 13 12 12 13 13 15 15 16 16 18 18 16 15 20 22 21 23 22 20 18 16
22 18 23 27 21 19 16 14 16 16 15 13 14 13 10 10 9 9 10 11 13 12 12 12 11 11 12 12 13 15 16 18 17 17 14 15 17 19 20 17 16 15 17
15 14 14 20 17 13 12 12 12 12 13 12 12 14 14 12 13 13 12 12 13 13 14 14 14 14 12 14 16 16 16 15 14 15 16 17 16 15 15 16 17 17 18
13 13 14 18 19 12 9 8 10 12 13 11 9 11 14 16 16 15 14 14 15 16 15 15 16 16 17 16 16 16 16 17 17 16 17 18 20 18 16 16 17 18 21
18 16 16 16 17 19 18 9 7 5 6 7 8 7 8 13 16 16 16 16 16 15 16 16 16 15 16 17 16 14 17 17 18 18 21 21 21 21 21 21 19 21 23
16 13 11 9 10 12 13 15 18 14 10 8 7 9 9 10 10 11 15 16 17 18 18 17 18 18 18 19 20 21 21 20 21 22 24 25 25 25 26 24 27 30 31
13 11 9 8 7 9 10 11 11 11 9 9 13 13 13 14 12 13 10 11 14 17 19 18 19 20 23 23 24 25 24 25 23 25 27 29 29 29 29 30 29 23 27
11 9 7 5 5 6 7 6 5 5 6 7 6 9 12 14 17 19 17 15 12 13 16 18 23 24 25 24 24 25 25 22 24 25 27 29 29 30 29 30 30 26 27
6 5 4 3 3 4 5 5 6 7 6 6 6 7 8 9 13 17 19 22 21 17 14 16 18 22 24 25 25 25 25 28 28 27 28 25 22 22 22 22 27 28 24
3 3 4 5 5 5 5 6 6 6 7 8 9 9 10 11 11 12 12 14 17 17 15 14 14 16 17 19 19 20 21 21 22 22 23 22 21 20 18 19 23 25 27
4 5 6 6 6 7 7 7 8 9 9 10 11 11 12 13 15 14 16 16 19 19 20 19 21 21 21 20 19 20 21 21 20 19 18 19 21 23 26 27 26 25 27
6 7 8 8 8 7 7 7 7 7 8 9 10 10 11 12 14 15 16 16 17 19 20 20 21 24 25 25 24 24 23 22 22 23 21 21 21 21 20 19 21 19 22
6 7 7 7 7 7 7 7 7 7 7 7 7 8 9 10 10 12 12 13 14 16 16 17 17 18 18 19 20 20 21 22 22 22 22 23 22 21 21 19 19 20 21
6 6 7 7 7 7 6 5 5 6 7 7 7 7 9 10 12 14 15 16 17 18 17 16 17 16 17 18 19 20 18 18 19 20 20 21 22 22 22 22 21 22 25
7 6 6 6 5 5 5 4 2 1 2 4 6 6 7 8 10 12 13 14 15 16 17 18 19 19 19 18 17 18 19 18 21 19 20 19 21 22 23 24 24 24 25
6 6 5 5 5 5 6 6 5 4 2 1 2 4 6 7 9 10 11 12 12 12 14 16 17 19 21 22 22 20 23 23 23 21 23 22 22 24 25 23 23 25 27
7 7 7 6 6 5 4 4 3 3 2 2 3 5 6 8 9 11 13 14 15 16 17 17 18 20 21 23 25 26 28 28 26 26 23 23 22 24 25 26 27 30 32
9 8 7 6 4 3 3 3 2 2 3 4 6 8 11 12 13 16 18 19 20 20 21 21 21 22 23 25 27 26 26 25 25 23 25 24 24 25 26 26 29 34 30
11 10 9 7 5 4 3 2 2 3 4 5 7 9 12 13 14 16 17 19 19 20 21 21 23 23 24 24 25 25 25 25 26 27 26 27 27 32 34 35 35 32 30
13 12 10 9 7 5 3 0 2 4 6 7 8 11 12 14 14 15 17 18 18 20 20 21 22 22 23 25 26 27 28 29 28 28 28 28 29 32 32 32 35 36 36
16 15 13 10 9 7 5 3 3 4 6 8 10 12 13 13 14 16 19 18 19 19 21 21 23 24 24 24 25 25 27 27 29 31 32 34 39 43 45 44 40 36 33
20 17 14 11 9 7 6 5 5 6 7 8 10 13 14 16 16 18 20 21 22 23 24 25 27 29 29 31 33 33 33 32 32 33 35 39 41 40 41 46 48 49 46
24 21 17 14 11 8 6 4 5 5 7 10 11 14 16 18 19 19 20 22 24 24 25 28 30 31 32 34 36 36 36 36 35 35 38 39 43 44 45 46 44 43 47
29 25 20 16 12 10 8 7 7 8 10 11 14 16 18 20 20 22 22 23 25 26 27 29 30 31 32 34 36 36 36 35 36 37 39 42 45 47 47 48 48 49 48

GFSGL_850_spd_096.txt.gz
Wind_Speed
20 18 17 16 11 10 11 10 10 9 10 11 10 11 11 11 10 11 11 10 11 11 11 11 11 13 11 11 10 9 9 9 11 13 10 12 14 12 16 19 17 17 17
19 18 17 18 19 12 12 12 12 12 10 8 10 11 11 10 11 13 11 10 9 11 10 10 12 11 13 14 13 13 13 12 14 16 16 16 15 16 16 18 17 16 16
19 15 18 20 20 18 13 12 13 13 12 10 10 8 8 10 9 11 10 10 10 10 9 11 10 11 12 12 14 14 15 15 16 17 19 17 17 18 17 17 17 15 14
22 16 18 19 23 24 15 13 12 14 15 12 11 12 11 9 9 9 10 10 10 10 11 10 10 11 12 12 11 13 13 15 16 18 18 18 18 17 17 16 17 15 16
15 18 18 17 19 24 17 14 12 12 10 11 12 11 12 12 11 13 13 12 13 13 11 11 11 13 15 13 12 13 15 15 15 15 17 16 16 15 14 17 17 17 19
17 18 19 15 15 16 19 15 13 13 11 10 9 11 11 12 17 14 14 13 11 13 13 13 13 16 16 16 17 18 19 19 17 16 16 17 19 17 15 17 17 18 20
17 16 14 15 15 16 15 14 9 7 9 11 9 6 15 18 16 17 17 15 13 13 12 12 11 11 14 14 14 17 19 18 18 20 22 20 21 20 20 20 20 21 22
17 17 16 15 15 17 15 16 14 13 10 9 9 11 11 11 9 9 12 13 12 12 12 13 13 14 20 19 16 15 16 18 19 20 21 23 22 22 21 22 26 27 25
21 17 12 11 11 12 13 14 16 17 17 14 11 15 13 14 12 9 9 6 7 8 15 17 17 19 21 20 20 20 17 18 18 20 20 24 26 27 27 28 25 24 28
16 15 13 11 11 10 10 11 11 11 12 9 12 12 11 14 14 15 14 12 13 5 8 12 14 15 17 19 20 21 23 21 24 25 26 29 27 25 23 21 21 22 24
8 8 8 8 7 8 9 11 11 11 10 12 12 12 13 13 12 11 13 14 16 13 10 9 14 17 16 16 18 18 19 21 21 22 21 17 17 18 19 20 20 21 21
6 5 5 6 7 7 8 8 9 10 11 11 12 11 12 12 12 12 12 12 11 13 14 14 13 15 15 15 15 17 17 18 19 14 15 16 16 16 17 17 21 24 26
5 5 6 7 7 7 7 8 8 9 9 10 7 6 8 10 13 13 13 13 15 16 16 16 16 16 17 16 16 16 18 14 14 15 16 16 17 18 21 21 21 22 25
5 5 5 6 7 6 4 5 4 4 5 6 6 6 9 12 14 13 12 13 13 12 13 14 13 13 13 15 14 14 13 13 14 16 18 18 19 19 19 19 21 22 23
4 5 4 4 5 6 8 7 6 11 10 6 7 6 6 8 12 13 12 11 10 11 11 8 6 6 6 8 8 9 9 11 12 13 15 18 19 20 20 20 21 22 25
5 5 5 5 4 6 5 7 10 10 10 11 11 10 11 11 11 10 10 10 10 10 9 7 7 7 7 8 10 10 10 11 12 14 15 16 18 19 20 20 21 22 25
7 8 7 7 6 6 7 6 4 6 6 6 6 5 6 7 7 6 7 8 8 8 6 8 9 9 8 11 9 9 11 12 16 15 17 17 19 20 22 22 22 23 23
9 11 7 7 7 7 6 6 6 5 3 3 3 3 3 4 5 5 5 5 6 7 5 6 6 7 9 11 11 14 14 16 16 16 18 19 19 20 23 23 23 24 25
8 8 8 8 8 9 7 6 5 5 4 3 2 3 2 3 3 2 2 4 5 6 7 8 9 10 11 13 14 16 17 17 18 19 18 18 20 20 22 24 25 26 28
11 14 12 9 8 7 7 7 6 5 5 4 3 2 2 4 3 4 5 6 6 6 7 9 10 11 12 14 15 16 17 17 18 18 19 20 21 21 24 26 27 29 31
13 14 13 10 9 8 8 8 7 6 5 4 3 5 2 1 2 3 4 5 6 7 8 9 11 12 12 13 15 16 17 19 20 21 21 22 23 25 25 25 28 30 30
15 14 14 12 11 11 9 8 7 6 5 4 3 6 4 2 3 4 4 5 6 8 9 11 11 11 13 14 16 17 18 19 20 21 23 24 25 26 27 28 31 32 34
17 16 15 14 12 13 12 9 8 7 6 5 4 3 3 3 4 5 6 6 7 8 10 11 12 13 14 15 17 18 19 20 21 23 26 28 29 29 29 31 32 34 34
20 19 18 16 15 13 11 11 10 11 9 7 6 5 5 5 6 7 7 7 8 9 10 10 13 15 16 18 18 19 20 23 28 30 30 34 37 37 37 37 38 36 38
24 21 21 19 17 16 14 13 11 10 9 8 8 8 7 7 8 8 8 9 9 11 12 15 14 15 18 21 21 21 24 28 27 30 32 35 39 41 43 44 45 45 46
32 26 24 21 18 16 15 13 12 11 10 10 9 9 9 9 9 9 10 10 11 12 16 15 16 19 22 23 23 25 27 26 29 31 31 36 40 42 45 48 50 51 50

GFSGL_850_spd_099.txt.gz
Wind_Speed
13 14 14 10 11 9 8 10 9 10 11 4 5 8 8 9 10 12 14 7 7 11 13 10 9 11 12 12 13 13 14 13 15 14 12 10 13 15 14 25 19 18 18
17 17 14 14 13 13 11 10 10 11 7 9 9 11 13 13 12 12 11 10 11 12 12 12 12 11 12 12 15 16 16 19 17 22 21 21 18 17 20 21 20 18 16
23 18 15 11 17 18 15 10 11 12 14 9 8 8 10 10 11 14 14 11 12 11 11 11 11 10 12 12 15 12 13 14 15 16 18 19 19 17 19 17 20 17 16
17 17 16 13 17 19 19 17 14 13 14 12 11 11 10 9 12 10 10 11 11 11 11 11 12 12 12 11 11 10 12 13 13 15 17 19 16 15 17 17 14 16 16
22 21 25 20 15 18 21 22 18 19 16 14 13 14 12 10 15 14 12 11 12 11 12 12 12 12 14 15 13 12 15 12 13 15 15 15 14 14 16 17 17 18 18
20 16 15 18 17 13 15 19 15 14 14 11 11 13 13 19 18 15 14 13 12 12 11 12 14 15 17 15 15 16 17 18 19 15 15 16 20 17 15 17 20 21 22
22 18 15 15 13 11 11 12 17 12 10 9 9 13 14 14 12 16 17 16 14 13 13 13 11 12 15 14 15 15 15 15 18 19 21 21 22 21 21 24 19 21 22
19 17 14 12 13 12 11 10 12 10 9 8 6 12 12 12 10 11 13 14 14 13 14 15 15 19 18 19 19 16 14 14 17 20 20 21 21 21 23 24 28 30 28
21 17 14 13 12 12 13 13 13 9 9 8 11 14 11 10 9 9 8 2 9 10 15 14 17 18 17 17 17 20 17 17 16 20 24 26 25 24 24 25 26 21 25
17 17 16 13 12 11 10 12 11 11 8 10 14 18 14 14 11 12 14 12 5 6 11 10 10 12 13 12 13 16 17 12 17 22 23 23 24 21 17 17 22 23 24
10 9 11 12 11 11 11 10 9 9 8 8 8 13 13 13 11 10 10 13 14 14 14 9 12 12 14 16 15 14 14 16 15 18 18 15 15 15 15 18 16 17 18
7 7 5 4 6 7 7 8 10 11 11 10 9 5 8 12 14 13 12 12 11 11 12 16 19 18 16 16 18 17 17 17 17 14 14 15 15 13 14 17 20 23 25
4 3 6 6 6 5 6 6 6 7 8 6 6 6 7 4 10 13 12 12 13 13 13 12 12 13 13 14 16 16 17 16 12 12 13 15 15 16 20 20 20 20 23
3 5 5 6 5 5 3 1 4 3 4 4 5 7 8 8 14 12 11 10 11 11 11 9 8 9 7 10 8 9 10 10 13 15 14 14 17 17 17 18 21 21 23
2 2 3 3 4 5 9 13 10 16 11 12 8 6 8 7 15 9 9 9 8 8 8 4 3 3 3 3 6 7 8 9 10 11 12 14 16 16 16 17 19 19 21
4 4 4 6 6 6 6 8 15 13 11 15 15 14 12 13 13 12 9 7 5 3 3 3 2 3 2 4 6 6 7 8 10 12 13 14 15 16 18 20 20 20 22
7 7 7 9 7 8 8 9 7 8 10 11 13 14 13 11 8 6 4 2 2 5 5 2 4 5 5 7 8 9 10 13 14 12 13 14 16 18 19 19 19 21 22
8 12 7 6 8 9 9 9 9 7 5 6 5 7 7 6 5 3 2 5 7 6 3 3 3 5 5 6 7 9 11 12 13 15 16 15 16 17 18 19 19 22 23
9 8 9 9 8 9 8 8 8 9 7 6 5 4 2 2 1 1 3 4 3 1 2 3 4 5 6 7 8 10 12 12 15 15 15 16 17 19 20 20 23 24 25
11 14 12 10 10 9 8 8 9 8 7 7 6 5 2 4 3 1 1 2 2 1 2 3 4 5 6 8 9 11 12 13 14 15 16 17 18 19 21 23 24 27 29
12 12 15 11 10 9 10 10 10 9 9 8 8 13 4 8 4 2 2 1 1 1 3 3 4 6 6 8 9 11 12 13 14 15 16 17 19 21 22 23 25 26 28
16 15 15 14 13 13 12 11 11 10 10 9 8 11 6 5 4 3 3 2 3 3 3 4 5 5 7 8 10 12 13 14 15 17 19 20 21 22 24 25 26 28 29
19 18 17 16 16 16 15 13 12 12 11 10 9 8 3 4 6 5 5 4 4 4 5 5 5 6 8 9 11 12 14 15 17 21 25 25 27 28 28 31 31 31 31
23 22 21 19 19 18 16 15 14 15 12 11 10 9 8 7 6 7 7 6 6 6 6 7 7 8 8 10 10 12 13 21 24 26 26 29 31 33 34 37 38 38 40
24 23 24 22 22 21 18 17 16 15 13 13 11 10 9 9 8 8 8 8 8 8 8 8 9 9 9 12 13 13 18 20 23 23 25 29 33 35 38 40 42 44 45
32 28 25 25 25 23 21 19 18 16 15 14 12 11 10 10 10 9 9 9 9 9 11 11 9 11 11 12 14 21 21 22 23 23 25 30 34 39 40 43 44 46 48

GFSGL_850_spd_102.txt.gz
Wind_Speed
20 15 13 7 7 7 7 6 4 6 0 8 9 9 9 10 15 15 13 14 10 11 15 14 11 9 15 17 13 10 10 13 13 9 14 16 20 18 17 22 22 19 17
21 21 15 14 13 12 8 7 5 7 8 6 9 13 15 15 12 15 12 10 10 12 12 10 11 16 12 11 11 13 14 13 14 14 12 12 15 18 19 18 21 19 18
25 19 21 11 17 13 8 12 6 10 13 10 10 10 13 16 16 15 13 12 16 10 9 9 10 9 11 11 13 16 17 13 13 14 17 15 17 22 19 17 11 13 13
25 21 20 22 16 9 15 15 17 16 15 11 12 11 10 8 9 11 11 9 10 9 11 10 11 12 14 13 11 10 8 13 10 11 13 16 16 5 8 13 15 13 13
23 17 15 15 17 16 16 21 18 18 16 16 13 13 14 15 14 11 11 9 9 10 11 11 11 14 12 13 13 13 14 16 15 15 18 17 17 21 21 19 19 20 21
18 17 15 17 19 16 13 17 18 19 18 18 15 17 19 19 14 13 12 14 12 11 12 11 10 12 13 12 10 11 13 15 17 17 16 17 17 18 21 21 21 23 25
15 16 13 9 10 11 10 8 12 12 13 14 14 15 14 14 12 13 13 15 15 15 13 13 13 14 14 13 16 13 13 13 13 15 17 18 21 19 20 22 22 23 28
18 18 15 13 13 10 10 8 8 8 11 11 14 16 12 12 12 12 11 10 11 12 15 14 15 16 16 16 16 17 17 17 17 17 19 21 21 23 24 25 26 28 29
15 15 14 14 11 9 9 9 9 9 8 8 9 12 9 7 7 8 7 4 4 9 8 9 14 15 15 15 16 17 18 17 15 17 18 20 21 24 22 21 20 18 23
18 18 18 13 14 12 11 12 12 10 6 8 13 15 17 14 11 10 11 11 11 10 12 8 9 10 11 10 10 12 14 16 16 16 18 19 13 12 14 18 22 24 23
11 11 12 14 13 11 11 10 10 9 10 10 15 16 18 15 11 9 10 9 12 14 14 14 15 13 15 17 15 12 14 17 16 15 13 10 15 13 11 11 11 14 19
8 7 8 9 10 10 9 8 8 10 11 11 11 8 9 9 11 11 10 9 10 10 11 13 15 17 17 17 20 20 16 16 16 14 10 12 12 13 15 19 19 20 17
10 9 7 5 5 5 5 5 4 6 9 7 5 5 7 14 14 9 7 9 11 12 12 11 10 11 11 9 8 9 10 11 12 13 13 14 15 18 20 20 19 19 20
7 6 6 5 5 5 8 8 6 4 4 4 7 9 8 9 18 11 11 10 10 12 9 7 4 3 4 5 6 6 7 6 7 7 9 12 12 13 12 13 18 20 23
5 4 5 5 7 9 9 10 14 14 12 12 12 12 11 13 14 10 10 10 9 9 7 5 6 6 6 8 8 5 7 10 13 12 11 10 11 13 14 16 18 18 19
3 4 5 4 0 4 7 10 16 14 12 20 18 18 16 15 16 16 13 9 7 5 2 1 6 3 5 6 7 6 10 12 13 14 13 14 15 14 17 16 14 15 17
10 8 7 8 8 8 9 9 8 6 6 13 17 19 18 15 13 10 7 4 4 8 8 2 1 1 1 0 4 6 8 10 11 14 13 14 14 17 18 18 19 20 22
8 11 11 8 9 9 10 9 10 12 9 5 6 8 9 8 6 5 5 7 6 5 4 3 2 1 2 3 4 5 7 8 11 12 12 12 15 16 19 20 22 24 27
8 8 10 10 9 11 11 10 9 9 6 8 6 4 3 2 2 5 9 7 4 5 3 1 2 1 4 3 6 6 8 9 11 12 11 13 14 15 17 19 21 22 25
11 12 13 9 11 14 10 10 9 9 9 9 6 4 2 5 5 3 2 5 4 3 3 2 4 2 3 4 4 5 5 6 8 9 11 13 16 18 19 21 24 26 27
13 13 14 14 12 12 10 11 11 11 10 10 11 14 12 4 7 8 4 3 4 3 4 5 2 2 3 6 6 5 7 8 11 13 15 17 19 20 21 23 25 27 30
17 17 18 18 16 16 14 14 13 13 12 11 13 12 13 11 9 7 7 4 4 3 3 4 1 1 6 8 9 10 9 11 13 16 20 22 22 23 25 27 29 31 34
20 20 21 18 17 18 18 17 15 15 14 13 12 11 8 8 8 9 8 6 7 5 5 4 3 2 7 8 6 8 8 13 17 22 23 24 25 25 27 29 31 35 36
23 24 23 20 17 19 20 19 19 17 16 15 15 14 11 9 9 9 10 8 8 6 6 6 6 7 6 8 6 8 14 16 20 21 23 25 25 27 28 32 34 36 38
33 25 21 23 21 20 21 19 18 18 18 16 13 14 12 11 10 9 8 8 8 8 7 7 7 6 7 9 10 13 15 20 20 21 22 23 24 26 29 32 36 39 39
27 33 29 21 18 22 24 21 20 19 19 17 16 15 14 13 11 10 9 9 8 7 8 10 9 9 11 9 15 17 18 21 19 20 20 21 25 28 30 33 34 36 38

GFSGL_850_spd_105.txt.gz
Wind_Speed
21 20 16 15 15 14 12 9 6 6 1 4 11 11 11 8 12 15 15 15 12 11 10 13 15 14 10 10 12 13 11 8 8 7 7 10 14 14 16 18 18 18 20
26 24 19 14 17 14 12 10 7 7 7 6 8 10 10 11 13 13 12 11 12 12 10 9 12 12 11 11 12 10 9 9 9 9 10 12 15 20 19 17 17 14 14
25 17 16 14 17 16 13 13 12 9 5 6 7 5 8 13 15 14 15 13 13 14 9 9 8 7 9 12 11 11 14 15 14 11 10 10 13 4 7 8 5 10 15
27 21 15 11 14 16 14 12 12 15 12 10 9 9 7 10 11 14 13 10 10 11 10 10 10 10 11 10 9 7 9 10 9 10 10 10 15 13 19 19 18 18 18
23 19 15 13 17 16 14 11 12 14 14 14 11 12 14 10 10 13 9 8 8 11 11 11 11 12 10 10 10 10 12 15 13 12 14 16 16 16 18 19 19 19 17
21 19 18 11 10 12 11 12 12 12 19 17 15 14 14 13 11 10 8 11 11 9 9 8 12 15 12 10 9 7 9 9 8 10 9 9 11 12 14 16 18 21 25
13 17 13 11 10 11 12 9 5 6 8 14 14 13 12 11 12 10 9 10 12 13 15 14 13 14 14 12 10 8 9 10 11 12 13 13 15 14 17 20 21 22 24
13 15 14 13 13 9 7 5 4 4 7 9 12 15 14 14 12 11 10 11 12 15 14 14 13 12 13 13 13 11 11 12 14 15 16 15 15 16 18 18 17 18 17
20 16 16 13 10 8 8 6 5 7 8 8 11 11 8 7 7 7 8 7 9 10 9 11 10 10 10 10 10 10 10 9 10 11 12 13 12 8 11 13 14 18 21
17 16 13 14 11 9 7 6 6 8 11 10 10 7 7 8 8 9 9 11 10 11 10 10 9 9 9 7 8 9 10 9 9 8 6 4 5 4 7 5 6 10 13
12 15 16 16 13 11 10 9 7 8 10 9 8 10 13 14 11 10 10 9 11 13 14 13 13 13 14 14 14 14 15 16 15 11 9 7 6 7 7 9 7 9 11
10 9 9 8 9 10 9 9 8 9 10 9 7 7 8 7 5 5 7 8 10 11 12 10 11 11 11 8 7 6 5 5 7 8 9 10 11 12 13 16 16 14 12
9 8 8 8 8 9 10 10 9 10 10 9 8 5 10 9 11 9 9 7 9 8 9 8 8 6 4 1 2 3 5 6 6 7 7 7 10 13 16 18 18 18 17
8 8 8 8 8 9 9 9 9 8 9 9 8 7 7 12 12 12 7 6 7 7 6 5 6 6 5 7 5 5 8 9 10 11 11 13 14 15 14 16 17 18 18
8 7 7 7 7 7 7 8 8 7 7 8 9 12 13 14 14 11 10 12 11 8 7 6 7 6 6 6 7 9 10 11 12 12 12 12 13 15 14 16 17 19 19
5 4 4 5 2 4 6 7 8 10 10 13 14 13 14 14 16 17 16 13 10 7 6 5 3 6 6 9 10 10 10 10 10 10 10 11 12 15 17 17 17 18 21
6 4 4 4 5 4 5 7 7 5 5 7 12 18 20 20 21 19 13 8 4 7 7 6 4 5 5 6 7 7 8 9 10 11 10 12 14 15 17 19 21 22 23
9 11 11 9 8 7 11 10 10 9 9 9 8 8 10 12 13 10 7 6 9 8 8 6 7 7 8 8 8 6 6 7 8 9 11 13 15 17 18 20 22 24 26
12 12 13 15 13 14 12 12 13 12 11 10 7 9 8 6 6 8 12 11 8 10 9 9 10 10 9 8 7 5 5 7 9 11 13 15 16 18 19 20 21 22 24
16 13 14 11 17 17 17 18 16 14 13 10 9 6 6 3 7 10 12 9 8 10 12 11 11 10 10 8 7 7 7 9 10 11 13 14 16 17 18 20 21 24 26
18 19 18 17 16 16 16 14 16 14 14 12 12 11 9 6 8 9 7 7 13 12 12 11 10 8 9 9 8 8 8 10 11 12 13 17 17 19 20 21 23 25 28
24 20 18 18 18 19 19 13 13 15 13 15 17 15 13 9 10 11 11 11 11 12 12 8 8 8 10 10 10 8 8 10 11 13 17 17 18 18 20 22 24 27 29
31 26 24 25 22 20 21 18 17 17 18 18 15 14 13 14 14 15 13 12 10 10 10 9 7 9 11 11 10 10 10 11 14 17 18 17 17 18 19 23 26 28 29
22 25 29 24 29 25 24 21 21 20 17 17 19 16 13 8 13 12 14 14 12 11 10 11 10 10 11 10 12 11 13 12 15 19 18 18 17 18 21 23 24 25 27
21 24 28 20 25 26 19 21 21 18 21 18 20 19 17 13 13 15 14 13 12 12 10 9 7 8 9 13 16 17 15 15 17 18 17 17 16 17 18 21 23 24 25
22 22 25 31 25 19 22 23 18 20 17 21 22 17 16 17 18 17 14 12 12 10 8 9 10 14 13 16 18 17 16 15 17 18 19 17 15 15 16 20 20 24 26

GFSGL_850_spd_108.txt.gz
Wind_Speed
25 22 21 19 18 17 13 11 9 9 8 11 13 12 9 13 11 11 13 15 14 12 10 10 13 11 10 11 9 6 2 2 3 7 8 7 10 12 13 13 13 9 12
23 22 21 19 19 18 17 13 11 10 10 7 6 10 12 14 13 12 13 15 15 15 12 10 11 12 12 12 10 12 12 11 10 11 11 12 13 12 8 6 7 6 5
21 22 22 17 20 19 16 14 12 11 10 10 9 8 10 15 15 14 13 11 12 11 12 10 9 9 9 10 11 11 11 11 12 12 12 10 8 9 12 13 14 13 14
24 26 24 21 20 20 18 18 16 14 11 10 11 11 10 10 13 14 13 11 12 12 12 12 11 10 12 12 11 7 8 8 8 11 11 13 14 14 15 18 19 14 13
30 27 22 20 16 18 21 19 15 16 18 18 16 15 13 11 9 10 8 7 9 10 9 10 13 10 11 10 13 12 13 13 12 11 11 11 11 12 13 13 15 15 15
31 31 24 19 14 16 19 17 15 15 17 18 19 17 13 12 10 8 8 7 9 9 11 12 13 12 11 11 11 12 11 12 11 11 11 12 13 13 14 14 16 18 19
34 22 22 17 16 16 17 15 13 13 14 17 20 19 16 14 11 7 5 9 11 14 12 13 12 12 13 12 11 11 11 13 14 15 15 15 16 13 14 15 14 13 12
20 23 22 19 17 14 11 11 11 10 9 9 11 12 12 12 10 15 14 11 12 13 13 12 12 13 12 11 10 11 12 14 14 14 14 13 13 14 15 15 13 14 14
18 18 18 17 16 13 12 11 9 9 8 8 9 11 11 9 8 8 8 8 9 8 9 10 10 9 8 7 6 6 8 9 10 9 9 11 10 11 12 11 10 12 10
17 16 19 14 16 12 10 9 9 9 8 8 8 8 8 7 6 7 8 10 10 8 9 8 8 8 8 8 8 8 8 8 8 6 7 7 7 7 7 8 8 11 12
17 17 19 13 14 14 11 11 10 10 11 11 11 10 9 9 11 11 12 12 12 12 11 11 11 12 12 12 11 12 12 12 12 14 12 10 12 12 11 9 9 11 11
13 13 15 16 16 14 12 10 11 11 11 11 10 9 7 6 5 4 7 10 11 10 9 9 9 9 10 11 8 9 7 7 6 7 8 9 10 10 9 10 10 9 11
11 12 11 11 11 12 13 13 12 12 11 10 9 10 9 7 6 6 5 6 7 8 9 9 9 7 10 9 8 8 6 6 6 7 7 8 9 11 12 12 12 10 10
8 8 8 8 8 9 10 10 10 12 13 13 12 12 11 9 7 6 5 3 3 5 6 7 6 6 9 9 8 7 8 8 8 9 10 11 11 10 11 12 12 12 14
7 6 5 5 5 6 6 6 7 7 8 8 9 10 10 10 10 8 6 8 8 6 5 8 8 8 10 10 10 9 9 9 11 11 9 9 10 10 11 12 14 15 17
3 3 3 3 5 6 7 7 7 8 9 9 10 11 12 12 12 12 13 13 10 7 8 10 11 11 10 10 10 10 10 8 7 7 7 9 10 12 13 14 15 16 19
4 4 3 4 4 4 4 3 4 5 5 6 8 10 13 18 21 19 16 14 10 9 12 12 9 6 5 6 7 7 6 5 6 7 8 10 12 13 14 16 17 18 19
8 9 8 9 9 11 11 10 9 8 8 9 9 8 9 11 12 12 10 10 11 11 13 11 9 8 8 8 8 7 6 6 6 8 9 10 11 13 14 15 17 19 21
13 13 14 16 15 14 15 14 13 12 12 12 11 10 12 12 8 7 10 11 14 12 12 9 9 9 8 9 8 7 6 6 7 8 9 10 11 13 13 15 17 18 20
14 13 16 18 17 19 18 16 17 19 18 15 11 9 10 6 5 9 11 8 10 11 10 9 9 9 10 9 8 8 7 7 7 7 7 9 11 13 14 15 17 19 21
21 19 16 19 20 18 20 19 18 21 21 18 13 10 9 7 5 6 12 10 10 10 11 13 13 13 11 9 7 9 8 7 6 7 10 11 12 13 15 16 18 20 21
20 24 25 25 22 23 22 21 18 16 18 17 14 14 13 12 9 8 13 13 10 10 12 13 12 11 10 10 9 9 8 7 8 9 11 12 13 13 13 14 16 18 19
16 22 24 26 25 25 22 23 25 19 17 18 16 16 15 15 11 11 15 14 12 11 11 11 10 10 11 11 11 10 9 9 9 9 12 12 12 12 12 15 17 18 18
18 19 22 26 28 32 33 28 27 25 21 20 20 19 14 14 13 13 18 16 13 12 12 12 11 10 11 10 9 10 10 11 10 12 12 12 13 12 12 14 16 16 17
15 19 19 21 25 29 30 28 28 29 25 24 22 19 18 16 15 13 16 16 14 12 11 9 11 11 11 11 14 12 14 14 12 12 12 13 13 12 11 12 15 18 21
19 20 22 23 24 24 28 33 29 27 25 24 23 23 20 21 21 17 18 18 16 13 12 11 12 12 14 16 16 15 16 14 11 12 12 12 12 11 10 11 14 19 18

GFSGL_850_spd_111.txt.gz
Wind_Speed
19 21 19 19 18 17 15 12 10 10 9 10 12 15 13 13 16 15 12 10 10 10 10 10 10 10 10 8 9 11 9 9 10 10 11 11 11 14 15 15 14 14 11
20 18 19 18 18 19 18 15 13 12 11 8 13 16 13 12 16 15 15 14 14 14 12 11 10 10 11 10 9 9 10 12 15 16 15 14 15 16 14 11 9 11 15
22 19 20 20 19 19 19 19 16 14 12 11 10 10 12 14 17 18 16 13 12 11 11 12 10 10 9 9 9 10 12 11 11 12 12 12 13 13 13 13 14 17 17
23 22 23 22 23 21 19 20 17 16 12 11 10 10 12 12 15 18 16 15 14 15 14 14 14 11 9 9 11 11 11 12 11 12 15 14 14 14 15 16 17 16 12
24 23 23 23 26 21 20 22 21 22 18 15 14 16 16 15 13 11 11 12 12 13 14 14 11 10 9 9 10 11 12 14 15 14 12 12 12 12 13 14 15 16 15
22 19 26 21 22 19 21 24 22 18 13 13 17 17 16 14 12 13 12 13 12 11 10 12 13 12 9 12 12 14 14 14 13 13 12 13 13 14 15 14 15 17 17
27 21 23 25 23 20 20 20 20 18 19 18 19 18 18 16 15 12 10 10 12 12 12 11 12 11 12 13 14 15 14 13 12 14 15 15 15 14 16 15 14 13 12
19 19 26 26 24 21 20 18 18 17 15 13 12 12 14 14 16 17 19 17 9 14 15 15 16 13 13 12 12 13 13 12 13 14 14 13 14 13 14 14 12 10 7
17 19 22 26 23 21 17 14 14 12 11 10 10 10 9 9 10 11 12 10 11 12 14 15 14 11 10 10 9 10 11 10 9 10 11 11 11 12 12 10 8 9 7
23 27 24 21 19 14 14 14 10 8 7 9 9 8 8 8 8 7 8 10 9 9 9 8 8 8 9 10 10 10 10 10 8 9 9 10 11 11 12 13 12 12 11
30 24 20 21 18 16 13 11 11 11 10 11 10 9 9 8 9 10 11 12 13 12 12 12 12 13 13 14 14 13 13 12 11 12 11 12 12 12 12 12 11 11 12
18 21 23 20 12 11 13 12 11 10 10 12 11 9 7 6 5 6 7 10 11 11 11 12 12 12 12 12 11 10 8 6 6 7 7 9 10 10 8 10 12 12 12
6 8 10 11 14 15 15 13 10 10 11 10 10 9 8 8 7 6 6 7 9 10 13 12 12 13 11 11 9 8 8 7 8 8 8 8 8 8 9 8 9 9 10
6 5 6 6 6 6 6 8 9 10 12 11 11 10 9 8 6 6 6 5 5 6 10 10 10 11 10 8 7 6 8 8 9 8 8 8 8 7 7 7 6 5 5
5 5 4 3 3 3 3 4 5 7 9 10 10 10 9 7 7 8 7 7 9 9 10 9 8 9 9 9 9 9 9 9 10 9 7 6 7 7 6 7 8 9 10
4 4 5 4 4 4 4 5 4 5 7 8 9 9 9 9 10 11 13 12 12 9 11 12 11 10 10 10 11 11 10 9 8 7 6 6 6 7 7 8 10 11 13
2 2 2 2 2 2 2 2 3 4 4 5 7 8 9 11 15 17 19 18 15 13 15 15 13 11 8 7 7 7 6 5 4 4 5 5 6 7 8 9 10 12 14
6 7 8 8 7 7 6 7 8 8 7 6 8 8 8 9 11 12 13 12 13 12 14 14 12 9 6 6 7 6 5 4 5 5 5 6 7 8 10 11 13 14 16
8 9 10 11 12 13 14 13 12 12 12 11 11 11 10 11 12 10 9 8 10 10 13 14 9 6 6 7 6 6 6 6 6 6 6 7 8 10 12 13 14 15 15
12 13 14 13 14 16 17 17 16 14 14 15 15 14 13 11 10 8 8 7 9 11 13 11 7 6 8 8 7 6 6 6 6 7 7 8 10 10 11 11 12 13 13
15 17 18 18 18 17 18 20 19 19 17 18 17 14 14 11 7 6 7 6 8 9 9 8 8 10 11 9 8 7 7 7 6 6 7 8 9 10 10 11 11 11 11
17 16 18 19 20 21 24 23 22 20 20 20 17 15 17 16 12 9 7 9 11 9 7 7 9 9 9 8 7 7 7 6 7 7 8 9 9 9 9 8 9 9 11
19 21 18 19 21 23 24 24 25 23 23 22 18 17 18 19 17 16 12 12 15 12 8 7 7 7 7 7 7 7 5 5 6 7 8 8 7 7 6 6 7 10 13
20 19 21 19 19 21 25 27 26 27 30 25 22 21 21 20 18 19 15 13 18 15 10 8 6 4 4 4 3 5 5 6 7 7 7 7 7 6 4 4 7 12 13
18 20 20 19 19 19 21 23 26 29 28 28 26 25 23 21 18 20 18 15 19 17 12 8 5 3 2 4 5 5 5 8 9 7 7 6 6 5 4 4 6 10 11
14 17 18 19 20 21 21 24 26 25 28 30 27 25 24 22 21 22 21 16 18 18 14 11 5 2 4 6 7 7 8 10 7 6 7 7 7 7 7 6 7 9 11

GFSGL_850_spd_114.txt.gz
Wind_Speed
24 19 18 18 17 15 12 10 9 9 9 12 14 14 17 17 17 18 16 14 13 11 10 10 11 12 12 12 11 10 9 10 13 14 15 14 14 13 13 14 13 12 12
24 20 17 18 16 17 15 12 11 12 12 12 12 14 16 15 15 17 17 15 16 16 15 15 13 11 11 12 13 11 10 12 13 14 14 14 15 14 13 13 13 14 17
25 23 19 19 18 17 16 14 14 13 14 15 13 12 16 18 16 14 16 15 16 17 16 15 15 15 13 12 11 10 10 11 11 11 12 13 14 13 13 12 13 14 15
29 26 22 22 20 19 17 20 16 15 16 17 16 14 14 15 15 17 17 16 16 17 17 17 16 16 13 12 11 11 11 10 10 11 13 15 12 11 11 12 12 12 11
26 28 26 22 18 18 24 12 21 19 17 19 18 16 14 14 13 13 12 13 14 16 17 17 15 14 11 11 11 11 11 10 12 14 13 12 11 13 13 14 15 13 12
22 27 26 22 21 17 21 16 18 19 19 20 22 16 15 15 14 13 13 13 12 13 13 14 16 15 13 12 11 12 12 12 12 13 11 12 13 15 15 15 15 14 10
21 22 19 17 19 15 22 20 22 24 21 18 14 15 17 16 15 15 13 12 10 11 12 11 12 13 14 14 14 15 13 12 13 12 13 14 14 15 15 12 12 12 10
23 22 22 22 22 20 23 20 19 17 16 15 17 15 15 15 14 13 13 13 12 6 9 13 12 14 14 15 15 14 12 11 12 13 13 14 14 12 10 9 7 6 8
17 16 22 17 17 18 25 23 22 19 16 14 11 11 10 9 9 9 9 9 13 17 15 14 15 14 12 14 12 10 9 9 11 12 12 12 10 11 11 10 7 7 7
15 13 12 16 19 22 22 24 19 12 10 11 10 10 9 9 8 7 6 8 8 8 9 9 10 9 9 9 9 9 10 11 11 12 11 11 12 12 12 12 11 9 10
20 18 17 19 19 22 18 13 9 10 10 10 10 9 8 8 8 8 9 9 9 10 10 10 11 11 11 12 12 12 13 13 12 12 12 12 13 14 14 14 12 10 10
15 19 18 23 15 16 10 8 9 12 11 10 10 10 9 8 7 6 6 8 10 11 12 13 14 14 13 12 11 9 8 8 7 7 9 10 11 11 11 10 11 10 9
10 13 13 20 10 9 10 11 12 11 10 10 11 9 8 7 6 6 6 6 7 9 10 12 13 13 12 10 9 8 7 7 7 7 8 10 9 9 10 9 9 9 9
9 9 9 9 8 9 10 9 9 10 12 11 10 8 6 6 6 7 5 5 5 6 7 9 10 11 10 9 8 7 6 7 7 8 10 9 9 6 6 6 6 6 7
8 7 7 7 6 4 3 4 5 7 7 8 8 8 6 6 7 8 8 7 7 8 9 8 8 8 8 8 8 8 8 9 9 9 10 8 6 6 5 4 4 4 6
9 8 6 5 5 5 4 4 4 4 4 6 6 6 6 6 8 10 11 12 11 10 11 9 8 9 9 8 8 8 9 9 9 7 6 5 3 4 3 3 4 5 7
10 10 9 7 4 4 4 2 1 1 2 3 4 5 6 6 8 10 13 16 17 16 14 13 13 11 11 9 7 7 8 7 6 4 4 4 2 2 2 3 4 6 7
7 7 7 6 6 5 4 5 6 6 7 7 6 7 7 8 9 11 12 13 13 14 14 14 14 13 10 7 6 6 6 6 5 4 4 3 2 2 4 4 5 7 8
5 6 7 7 8 8 9 10 11 10 10 11 10 10 10 11 11 12 11 10 10 9 11 14 14 12 8 5 5 6 6 5 5 4 4 3 3 4 5 5 6 8 9
8 8 9 9 10 12 13 14 14 14 14 13 13 12 13 13 12 11 9 7 6 7 9 14 15 11 7 6 6 7 7 6 6 5 5 4 4 5 5 6 6 6 6
11 12 14 15 15 15 15 15 15 17 16 17 17 15 15 15 14 10 7 4 3 9 13 14 11 8 9 10 8 7 7 7 6 6 6 4 4 4 4 4 5 5 5
18 18 18 18 19 20 19 19 20 20 20 20 18 17 16 17 18 14 9 5 4 9 10 9 9 8 8 7 7 7 7 7 7 6 5 5 5 4 4 4 4 5 6
18 18 18 18 18 19 19 20 21 22 22 23 22 20 19 19 19 20 16 12 9 11 13 10 7 7 6 7 6 5 5 5 5 5 5 5 5 4 3 3 2 4 6
14 15 17 18 17 18 18 18 18 19 19 21 24 25 25 23 20 22 23 19 16 16 16 11 7 5 4 5 5 4 4 4 4 4 4 4 4 3 3 3 1 3 6
14 14 15 17 18 19 20 20 21 20 23 26 26 26 27 28 22 23 22 24 21 18 20 15 10 6 6 4 4 4 4 4 4 4 3 3 3 3 3 4 4 4 6
13 14 14 14 15 17 19 22 23 24 26 27 26 24 25 24 23 22 21 26 25 19 21 19 13 10 7 5 3 4 4 5 5 3 3 4 4 5 5 6 6 6 7

GFSGL_850_spd_117.txt.gz
Wind_Speed
28 25 23 20 18 17 14 14 13 12 10 10 12 13 15 17 18 17 16 15 16 15 14 12 12 12 14 15 15 15 14 13 12 12 14 14 14 13 12 13 14 13 11
27 25 22 19 19 18 17 15 14 13 11 10 10 11 13 15 17 17 17 17 17 17 16 17 16 16 15 14 14 16 15 14 13 13 11 9 9 10 10 11 11 8 11
29 26 24 21 21 20 20 18 17 16 14 13 11 12 12 14 15 16 14 15 17 18 18 18 17 17 17 15 15 14 12 13 14 12 9 11 13 10 8 8 9 10 7
29 28 27 24 21 21 19 18 17 17 17 16 13 12 13 14 14 16 16 16 17 18 18 18 16 16 16 14 13 12 13 14 13 12 12 11 12 10 10 9 9 8 7
31 31 30 27 23 22 22 21 18 19 18 16 14 13 14 13 13 14 15 15 16 18 19 19 19 18 16 15 12 11 13 13 13 13 13 11 11 9 12 11 11 9 8
31 32 29 28 26 25 23 22 25 22 22 17 14 16 15 17 17 17 17 15 15 15 15 14 15 13 13 13 13 12 11 13 13 12 11 10 11 11 11 11 10 7 4
21 21 24 29 31 29 25 20 19 17 18 18 17 18 21 19 14 13 14 15 15 14 15 14 11 9 9 10 11 11 12 14 12 11 10 10 11 12 11 8 8 6 3
20 26 22 29 33 25 23 19 18 18 15 15 14 14 13 14 17 15 16 15 14 11 9 11 11 12 15 13 14 15 14 12 10 10 10 10 8 7 7 6 5 7 6
24 23 24 24 24 25 24 21 22 20 16 14 14 16 15 15 14 12 13 15 17 19 19 16 17 15 14 12 13 13 12 10 9 9 9 9 9 8 7 7 5 5 6
18 19 18 20 21 17 14 14 16 20 18 19 18 12 11 10 9 10 10 10 10 10 10 14 15 13 12 14 12 11 10 11 13 13 12 11 10 11 10 10 9 6 6
14 15 14 11 12 13 14 15 17 16 21 18 15 13 10 9 8 7 7 9 8 9 9 9 9 9 10 11 12 12 13 15 14 13 12 11 11 11 12 11 9 8 8
16 19 20 12 4 4 6 10 10 9 11 10 8 9 9 7 7 7 8 8 9 11 12 14 13 14 14 13 14 12 11 10 10 10 9 10 11 10 10 10 9 9 8
6 8 13 13 8 3 3 8 7 13 14 12 9 12 10 7 6 5 6 6 6 8 10 12 12 12 12 11 10 9 8 7 7 8 8 10 11 10 10 9 8 7 7
11 11 12 9 17 11 12 11 13 13 14 13 12 8 7 6 6 7 6 6 5 6 8 10 10 10 10 9 9 10 9 8 8 9 9 10 11 10 8 7 6 6 6
13 13 12 8 6 6 7 7 7 6 6 6 5 4 5 7 7 8 7 7 8 7 8 8 9 8 8 8 7 8 8 8 9 9 11 11 10 8 7 7 6 5 5
15 15 14 12 11 8 7 6 4 2 1 1 3 3 5 7 7 8 9 11 11 11 12 10 10 9 9 9 9 9 10 10 11 10 9 8 8 7 6 5 5 4 5
15 15 13 12 10 9 8 6 4 2 2 2 3 4 5 5 6 8 9 11 12 15 16 14 13 12 12 12 11 11 10 10 10 8 7 7 7 6 5 4 4 4 4
10 10 9 8 7 5 4 4 4 4 4 6 6 6 6 6 7 9 10 12 12 14 15 14 13 16 16 14 12 9 9 9 8 8 8 8 7 6 5 4 3 3 3
5 4 4 4 4 4 5 6 7 7 8 9 10 11 10 11 11 11 11 11 12 13 14 15 16 17 16 14 11 9 9 9 8 7 8 8 7 6 5 4 4 4 2
3 4 5 5 7 7 9 9 10 10 10 10 10 12 14 14 14 13 12 12 11 13 13 14 15 17 15 12 10 9 10 9 9 9 9 8 7 6 5 4 3 2 1
6 7 8 10 11 12 13 13 14 14 15 15 15 15 14 16 17 17 15 12 11 11 13 13 15 16 13 12 12 12 11 11 11 10 10 8 7 6 5 4 3 3 2
14 14 14 14 14 13 12 13 14 15 16 17 16 16 18 19 19 20 19 16 13 11 12 13 14 14 14 14 13 12 12 12 11 10 9 8 6 6 5 4 3 3 2
8 8 9 9 9 10 10 10 11 12 13 13 13 15 18 21 21 21 20 20 18 14 15 16 16 15 14 14 13 12 10 10 10 9 8 8 7 6 5 5 4 2 1
7 7 8 8 9 9 8 9 11 13 16 15 15 16 17 21 24 27 23 23 23 20 17 18 18 15 13 13 13 12 11 10 9 8 8 7 6 6 6 5 4 3 2
8 9 9 9 9 9 10 9 11 13 16 17 18 20 21 21 23 27 29 26 27 26 25 22 21 15 13 11 10 9 9 9 8 7 6 6 6 6 5 5 6 5 5
9 9 9 10 11 12 13 14 15 16 16 17 17 17 17 18 19 23 24 23 24 22 20 21 24 18 14 12 11 10 8 8 6 5 5 4 4 4 5 5 6 6 7

GFSGL_850_spd_120.txt.gz
Wind_Speed
21 19 18 17 15 15 14 14 15 14 14 11 11 12 12 14 13 15 13 12 13 12 12 13 12 12 11 11 12 12 12 12 13 12 11 10 11 8 8 9 7 6 8
21 21 19 19 18 15 17 14 13 14 12 11 9 10 11 13 13 14 15 13 14 14 14 14 14 12 14 14 12 12 12 12 13 13 12 10 9 10 9 7 5 4 6
20 20 21 20 21 18 17 16 15 13 13 11 12 11 11 10 12 13 15 13 13 14 14 15 14 14 14 14 14 13 12 11 13 10 10 10 9 9 7 6 4 5 3
20 20 21 21 20 20 17 17 15 18 17 14 12 11 10 11 10 11 12 12 13 13 15 15 15 15 15 13 13 14 12 14 13 12 13 10 11 9 7 5 5 4 2
22 20 21 23 22 21 19 19 16 16 15 16 17 17 14 10 11 11 10 10 12 12 14 16 17 18 17 17 16 14 11 10 10 10 13 13 11 10 10 6 7 6 7
23 24 21 24 26 26 22 21 19 19 18 16 16 15 17 17 16 15 13 14 15 14 13 10 13 11 13 13 12 12 13 13 13 14 12 12 11 9 8 8 7 5 5
15 20 21 21 24 27 27 25 24 22 22 22 20 19 17 19 18 18 14 12 13 14 14 13 13 9 9 10 10 11 12 12 12 11 13 11 10 10 10 5 6 4 3
10 13 22 23 24 23 27 28 27 22 20 20 21 20 18 17 19 20 13 13 15 15 14 12 14 12 10 11 14 14 15 13 10 10 11 12 11 9 7 5 5 5 5
14 17 19 24 26 29 30 32 30 26 23 21 18 14 12 12 11 11 14 14 15 16 18 18 15 12 14 15 14 14 12 12 9 9 9 9 8 7 6 4 7 7 9
12 15 21 20 21 23 25 20 27 23 19 20 16 18 16 14 9 8 9 9 11 11 12 11 15 21 16 14 14 13 8 9 10 11 10 9 8 8 8 8 7 6 7
15 16 15 13 7 15 16 8 9 12 17 19 15 8 8 7 7 7 7 8 9 7 5 5 7 8 10 10 11 11 11 11 12 11 6 4 5 6 9 8 8 8 3
15 12 12 10 4 10 9 2 6 2 8 3 9 11 10 9 8 6 7 8 9 9 9 9 12 13 13 13 13 14 13 11 6 7 6 4 3 2 9 10 9 10 10
12 11 12 11 9 7 7 4 7 3 1 2 4 6 8 7 7 7 7 6 7 8 10 10 11 12 12 13 13 12 10 7 7 8 8 6 9 11 10 10 10 9 9
9 9 10 11 10 8 7 7 8 7 11 17 16 12 9 8 8 7 7 8 8 8 9 9 10 10 10 10 10 11 11 11 10 8 12 12 10 9 9 9 7 5 2
16 14 13 10 8 7 5 3 4 5 6 6 6 5 3 3 5 7 8 8 8 8 9 10 8 7 5 8 10 11 10 11 11 11 10 11 8 7 10 7 4 2 3
15 15 16 15 14 13 11 7 5 5 4 4 2 0 2 5 6 7 8 9 10 11 11 7 8 8 8 8 7 9 9 10 10 11 11 11 8 6 5 5 4 3 3
17 16 15 13 10 11 10 7 7 6 5 3 1 1 3 3 4 6 7 9 11 13 13 11 9 11 11 11 10 10 8 8 11 8 6 5 6 5 5 4 3 3 3
12 12 9 9 8 7 6 4 4 2 1 4 3 4 5 6 6 7 9 10 11 12 12 11 11 12 12 12 11 11 9 10 7 7 6 5 6 6 5 4 3 4 5
6 5 5 4 4 3 3 3 4 5 5 5 7 8 10 10 11 11 12 13 12 11 10 12 12 13 14 14 13 11 9 7 7 6 6 7 6 5 5 5 8 8 5
2 1 1 2 3 3 4 4 5 5 5 6 6 6 10 11 13 13 14 14 13 12 12 13 13 14 14 13 13 11 9 11 10 8 7 7 7 6 6 6 6 5 4
2 3 4 4 5 6 6 7 8 8 9 9 10 11 12 12 12 12 13 14 14 13 14 13 13 13 13 13 12 11 10 9 9 8 9 8 8 7 6 6 5 4 5
4 4 5 5 5 5 6 7 8 9 9 10 11 12 15 17 14 15 16 17 16 16 14 13 12 13 13 13 13 11 11 11 10 10 9 8 8 6 5 5 5 5 5
2 2 2 2 3 4 5 6 7 8 9 10 11 12 13 14 15 16 17 18 18 18 16 14 13 14 15 13 12 11 11 11 11 10 9 8 7 6 6 6 6 5 5
4 4 4 4 3 3 4 6 7 9 10 11 13 14 15 17 18 19 20 20 21 19 17 18 16 15 15 12 11 10 11 11 10 9 9 7 7 8 7 7 6 6 5
2 2 3 3 3 4 5 6 8 9 11 13 14 15 16 17 18 18 18 20 21 20 20 20 18 15 18 14 12 11 16 16 10 11 6 7 7 8 6 6 7 6 7
4 4 4 4 5 6 6 7 10 12 14 14 14 15 15 15 15 15 15 15 16 17 19 23 22 19 17 13 10 14 14 11 10 9 7 6 5 5 5 5 6 6 7

GFSGL_850_spd_123.txt.gz
Wind_Speed
23 22 20 19 18 16 16 15 13 15 16 14 13 14 13 16 18 18 16 16 12 12 11 14 10 12 11 11 13 10 12 13 15 16 12 13 16 8 9 9 7 13 12
22 22 20 18 18 17 16 15 17 13 13 13 13 12 12 13 13 15 15 14 15 14 10 13 13 12 12 11 12 14 12 14 11 17 15 14 15 8 7 8 5 8 2
22 22 20 19 18 18 16 15 14 12 13 11 12 11 11 11 11 12 15 14 14 14 13 14 14 15 15 15 17 12 11 12 15 13 17 17 17 13 6 6 4 5 10
21 21 22 21 19 18 17 16 15 15 14 11 13 13 12 11 11 12 13 12 14 13 13 19 16 18 19 17 14 15 16 15 14 14 16 16 14 19 9 7 9 3 7
21 20 21 20 19 18 18 18 17 16 15 15 15 15 13 11 12 15 17 12 11 11 12 14 13 14 18 16 17 17 18 17 12 12 14 11 15 16 14 10 6 6 8
23 22 20 20 19 19 19 19 20 19 18 16 16 16 15 14 19 20 20 14 12 12 12 11 13 13 15 15 15 13 13 12 13 15 14 13 13 12 8 6 8 11 6
20 18 23 16 16 16 18 21 22 21 20 19 19 19 17 19 20 19 17 16 11 10 9 10 11 10 11 11 10 11 12 12 12 13 13 15 13 13 11 11 9 10 7
14 15 16 16 15 16 19 23 24 24 24 23 20 20 20 22 19 19 18 15 13 15 15 13 9 12 13 11 8 11 13 14 14 12 14 12 12 13 12 9 8 8 7
13 11 9 10 15 18 18 23 24 24 27 30 25 21 21 20 19 15 13 18 12 12 14 13 13 13 11 11 12 15 14 12 12 12 11 11 12 12 12 9 6 8 12
16 10 7 6 9 10 16 21 23 28 31 30 30 22 19 14 12 10 7 6 5 9 8 8 9 11 18 21 16 11 11 11 9 9 10 12 12 12 11 11 12 11 7
13 13 9 7 9 8 13 20 8 7 6 13 17 16 15 16 9 8 8 7 4 1 1 7 7 6 5 7 9 10 10 10 11 10 7 6 5 6 6 8 9 10 10
15 13 11 11 6 1 2 2 2 2 5 1 8 7 4 5 4 3 5 7 5 6 4 9 13 11 11 11 12 13 13 13 12 9 8 7 6 4 10 9 9 11 11
13 12 10 8 6 10 9 7 7 7 8 12 11 9 3 2 6 9 8 5 4 3 8 8 10 11 10 10 13 13 12 7 7 12 9 8 7 11 14 13 11 10 11
9 7 7 10 13 13 7 6 5 4 2 3 6 8 3 2 5 4 2 3 5 6 7 7 7 8 8 10 12 9 9 12 13 10 13 13 15 9 6 7 6 8 6
15 12 11 9 8 8 7 7 3 3 2 4 7 9 8 6 3 2 5 7 7 8 8 9 9 7 5 7 6 9 11 10 11 14 13 14 14 14 12 14 10 8 7
18 16 16 14 13 11 9 9 9 7 5 6 5 3 1 0 2 4 7 9 9 10 10 8 7 8 9 9 9 7 8 11 7 10 9 10 9 11 10 7 6 5 7
16 17 13 10 9 8 8 7 10 10 9 7 5 3 1 1 3 5 6 8 10 11 12 11 11 11 13 10 11 10 10 11 13 9 9 8 8 9 13 8 7 6 7
15 12 9 9 8 8 7 6 5 5 7 7 4 3 3 4 5 7 9 10 11 12 14 8 10 10 12 11 13 15 12 17 18 12 10 9 11 9 9 9 8 8 8
7 5 5 5 4 5 6 7 6 4 3 1 6 8 9 9 9 10 12 13 12 11 10 12 12 13 13 14 14 13 13 13 10 10 8 9 9 9 9 9 10 14 12
3 1 3 1 2 2 1 2 3 4 4 4 5 6 8 10 12 10 12 14 12 11 12 13 13 13 13 13 13 14 13 13 12 12 9 10 9 9 9 10 9 8 6
2 3 3 0 2 3 3 3 4 5 6 6 7 8 9 13 14 13 13 13 15 15 16 17 17 15 15 13 13 12 11 12 11 10 10 10 9 9 9 9 8 8 7
2 3 3 2 2 2 2 3 3 4 5 7 8 10 13 14 10 11 13 14 15 16 17 18 17 17 17 15 13 12 13 13 13 12 11 10 10 9 9 8 8 7 7
1 1 0 1 1 2 3 4 4 5 6 8 9 10 12 13 14 15 16 17 18 19 18 18 19 20 18 19 14 12 13 14 13 12 11 10 10 9 9 8 7 7 6
2 2 2 2 2 3 2 3 4 6 8 10 12 13 14 15 15 16 18 18 18 18 18 20 21 21 19 18 14 11 13 12 10 10 10 9 9 9 8 7 7 6 6
4 3 3 2 3 3 4 4 5 6 8 10 12 13 14 14 15 15 15 14 16 18 17 18 18 21 24 14 15 15 17 16 13 10 7 7 7 7 6 6 6 6 5
4 4 4 3 2 2 2 3 5 7 10 11 11 10 11 11 10 12 13 12 13 15 14 15 17 17 18 21 20 21 19 19 17 16 10 5 5 4 4 4 5 5 6